<?xml version="1.0" encoding="UTF-8" standalone="no" ?>
<gpx xmlns="http://www.topografix.com/GPX/1/1" xmlns:xsi="http://www.w3.org/2001/XMLSchema-instance" xsi:schemaLocation="http://www.topografix.com/GPX/1/1 http://www.topografix.com/GPX/1/1/gpx.xsd" version="1.1" creator="VisuGPX - https://www.visugpx.com">
  <metadata>
    <name>Collobrières - Plateau Lambert</name>
    <desc><![CDATA[TEST RECO]]></desc>
  </metadata>
  <trk>
    <name><![CDATA[Collobrières Lambert]]></name>
    <extensions>
      <line xmlns="http://www.topografix.com/GPX/gpx_style/0/2">
        <color>ff0000</color>
        <opacity>1</opacity>
        <width>5</width>
      </line>
    </extensions>
    <trkseg>
      <trkpt lat="43.23496" lon="6.30851">
        <ele>158.9</ele>
        <time>2025-04-21T07:45:10Z</time>
      </trkpt>
      <trkpt lat="43.23498" lon="6.30859">
        <ele>158.4</ele>
        <time>2025-04-21T07:47:10.270Z</time>
      </trkpt>
      <trkpt lat="43.23497" lon="6.30864">
        <ele>158.4</ele>
        <time>2025-04-21T07:48:24Z</time>
      </trkpt>
      <trkpt lat="43.23497" lon="6.30869">
        <ele>158.4</ele>
        <time>2025-04-21T07:49:09Z</time>
      </trkpt>
      <trkpt lat="43.23492" lon="6.30873">
        <ele>159</ele>
        <time>2025-04-21T07:49:16.831Z</time>
      </trkpt>
      <trkpt lat="43.23488" lon="6.30876">
        <ele>159.5</ele>
        <time>2025-04-21T07:49:23Z</time>
      </trkpt>
      <trkpt lat="43.23484" lon="6.30881">
        <ele>159.9</ele>
        <time>2025-04-21T07:49:31.878Z</time>
      </trkpt>
      <trkpt lat="43.2348" lon="6.30885">
        <ele>160.3</ele>
        <time>2025-04-21T07:49:40Z</time>
      </trkpt>
      <trkpt lat="43.23475" lon="6.3089">
        <ele>160.7</ele>
        <time>2025-04-21T07:49:46.129Z</time>
      </trkpt>
      <trkpt lat="43.23471" lon="6.30896">
        <ele>161.2</ele>
        <time>2025-04-21T07:49:52Z</time>
      </trkpt>
      <trkpt lat="43.23465" lon="6.30904">
        <ele>161.8</ele>
        <time>2025-04-21T07:50:04Z</time>
      </trkpt>
      <trkpt lat="43.23461" lon="6.30908">
        <ele>162.1</ele>
        <time>2025-04-21T07:50:10.182Z</time>
      </trkpt>
      <trkpt lat="43.23456" lon="6.30911">
        <ele>162.4</ele>
        <time>2025-04-21T07:50:17Z</time>
      </trkpt>
      <trkpt lat="43.23451" lon="6.30914">
        <ele>162.7</ele>
        <time>2025-04-21T07:50:23.450Z</time>
      </trkpt>
      <trkpt lat="43.23445" lon="6.30917">
        <ele>163</ele>
        <time>2025-04-21T07:50:31Z</time>
      </trkpt>
      <trkpt lat="43.23441" lon="6.30921">
        <ele>163.4</ele>
        <time>2025-04-21T07:50:34.188Z</time>
      </trkpt>
      <trkpt lat="43.23437" lon="6.30924">
        <ele>163.7</ele>
        <time>2025-04-21T07:50:37.125Z</time>
      </trkpt>
      <trkpt lat="43.23433" lon="6.30927">
        <ele>164.1</ele>
        <time>2025-04-21T07:50:40.062Z</time>
      </trkpt>
      <trkpt lat="43.23429" lon="6.3093">
        <ele>164.4</ele>
        <time>2025-04-21T07:50:43Z</time>
      </trkpt>
      <trkpt lat="43.23427" lon="6.30936">
        <ele>164.4</ele>
        <time>2025-04-21T07:51:37Z</time>
      </trkpt>
      <trkpt lat="43.23424" lon="6.30938">
        <ele>164.6</ele>
        <time>2025-04-21T07:51:46Z</time>
      </trkpt>
      <trkpt lat="43.23424" lon="6.30944">
        <ele>164.5</ele>
        <time>2025-04-21T07:51:50.153Z</time>
      </trkpt>
      <trkpt lat="43.23424" lon="6.30951">
        <ele>165.1</ele>
        <time>2025-04-21T07:51:55Z</time>
      </trkpt>
      <trkpt lat="43.23419" lon="6.30955">
        <ele>165.7</ele>
        <time>2025-04-21T07:52:02.720Z</time>
      </trkpt>
      <trkpt lat="43.23414" lon="6.30958">
        <ele>165.9</ele>
        <time>2025-04-21T07:52:10Z</time>
      </trkpt>
      <trkpt lat="43.23409" lon="6.3096">
        <ele>165.9</ele>
        <time>2025-04-21T07:52:15.398Z</time>
      </trkpt>
      <trkpt lat="43.23402" lon="6.30963">
        <ele>165.6</ele>
        <time>2025-04-21T07:52:23Z</time>
      </trkpt>
      <trkpt lat="43.23394" lon="6.30966">
        <ele>165</ele>
        <time>2025-04-21T07:52:27.999Z</time>
      </trkpt>
      <trkpt lat="43.23386" lon="6.30969">
        <ele>164.7</ele>
        <time>2025-04-21T07:52:33Z</time>
      </trkpt>
      <trkpt lat="43.23382" lon="6.30969">
        <ele>165.2</ele>
        <time>2025-04-21T07:52:35.880Z</time>
      </trkpt>
      <trkpt lat="43.23377" lon="6.3097">
        <ele>165.7</ele>
        <time>2025-04-21T07:52:39.518Z</time>
      </trkpt>
      <trkpt lat="43.23372" lon="6.3097">
        <ele>166.3</ele>
        <time>2025-04-21T07:52:43.119Z</time>
      </trkpt>
      <trkpt lat="43.23368" lon="6.3097">
        <ele>166.7</ele>
        <time>2025-04-21T07:52:46Z</time>
      </trkpt>
      <trkpt lat="43.23362" lon="6.30971">
        <ele>167.2</ele>
        <time>2025-04-21T07:52:52.000Z</time>
      </trkpt>
      <trkpt lat="43.23356" lon="6.30972">
        <ele>168.3</ele>
        <time>2025-04-21T07:52:58Z</time>
      </trkpt>
      <trkpt lat="43.23351" lon="6.30971">
        <ele>169.8</ele>
        <time>2025-04-21T07:53:04.031Z</time>
      </trkpt>
      <trkpt lat="43.23346" lon="6.30971">
        <ele>171</ele>
        <time>2025-04-21T07:53:10Z</time>
      </trkpt>
      <trkpt lat="43.23339" lon="6.30972">
        <ele>172.6</ele>
        <time>2025-04-21T07:53:14.318Z</time>
      </trkpt>
      <trkpt lat="43.23333" lon="6.30972">
        <ele>174.2</ele>
        <time>2025-04-21T07:53:18Z</time>
      </trkpt>
      <trkpt lat="43.23325" lon="6.30971">
        <ele>177.9</ele>
        <time>2025-04-21T07:53:30Z</time>
      </trkpt>
      <trkpt lat="43.23318" lon="6.30968">
        <ele>180.7</ele>
        <time>2025-04-21T07:53:39.087Z</time>
      </trkpt>
      <trkpt lat="43.23312" lon="6.30965">
        <ele>182.7</ele>
        <time>2025-04-21T07:53:47Z</time>
      </trkpt>
      <trkpt lat="43.23305" lon="6.30964">
        <ele>185.1</ele>
        <time>2025-04-21T07:54:07Z</time>
      </trkpt>
      <trkpt lat="43.233" lon="6.30959">
        <ele>185.6</ele>
        <time>2025-04-21T07:54:19Z</time>
      </trkpt>
      <trkpt lat="43.23294" lon="6.30951">
        <ele>185.1</ele>
        <time>2025-04-21T07:54:33Z</time>
      </trkpt>
      <trkpt lat="43.23289" lon="6.30946">
        <ele>184.7</ele>
        <time>2025-04-21T07:54:50Z</time>
      </trkpt>
      <trkpt lat="43.23284" lon="6.30943">
        <ele>185.5</ele>
        <time>2025-04-21T07:54:56.651Z</time>
      </trkpt>
      <trkpt lat="43.23279" lon="6.30941">
        <ele>186.8</ele>
        <time>2025-04-21T07:55:03Z</time>
      </trkpt>
      <trkpt lat="43.23273" lon="6.30939">
        <ele>189.1</ele>
        <time>2025-04-21T07:55:09.499Z</time>
      </trkpt>
      <trkpt lat="43.23267" lon="6.30937">
        <ele>191.3</ele>
        <time>2025-04-21T07:55:16Z</time>
      </trkpt>
      <trkpt lat="43.23262" lon="6.30935">
        <ele>192.8</ele>
        <time>2025-04-21T07:55:23.778Z</time>
      </trkpt>
      <trkpt lat="43.23256" lon="6.30933">
        <ele>194.4</ele>
        <time>2025-04-21T07:55:33Z</time>
      </trkpt>
      <trkpt lat="43.23252" lon="6.30922">
        <ele>192.4</ele>
        <time>2025-04-21T07:55:47Z</time>
      </trkpt>
      <trkpt lat="43.23248" lon="6.30921">
        <ele>193</ele>
        <time>2025-04-21T07:56:00Z</time>
      </trkpt>
      <trkpt lat="43.23247" lon="6.30914">
        <ele>192.2</ele>
        <time>2025-04-21T07:56:09.597Z</time>
      </trkpt>
      <trkpt lat="43.23241" lon="6.30916">
        <ele>193.7</ele>
        <time>2025-04-21T07:56:21Z</time>
      </trkpt>
      <trkpt lat="43.23236" lon="6.30917">
        <ele>195.1</ele>
        <time>2025-04-21T07:56:29.196Z</time>
      </trkpt>
      <trkpt lat="43.2323" lon="6.30918">
        <ele>197.2</ele>
        <time>2025-04-21T07:56:39Z</time>
      </trkpt>
      <trkpt lat="43.23225" lon="6.30918">
        <ele>198.6</ele>
        <time>2025-04-21T07:56:45.666Z</time>
      </trkpt>
      <trkpt lat="43.23221" lon="6.30918">
        <ele>199.8</ele>
        <time>2025-04-21T07:56:51Z</time>
      </trkpt>
      <trkpt lat="43.23214" lon="6.30912">
        <ele>202.3</ele>
        <time>2025-04-21T07:57:07Z</time>
      </trkpt>
      <trkpt lat="43.23211" lon="6.30901">
        <ele>204.8</ele>
        <time>2025-04-21T07:57:19Z</time>
      </trkpt>
      <trkpt lat="43.2321" lon="6.30892">
        <ele>206.4</ele>
        <time>2025-04-21T07:57:29Z</time>
      </trkpt>
      <trkpt lat="43.23205" lon="6.30888">
        <ele>208.7</ele>
        <time>2025-04-21T07:57:34.390Z</time>
      </trkpt>
      <trkpt lat="43.23201" lon="6.30884">
        <ele>209.8</ele>
        <time>2025-04-21T07:57:39Z</time>
      </trkpt>
      <trkpt lat="43.23195" lon="6.30881">
        <ele>211.7</ele>
        <time>2025-04-21T07:57:44.228Z</time>
      </trkpt>
      <trkpt lat="43.23195" lon="6.30873">
        <ele>210.5</ele>
        <time>2025-04-21T07:57:49Z</time>
      </trkpt>
      <trkpt lat="43.23196" lon="6.30862">
        <ele>208.7</ele>
        <time>2025-04-21T07:57:58Z</time>
      </trkpt>
      <trkpt lat="43.23188" lon="6.30858">
        <ele>211.5</ele>
        <time>2025-04-21T07:58:06Z</time>
      </trkpt>
      <trkpt lat="43.23182" lon="6.3085">
        <ele>213.4</ele>
        <time>2025-04-21T07:58:23.591Z</time>
      </trkpt>
      <trkpt lat="43.23178" lon="6.30846">
        <ele>214.5</ele>
        <time>2025-04-21T07:58:34Z</time>
      </trkpt>
      <trkpt lat="43.23174" lon="6.30839">
        <ele>215.3</ele>
        <time>2025-04-21T07:58:45Z</time>
      </trkpt>
      <trkpt lat="43.23173" lon="6.30833">
        <ele>215.2</ele>
        <time>2025-04-21T07:58:54Z</time>
      </trkpt>
      <trkpt lat="43.23171" lon="6.30825">
        <ele>217</ele>
        <time>2025-04-21T07:59:09.320Z</time>
      </trkpt>
      <trkpt lat="43.23171" lon="6.30818">
        <ele>218.1</ele>
        <time>2025-04-21T07:59:22Z</time>
      </trkpt>
      <trkpt lat="43.23171" lon="6.30812">
        <ele>219.1</ele>
        <time>2025-04-21T07:59:28.973Z</time>
      </trkpt>
      <trkpt lat="43.23172" lon="6.30807">
        <ele>219.6</ele>
        <time>2025-04-21T07:59:35Z</time>
      </trkpt>
      <trkpt lat="43.23173" lon="6.308">
        <ele>221</ele>
        <time>2025-04-21T07:59:51Z</time>
      </trkpt>
      <trkpt lat="43.23175" lon="6.30791">
        <ele>222.9</ele>
        <time>2025-04-21T07:59:57.892Z</time>
      </trkpt>
      <trkpt lat="43.23179" lon="6.30783">
        <ele>224</ele>
        <time>2025-04-21T08:00:05Z</time>
      </trkpt>
      <trkpt lat="43.23183" lon="6.30774">
        <ele>225.3</ele>
        <time>2025-04-21T08:00:11.778Z</time>
      </trkpt>
      <trkpt lat="43.23186" lon="6.30767">
        <ele>226.1</ele>
        <time>2025-04-21T08:00:17Z</time>
      </trkpt>
      <trkpt lat="43.23189" lon="6.30763">
        <ele>226.1</ele>
        <time>2025-04-21T08:00:22.793Z</time>
      </trkpt>
      <trkpt lat="43.23193" lon="6.30757">
        <ele>226.2</ele>
        <time>2025-04-21T08:00:31Z</time>
      </trkpt>
      <trkpt lat="43.23198" lon="6.30753">
        <ele>226</ele>
        <time>2025-04-21T08:00:38.606Z</time>
      </trkpt>
      <trkpt lat="43.23204" lon="6.3075">
        <ele>226</ele>
        <time>2025-04-21T08:00:47Z</time>
      </trkpt>
      <trkpt lat="43.23209" lon="6.30745">
        <ele>226.7</ele>
        <time>2025-04-21T08:00:57.000Z</time>
      </trkpt>
      <trkpt lat="43.23214" lon="6.3074">
        <ele>227</ele>
        <time>2025-04-21T08:01:07Z</time>
      </trkpt>
      <trkpt lat="43.23217" lon="6.30729">
        <ele>228.4</ele>
        <time>2025-04-21T08:01:44Z</time>
      </trkpt>
      <trkpt lat="43.23217" lon="6.30726">
        <ele>229</ele>
        <time>2025-04-21T08:02:21Z</time>
      </trkpt>
      <trkpt lat="43.23216" lon="6.30732">
        <ele>228.1</ele>
        <time>2025-04-21T08:02:50Z</time>
      </trkpt>
      <trkpt lat="43.23212" lon="6.30734">
        <ele>228.7</ele>
        <time>2025-04-21T08:02:56.401Z</time>
      </trkpt>
      <trkpt lat="43.23207" lon="6.30735">
        <ele>229.6</ele>
        <time>2025-04-21T08:03:04Z</time>
      </trkpt>
      <trkpt lat="43.23203" lon="6.30736">
        <ele>230.2</ele>
        <time>2025-04-21T08:03:15.886Z</time>
        <extensions>
          <visugpx:TrkExtension xmlns:visugpx="https://www.visugpx.com/editgpx/">
            <visugpx:node>1</visugpx:node>
            </visugpx:TrkExtension>
        </extensions>
      </trkpt>
      <trkpt lat="43.23203" lon="6.30737">
        <ele>229.9</ele>
        <time>2025-04-21T08:03:18.015Z</time>
      </trkpt>
      <trkpt lat="43.23197" lon="6.30738">
        <ele>230.7</ele>
        <time>2025-04-21T08:03:35.756Z</time>
      </trkpt>
      <trkpt lat="43.23191" lon="6.3074">
        <ele>231.9</ele>
        <time>2025-04-21T08:03:53.497Z</time>
      </trkpt>
      <trkpt lat="43.23185" lon="6.30741">
        <ele>233.4</ele>
        <time>2025-04-21T08:04:11.238Z</time>
      </trkpt>
      <trkpt lat="43.23179" lon="6.30742">
        <ele>234.9</ele>
        <time>2025-04-21T08:04:28.979Z</time>
      </trkpt>
      <trkpt lat="43.23173" lon="6.30744">
        <ele>236.2</ele>
        <time>2025-04-21T08:04:47.740Z</time>
      </trkpt>
      <trkpt lat="43.23167" lon="6.30746">
        <ele>237.5</ele>
        <time>2025-04-21T08:05:06.501Z</time>
      </trkpt>
      <trkpt lat="43.2316" lon="6.30748">
        <ele>238.3</ele>
        <time>2025-04-21T08:05:25.262Z</time>
      </trkpt>
      <trkpt lat="43.23154" lon="6.3075">
        <ele>239.2</ele>
        <time>2025-04-21T08:05:44.023Z</time>
      </trkpt>
      <trkpt lat="43.23149" lon="6.30753">
        <ele>239.8</ele>
        <time>2025-04-21T08:06:00.648Z</time>
      </trkpt>
      <trkpt lat="43.23144" lon="6.30756">
        <ele>240.5</ele>
        <time>2025-04-21T08:06:17.273Z</time>
      </trkpt>
      <trkpt lat="43.23138" lon="6.30759">
        <ele>241.3</ele>
        <time>2025-04-21T08:06:33.898Z</time>
      </trkpt>
      <trkpt lat="43.23133" lon="6.30762">
        <ele>242.6</ele>
        <time>2025-04-21T08:06:50.523Z</time>
      </trkpt>
      <trkpt lat="43.23127" lon="6.30767">
        <ele>243.8</ele>
        <time>2025-04-21T08:07:10.772Z</time>
      </trkpt>
      <trkpt lat="43.23121" lon="6.30772">
        <ele>244.9</ele>
        <time>2025-04-21T08:07:31.021Z</time>
      </trkpt>
      <trkpt lat="43.23115" lon="6.30776">
        <ele>246</ele>
        <time>2025-04-21T08:07:51.270Z</time>
      </trkpt>
      <trkpt lat="43.23109" lon="6.30781">
        <ele>247.5</ele>
        <time>2025-04-21T08:08:11.519Z</time>
        <extensions>
          <visugpx:TrkExtension xmlns:visugpx="https://www.visugpx.com/editgpx/">
            <visugpx:node>2</visugpx:node>
            </visugpx:TrkExtension>
        </extensions>
      </trkpt>
      <trkpt lat="43.23104" lon="6.30786">
        <ele>249.3</ele>
        <time>2025-04-21T08:08:30.238Z</time>
      </trkpt>
      <trkpt lat="43.23098" lon="6.3079">
        <ele>250.9</ele>
        <time>2025-04-21T08:08:48.957Z</time>
      </trkpt>
      <trkpt lat="43.23094" lon="6.30798">
        <ele>251.3</ele>
        <time>2025-04-21T08:09:09.623Z</time>
      </trkpt>
      <trkpt lat="43.2309" lon="6.30806">
        <ele>251.6</ele>
        <time>2025-04-21T08:09:30.289Z</time>
      </trkpt>
      <trkpt lat="43.23089" lon="6.30812">
        <ele>252.7</ele>
        <time>2025-04-21T08:09:44.305Z</time>
      </trkpt>
      <trkpt lat="43.23087" lon="6.30819">
        <ele>253.9</ele>
        <time>2025-04-21T08:09:58.321Z</time>
      </trkpt>
      <trkpt lat="43.23086" lon="6.30825">
        <ele>255.1</ele>
        <time>2025-04-21T08:10:12.337Z</time>
      </trkpt>
      <trkpt lat="43.23084" lon="6.30831">
        <ele>256.4</ele>
        <time>2025-04-21T08:10:26.353Z</time>
      </trkpt>
      <trkpt lat="43.23082" lon="6.30835">
        <ele>257.8</ele>
        <time>2025-04-21T08:10:36.686Z</time>
      </trkpt>
      <trkpt lat="43.23079" lon="6.30835">
        <ele>259.5</ele>
        <time>2025-04-21T08:10:45.456Z</time>
      </trkpt>
      <trkpt lat="43.23076" lon="6.30832">
        <ele>260.8</ele>
        <time>2025-04-21T08:10:56.307Z</time>
      </trkpt>
      <trkpt lat="43.23073" lon="6.30824">
        <ele>261.2</ele>
        <time>2025-04-21T08:11:15.947Z</time>
      </trkpt>
      <trkpt lat="43.2307" lon="6.30816">
        <ele>261.3</ele>
        <time>2025-04-21T08:11:35.587Z</time>
      </trkpt>
      <trkpt lat="43.23067" lon="6.30807">
        <ele>261.3</ele>
        <time>2025-04-21T08:11:55.227Z</time>
      </trkpt>
      <trkpt lat="43.23064" lon="6.30799">
        <ele>264</ele>
        <time>2025-04-21T08:12:14.867Z</time>
      </trkpt>
      <trkpt lat="43.23064" lon="6.30799">
        <ele>264</ele>
        <time>2025-04-21T08:12:14.867Z</time>
      </trkpt>
      <trkpt lat="43.23064" lon="6.30799">
        <ele>264</ele>
        <time>2025-04-21T08:12:14.867Z</time>
        <extensions>
          <visugpx:TrkExtension xmlns:visugpx="https://www.visugpx.com/editgpx/">
            <visugpx:node>3</visugpx:node>
            </visugpx:TrkExtension>
        </extensions>
      </trkpt>
      <trkpt lat="43.23064" lon="6.30799">
        <ele>264</ele>
        <time>2025-04-21T08:12:14.867Z</time>
      </trkpt>
      <trkpt lat="43.23062" lon="6.30797">
        <ele>265.5</ele>
        <time>2025-04-21T08:12:22.101Z</time>
      </trkpt>
      <trkpt lat="43.23059" lon="6.30797">
        <ele>266.9</ele>
        <time>2025-04-21T08:12:30.871Z</time>
      </trkpt>
      <trkpt lat="43.23054" lon="6.30801">
        <ele>267.8</ele>
        <time>2025-04-21T08:12:47.790Z</time>
      </trkpt>
      <trkpt lat="43.2305" lon="6.30804">
        <ele>268.2</ele>
        <time>2025-04-21T08:13:01.116Z</time>
      </trkpt>
      <trkpt lat="43.23046" lon="6.30807">
        <ele>269.4</ele>
        <time>2025-04-21T08:13:14.442Z</time>
      </trkpt>
      <trkpt lat="43.23042" lon="6.3081">
        <ele>271.2</ele>
        <time>2025-04-21T08:13:27.768Z</time>
      </trkpt>
      <trkpt lat="43.23038" lon="6.30813">
        <ele>273</ele>
        <time>2025-04-21T08:13:41.094Z</time>
      </trkpt>
      <trkpt lat="43.23032" lon="6.30814">
        <ele>275.1</ele>
        <time>2025-04-21T08:14:00.215Z</time>
      </trkpt>
      <trkpt lat="43.23025" lon="6.30815">
        <ele>275.3</ele>
        <time>2025-04-21T08:14:19.337Z</time>
      </trkpt>
      <trkpt lat="43.23023" lon="6.30815">
        <ele>274.6</ele>
        <time>2025-04-21T08:14:25.184Z</time>
        <extensions>
          <visugpx:TrkExtension xmlns:visugpx="https://www.visugpx.com/editgpx/">
            <visugpx:node>4</visugpx:node>
            </visugpx:TrkExtension>
        </extensions>
      </trkpt>
      <trkpt lat="43.23019" lon="6.30814">
        <ele>273</ele>
        <time>2025-04-21T08:14:37.070Z</time>
      </trkpt>
      <trkpt lat="43.23014" lon="6.30809">
        <ele>270.5</ele>
        <time>2025-04-21T08:14:55.156Z</time>
      </trkpt>
      <trkpt lat="43.23011" lon="6.30803">
        <ele>269</ele>
        <time>2025-04-21T08:15:11.528Z</time>
      </trkpt>
      <trkpt lat="43.23007" lon="6.30797">
        <ele>268.3</ele>
        <time>2025-04-21T08:15:27.900Z</time>
      </trkpt>
      <trkpt lat="43.23004" lon="6.30791">
        <ele>267.4</ele>
        <time>2025-04-21T08:15:44.272Z</time>
      </trkpt>
      <trkpt lat="43.23" lon="6.30785">
        <ele>266.5</ele>
        <time>2025-04-21T08:16:00.644Z</time>
      </trkpt>
      <trkpt lat="43.22996" lon="6.30785">
        <ele>264.8</ele>
        <time>2025-04-21T08:16:12.338Z</time>
      </trkpt>
      <trkpt lat="43.22996" lon="6.30784">
        <ele>264.9</ele>
        <time>2025-04-21T08:16:14.468Z</time>
        <extensions>
          <visugpx:TrkExtension xmlns:visugpx="https://www.visugpx.com/editgpx/">
            <visugpx:node>5</visugpx:node>
            </visugpx:TrkExtension>
        </extensions>
      </trkpt>
      <trkpt lat="43.22996" lon="6.30785">
        <ele>264.8</ele>
        <time>2025-04-21T08:16:16.598Z</time>
      </trkpt>
      <trkpt lat="43.22992" lon="6.30785">
        <ele>263.2</ele>
        <time>2025-04-21T08:16:28.292Z</time>
      </trkpt>
      <trkpt lat="43.22992" lon="6.30794">
        <ele>262.5</ele>
        <time>2025-04-21T08:16:46.457Z</time>
      </trkpt>
      <trkpt lat="43.22991" lon="6.30802">
        <ele>261.9</ele>
        <time>2025-04-21T08:17:04.622Z</time>
      </trkpt>
      <trkpt lat="43.22988" lon="6.30809">
        <ele>260.9</ele>
        <time>2025-04-21T08:17:21.921Z</time>
        <extensions>
          <visugpx:TrkExtension xmlns:visugpx="https://www.visugpx.com/editgpx/">
            <visugpx:node>6</visugpx:node>
            </visugpx:TrkExtension>
        </extensions>
      </trkpt>
      <trkpt lat="43.22988" lon="6.3081">
        <ele>261</ele>
        <time>2025-04-21T08:17:24.051Z</time>
      </trkpt>
      <trkpt lat="43.22981" lon="6.30813">
        <ele>258.4</ele>
        <time>2025-04-21T08:17:45.490Z</time>
      </trkpt>
      <trkpt lat="43.22973" lon="6.30809">
        <ele>255.3</ele>
        <time>2025-04-21T08:18:10.383Z</time>
      </trkpt>
      <trkpt lat="43.22973" lon="6.30808">
        <ele>255.3</ele>
        <time>2025-04-21T08:18:12.513Z</time>
      </trkpt>
      <trkpt lat="43.22972" lon="6.30808">
        <ele>254.9</ele>
        <time>2025-04-21T08:18:15.436Z</time>
        <extensions>
          <visugpx:TrkExtension xmlns:visugpx="https://www.visugpx.com/editgpx/">
            <visugpx:node>7</visugpx:node>
            </visugpx:TrkExtension>
        </extensions>
      </trkpt>
      <trkpt lat="43.22972" lon="6.30813">
        <ele>254.9</ele>
        <time>2025-04-21T08:18:26.087Z</time>
      </trkpt>
      <trkpt lat="43.22972" lon="6.3082">
        <ele>254.9</ele>
        <time>2025-04-21T08:18:41Z</time>
      </trkpt>
      <trkpt lat="43.2297" lon="6.30825">
        <ele>254</ele>
        <time>2025-04-21T08:18:45.394Z</time>
      </trkpt>
      <trkpt lat="43.22967" lon="6.30831">
        <ele>252.6</ele>
        <time>2025-04-21T08:18:51Z</time>
      </trkpt>
      <trkpt lat="43.22965" lon="6.30839">
        <ele>252.2</ele>
        <time>2025-04-21T08:18:57.499Z</time>
      </trkpt>
      <trkpt lat="43.22963" lon="6.30847">
        <ele>252.2</ele>
        <time>2025-04-21T08:19:04Z</time>
      </trkpt>
      <trkpt lat="43.22959" lon="6.30854">
        <ele>251.4</ele>
        <time>2025-04-21T08:19:10.420Z</time>
      </trkpt>
      <trkpt lat="43.22954" lon="6.3086">
        <ele>250.3</ele>
        <time>2025-04-21T08:19:17Z</time>
      </trkpt>
      <trkpt lat="43.22948" lon="6.30864">
        <ele>249.3</ele>
        <time>2025-04-21T08:19:22.999Z</time>
      </trkpt>
      <trkpt lat="43.22942" lon="6.30868">
        <ele>249.1</ele>
        <time>2025-04-21T08:19:29Z</time>
      </trkpt>
      <trkpt lat="43.22935" lon="6.30875">
        <ele>250.5</ele>
        <time>2025-04-21T08:19:35.144Z</time>
      </trkpt>
      <trkpt lat="43.22928" lon="6.30881">
        <ele>251.4</ele>
        <time>2025-04-21T08:19:41Z</time>
      </trkpt>
      <trkpt lat="43.22922" lon="6.30887">
        <ele>252.3</ele>
        <time>2025-04-21T08:19:46.805Z</time>
      </trkpt>
      <trkpt lat="43.22917" lon="6.30893">
        <ele>253</ele>
        <time>2025-04-21T08:19:52Z</time>
      </trkpt>
      <trkpt lat="43.22914" lon="6.30898">
        <ele>253</ele>
        <time>2025-04-21T08:19:56.458Z</time>
      </trkpt>
      <trkpt lat="43.22912" lon="6.30904">
        <ele>253.7</ele>
        <time>2025-04-21T08:20:01Z</time>
      </trkpt>
      <trkpt lat="43.22911" lon="6.3091">
        <ele>254.7</ele>
        <time>2025-04-21T08:20:06.146Z</time>
      </trkpt>
      <trkpt lat="43.22911" lon="6.30917">
        <ele>256.2</ele>
        <time>2025-04-21T08:20:12Z</time>
      </trkpt>
      <trkpt lat="43.22909" lon="6.30924">
        <ele>256.9</ele>
        <time>2025-04-21T08:20:17.499Z</time>
      </trkpt>
      <trkpt lat="43.22907" lon="6.30931">
        <ele>257.7</ele>
        <time>2025-04-21T08:20:23Z</time>
      </trkpt>
      <trkpt lat="43.22903" lon="6.30934">
        <ele>257.3</ele>
        <time>2025-04-21T08:20:28.736Z</time>
      </trkpt>
      <trkpt lat="43.229" lon="6.30938">
        <ele>257.5</ele>
        <time>2025-04-21T08:20:34Z</time>
      </trkpt>
      <trkpt lat="43.22894" lon="6.30939">
        <ele>256.5</ele>
        <time>2025-04-21T08:20:39.500Z</time>
      </trkpt>
      <trkpt lat="43.22888" lon="6.3094">
        <ele>255.6</ele>
        <time>2025-04-21T08:20:45Z</time>
      </trkpt>
      <trkpt lat="43.22882" lon="6.30945">
        <ele>255.9</ele>
        <time>2025-04-21T08:20:50.640Z</time>
      </trkpt>
      <trkpt lat="43.22876" lon="6.30949">
        <ele>256.1</ele>
        <time>2025-04-21T08:20:56Z</time>
      </trkpt>
      <trkpt lat="43.2287" lon="6.30953">
        <ele>256.2</ele>
        <time>2025-04-21T08:21:01.999Z</time>
      </trkpt>
      <trkpt lat="43.22864" lon="6.30957">
        <ele>256.2</ele>
        <time>2025-04-21T08:21:08Z</time>
      </trkpt>
      <trkpt lat="43.2286" lon="6.30962">
        <ele>257.1</ele>
        <time>2025-04-21T08:21:13.598Z</time>
      </trkpt>
      <trkpt lat="43.22855" lon="6.30967">
        <ele>258.3</ele>
        <time>2025-04-21T08:21:20Z</time>
      </trkpt>
      <trkpt lat="43.22849" lon="6.30973">
        <ele>259.2</ele>
        <time>2025-04-21T08:21:26.115Z</time>
      </trkpt>
      <trkpt lat="43.22844" lon="6.3098">
        <ele>259.8</ele>
        <time>2025-04-21T08:21:32Z</time>
      </trkpt>
      <trkpt lat="43.22841" lon="6.30986">
        <ele>260.3</ele>
        <time>2025-04-21T08:21:38.616Z</time>
      </trkpt>
      <trkpt lat="43.22838" lon="6.30993">
        <ele>260.8</ele>
        <time>2025-04-21T08:21:46Z</time>
      </trkpt>
      <trkpt lat="43.22835" lon="6.30998">
        <ele>261</ele>
        <time>2025-04-21T08:21:54.005Z</time>
      </trkpt>
      <trkpt lat="43.22832" lon="6.31004">
        <ele>261.8</ele>
        <time>2025-04-21T08:22:03Z</time>
      </trkpt>
      <trkpt lat="43.22825" lon="6.30999">
        <ele>262.1</ele>
        <time>2025-04-21T08:22:23Z</time>
      </trkpt>
      <trkpt lat="43.22823" lon="6.3101">
        <ele>263.9</ele>
        <time>2025-04-21T08:22:44Z</time>
      </trkpt>
      <trkpt lat="43.22817" lon="6.31012">
        <ele>265.1</ele>
        <time>2025-04-21T08:22:50.900Z</time>
      </trkpt>
      <trkpt lat="43.22812" lon="6.31015">
        <ele>266.2</ele>
        <time>2025-04-21T08:22:57Z</time>
      </trkpt>
      <trkpt lat="43.22806" lon="6.31018">
        <ele>267.5</ele>
        <time>2025-04-21T08:23:06.363Z</time>
      </trkpt>
      <trkpt lat="43.22801" lon="6.3102">
        <ele>268.5</ele>
        <time>2025-04-21T08:23:14Z</time>
      </trkpt>
      <trkpt lat="43.22797" lon="6.31025">
        <ele>269.6</ele>
        <time>2025-04-21T08:23:21.311Z</time>
      </trkpt>
      <trkpt lat="43.22793" lon="6.31029">
        <ele>270.6</ele>
        <time>2025-04-21T08:23:28Z</time>
      </trkpt>
      <trkpt lat="43.22788" lon="6.31038">
        <ele>273</ele>
        <time>2025-04-21T08:23:43Z</time>
      </trkpt>
      <trkpt lat="43.22784" lon="6.31043">
        <ele>274.5</ele>
        <time>2025-04-21T08:23:50.247Z</time>
      </trkpt>
      <trkpt lat="43.22779" lon="6.31047">
        <ele>276</ele>
        <time>2025-04-21T08:23:58Z</time>
      </trkpt>
      <trkpt lat="43.22774" lon="6.31052">
        <ele>276.9</ele>
        <time>2025-04-21T08:24:03.999Z</time>
      </trkpt>
      <trkpt lat="43.22769" lon="6.31057">
        <ele>277.3</ele>
        <time>2025-04-21T08:24:10Z</time>
      </trkpt>
      <trkpt lat="43.22766" lon="6.31063">
        <ele>278.3</ele>
        <time>2025-04-21T08:24:16.393Z</time>
      </trkpt>
      <trkpt lat="43.22764" lon="6.3107">
        <ele>279.6</ele>
        <time>2025-04-21T08:24:23Z</time>
      </trkpt>
      <trkpt lat="43.22757" lon="6.31074">
        <ele>280.1</ele>
        <time>2025-04-21T08:24:56Z</time>
      </trkpt>
      <trkpt lat="43.22751" lon="6.31078">
        <ele>280.7</ele>
        <time>2025-04-21T08:25:16Z</time>
      </trkpt>
      <trkpt lat="43.22744" lon="6.31077">
        <ele>279.4</ele>
        <time>2025-04-21T08:25:23.000Z</time>
      </trkpt>
      <trkpt lat="43.22737" lon="6.31076">
        <ele>277.9</ele>
        <time>2025-04-21T08:25:30Z</time>
      </trkpt>
      <trkpt lat="43.22732" lon="6.31083">
        <ele>278.7</ele>
        <time>2025-04-21T08:25:35.499Z</time>
      </trkpt>
      <trkpt lat="43.22727" lon="6.3109">
        <ele>278.9</ele>
        <time>2025-04-21T08:25:41Z</time>
      </trkpt>
      <trkpt lat="43.22722" lon="6.31098">
        <ele>279</ele>
        <time>2025-04-21T08:26:02Z</time>
      </trkpt>
      <trkpt lat="43.22721" lon="6.31106">
        <ele>279.8</ele>
        <time>2025-04-21T08:26:31Z</time>
      </trkpt>
      <trkpt lat="43.22719" lon="6.31112">
        <ele>279.8</ele>
        <time>2025-04-21T08:26:38.499Z</time>
      </trkpt>
      <trkpt lat="43.22717" lon="6.31118">
        <ele>279.8</ele>
        <time>2025-04-21T08:26:46Z</time>
      </trkpt>
      <trkpt lat="43.22715" lon="6.31126">
        <ele>280.2</ele>
        <time>2025-04-21T08:27:17Z</time>
      </trkpt>
      <trkpt lat="43.22713" lon="6.31133">
        <ele>280.5</ele>
        <time>2025-04-21T08:27:22.289Z</time>
      </trkpt>
      <trkpt lat="43.22712" lon="6.31141">
        <ele>280.9</ele>
        <time>2025-04-21T08:27:28Z</time>
      </trkpt>
      <trkpt lat="43.22713" lon="6.31148">
        <ele>280.6</ele>
        <time>2025-04-21T08:27:34.000Z</time>
      </trkpt>
      <trkpt lat="43.22714" lon="6.31155">
        <ele>280.3</ele>
        <time>2025-04-21T08:27:40Z</time>
      </trkpt>
      <trkpt lat="43.22707" lon="6.31159">
        <ele>277.8</ele>
        <time>2025-04-21T08:27:54Z</time>
      </trkpt>
      <trkpt lat="43.22704" lon="6.31165">
        <ele>276.3</ele>
        <time>2025-04-21T08:28:00.434Z</time>
      </trkpt>
      <trkpt lat="43.227" lon="6.3117">
        <ele>275.6</ele>
        <time>2025-04-21T08:28:07Z</time>
      </trkpt>
      <trkpt lat="43.22695" lon="6.31172">
        <ele>274.5</ele>
        <time>2025-04-21T08:28:12.371Z</time>
      </trkpt>
      <trkpt lat="43.2269" lon="6.31175">
        <ele>274.2</ele>
        <time>2025-04-21T08:28:18Z</time>
      </trkpt>
      <trkpt lat="43.22685" lon="6.31174">
        <ele>273</ele>
        <time>2025-04-21T08:28:22.523Z</time>
      </trkpt>
      <trkpt lat="43.2268" lon="6.31174">
        <ele>272</ele>
        <time>2025-04-21T08:28:27Z</time>
      </trkpt>
      <trkpt lat="43.22676" lon="6.31175">
        <ele>271.4</ele>
        <time>2025-04-21T08:28:31.384Z</time>
      </trkpt>
      <trkpt lat="43.22671" lon="6.31177">
        <ele>270.8</ele>
        <time>2025-04-21T08:28:37Z</time>
      </trkpt>
      <trkpt lat="43.22667" lon="6.31179">
        <ele>270.3</ele>
        <time>2025-04-21T08:28:42.847Z</time>
      </trkpt>
      <trkpt lat="43.22662" lon="6.31181">
        <ele>269.5</ele>
        <time>2025-04-21T08:28:50Z</time>
      </trkpt>
      <trkpt lat="43.22657" lon="6.31184">
        <ele>268.9</ele>
        <time>2025-04-21T08:28:54.367Z</time>
      </trkpt>
      <trkpt lat="43.22652" lon="6.31188">
        <ele>268.5</ele>
        <time>2025-04-21T08:28:59Z</time>
      </trkpt>
      <trkpt lat="43.22646" lon="6.31195">
        <ele>268.6</ele>
        <time>2025-04-21T08:29:43Z</time>
      </trkpt>
      <trkpt lat="43.22638" lon="6.31199">
        <ele>267.2</ele>
        <time>2025-04-21T08:29:58Z</time>
      </trkpt>
      <trkpt lat="43.22634" lon="6.31203">
        <ele>266.1</ele>
        <time>2025-04-21T08:30:03.961Z</time>
      </trkpt>
      <trkpt lat="43.22631" lon="6.31207">
        <ele>265.5</ele>
        <time>2025-04-21T08:30:09Z</time>
      </trkpt>
      <trkpt lat="43.22627" lon="6.31211">
        <ele>264.6</ele>
        <time>2025-04-21T08:30:14.732Z</time>
      </trkpt>
      <trkpt lat="43.22623" lon="6.31216">
        <ele>263.9</ele>
        <time>2025-04-21T08:30:21Z</time>
      </trkpt>
      <trkpt lat="43.22621" lon="6.31223">
        <ele>264.2</ele>
        <time>2025-04-21T08:30:28.499Z</time>
      </trkpt>
      <trkpt lat="43.22619" lon="6.3123">
        <ele>263.4</ele>
        <time>2025-04-21T08:30:36Z</time>
      </trkpt>
      <trkpt lat="43.22619" lon="6.31238">
        <ele>263.2</ele>
        <time>2025-04-21T08:30:41.956Z</time>
      </trkpt>
      <trkpt lat="43.22618" lon="6.31246">
        <ele>262.6</ele>
        <time>2025-04-21T08:30:48Z</time>
      </trkpt>
      <trkpt lat="43.22619" lon="6.31255">
        <ele>262.6</ele>
        <time>2025-04-21T08:30:54.537Z</time>
      </trkpt>
      <trkpt lat="43.22619" lon="6.31264">
        <ele>262</ele>
        <time>2025-04-21T08:31:01Z</time>
      </trkpt>
      <trkpt lat="43.22618" lon="6.31274">
        <ele>260.7</ele>
        <time>2025-04-21T08:31:15Z</time>
      </trkpt>
      <trkpt lat="43.22611" lon="6.3128">
        <ele>256.7</ele>
        <time>2025-04-21T08:31:37Z</time>
      </trkpt>
      <trkpt lat="43.22607" lon="6.3129">
        <ele>253.4</ele>
        <time>2025-04-21T08:31:56Z</time>
      </trkpt>
      <trkpt lat="43.22608" lon="6.31297">
        <ele>253.2</ele>
        <time>2025-04-21T08:32:02.441Z</time>
      </trkpt>
      <trkpt lat="43.22609" lon="6.31303">
        <ele>253.1</ele>
        <time>2025-04-21T08:32:08Z</time>
      </trkpt>
      <trkpt lat="43.22607" lon="6.31311">
        <ele>251.6</ele>
        <time>2025-04-21T08:32:14.499Z</time>
      </trkpt>
      <trkpt lat="43.22605" lon="6.31319">
        <ele>250.5</ele>
        <time>2025-04-21T08:32:21Z</time>
      </trkpt>
      <trkpt lat="43.22604" lon="6.31327">
        <ele>249.9</ele>
        <time>2025-04-21T08:32:28.517Z</time>
      </trkpt>
      <trkpt lat="43.22604" lon="6.31334">
        <ele>249.8</ele>
        <time>2025-04-21T08:32:35Z</time>
      </trkpt>
      <trkpt lat="43.22606" lon="6.31341">
        <ele>250.2</ele>
        <time>2025-04-21T08:32:42.989Z</time>
      </trkpt>
      <trkpt lat="43.22608" lon="6.31347">
        <ele>250.7</ele>
        <time>2025-04-21T08:32:50Z</time>
      </trkpt>
      <trkpt lat="43.22607" lon="6.31353">
        <ele>249.5</ele>
        <time>2025-04-21T08:32:56.550Z</time>
      </trkpt>
      <trkpt lat="43.22607" lon="6.3136">
        <ele>248.8</ele>
        <time>2025-04-21T08:33:04Z</time>
      </trkpt>
      <trkpt lat="43.22612" lon="6.31368">
        <ele>250.1</ele>
        <time>2025-04-21T08:33:10.750Z</time>
      </trkpt>
      <trkpt lat="43.22617" lon="6.31377">
        <ele>251.2</ele>
        <time>2025-04-21T08:33:18Z</time>
      </trkpt>
      <trkpt lat="43.2262" lon="6.31384">
        <ele>251.5</ele>
        <time>2025-04-21T08:33:25.116Z</time>
      </trkpt>
      <trkpt lat="43.22623" lon="6.31392">
        <ele>252.7</ele>
        <time>2025-04-21T08:33:33Z</time>
      </trkpt>
      <trkpt lat="43.22616" lon="6.31399">
        <ele>250.1</ele>
        <time>2025-04-21T08:33:48Z</time>
      </trkpt>
      <trkpt lat="43.22611" lon="6.31402">
        <ele>248.3</ele>
        <time>2025-04-21T08:33:55.163Z</time>
      </trkpt>
      <trkpt lat="43.22606" lon="6.31404">
        <ele>246.8</ele>
        <time>2025-04-21T08:34:02Z</time>
      </trkpt>
      <trkpt lat="43.226" lon="6.31405">
        <ele>244.7</ele>
        <time>2025-04-21T08:34:10.000Z</time>
      </trkpt>
      <trkpt lat="43.22594" lon="6.31406">
        <ele>242.5</ele>
        <time>2025-04-21T08:34:18Z</time>
      </trkpt>
      <trkpt lat="43.22588" lon="6.31409">
        <ele>240.9</ele>
        <time>2025-04-21T08:34:26.812Z</time>
      </trkpt>
      <trkpt lat="43.22583" lon="6.31411">
        <ele>239.5</ele>
        <time>2025-04-21T08:34:34Z</time>
      </trkpt>
      <trkpt lat="43.22577" lon="6.31414">
        <ele>238.2</ele>
        <time>2025-04-21T08:34:43.442Z</time>
      </trkpt>
      <trkpt lat="43.22572" lon="6.31418">
        <ele>237.8</ele>
        <time>2025-04-21T08:34:52Z</time>
      </trkpt>
      <trkpt lat="43.22567" lon="6.3142">
        <ele>236.7</ele>
        <time>2025-04-21T08:35:00.532Z</time>
      </trkpt>
      <trkpt lat="43.22563" lon="6.31423">
        <ele>236.1</ele>
        <time>2025-04-21T08:35:08Z</time>
      </trkpt>
      <trkpt lat="43.22558" lon="6.3143">
        <ele>235.9</ele>
        <time>2025-04-21T08:35:27Z</time>
      </trkpt>
      <trkpt lat="43.22553" lon="6.31433">
        <ele>234.2</ele>
        <time>2025-04-21T08:35:33.999Z</time>
      </trkpt>
      <trkpt lat="43.22548" lon="6.31436">
        <ele>232.3</ele>
        <time>2025-04-21T08:35:41Z</time>
      </trkpt>
      <trkpt lat="43.22546" lon="6.31442">
        <ele>232.4</ele>
        <time>2025-04-21T08:35:46.230Z</time>
      </trkpt>
      <trkpt lat="43.22543" lon="6.31448">
        <ele>231.5</ele>
        <time>2025-04-21T08:35:52Z</time>
      </trkpt>
      <trkpt lat="43.22544" lon="6.31455">
        <ele>232.5</ele>
        <time>2025-04-21T08:35:57.500Z</time>
      </trkpt>
      <trkpt lat="43.22545" lon="6.31462">
        <ele>233.6</ele>
        <time>2025-04-21T08:36:03Z</time>
      </trkpt>
      <trkpt lat="43.22542" lon="6.31468">
        <ele>232.4</ele>
        <time>2025-04-21T08:36:08.769Z</time>
      </trkpt>
      <trkpt lat="43.2254" lon="6.31474">
        <ele>231.8</ele>
        <time>2025-04-21T08:36:14Z</time>
      </trkpt>
      <trkpt lat="43.22536" lon="6.31479">
        <ele>230.2</ele>
        <time>2025-04-21T08:36:19.875Z</time>
      </trkpt>
      <trkpt lat="43.22533" lon="6.31484">
        <ele>229.2</ele>
        <time>2025-04-21T08:36:25Z</time>
      </trkpt>
      <trkpt lat="43.22531" lon="6.31495">
        <ele>229.3</ele>
        <time>2025-04-21T08:36:41Z</time>
      </trkpt>
      <trkpt lat="43.22527" lon="6.31505">
        <ele>228.4</ele>
        <time>2025-04-21T08:37:00Z</time>
      </trkpt>
      <trkpt lat="43.22522" lon="6.31514">
        <ele>227.7</ele>
        <time>2025-04-21T08:37:05.695Z</time>
      </trkpt>
      <trkpt lat="43.22517" lon="6.31522">
        <ele>227.4</ele>
        <time>2025-04-21T08:37:11Z</time>
      </trkpt>
      <trkpt lat="43.22513" lon="6.31526">
        <ele>226.8</ele>
        <time>2025-04-21T08:37:16.070Z</time>
      </trkpt>
      <trkpt lat="43.22508" lon="6.3153">
        <ele>226</ele>
        <time>2025-04-21T08:37:22Z</time>
      </trkpt>
      <trkpt lat="43.22506" lon="6.31537">
        <ele>226.7</ele>
        <time>2025-04-21T08:37:26.793Z</time>
      </trkpt>
      <trkpt lat="43.22504" lon="6.31543">
        <ele>227.2</ele>
        <time>2025-04-21T08:37:31Z</time>
      </trkpt>
      <trkpt lat="43.22502" lon="6.3155">
        <ele>227.8</ele>
        <time>2025-04-21T08:37:35.999Z</time>
      </trkpt>
      <trkpt lat="43.225" lon="6.31557">
        <ele>228.2</ele>
        <time>2025-04-21T08:37:41Z</time>
      </trkpt>
      <trkpt lat="43.22497" lon="6.31564">
        <ele>228.1</ele>
        <time>2025-04-21T08:37:46.499Z</time>
      </trkpt>
      <trkpt lat="43.22494" lon="6.31571">
        <ele>228</ele>
        <time>2025-04-21T08:37:52Z</time>
      </trkpt>
      <trkpt lat="43.22489" lon="6.31573">
        <ele>226.4</ele>
        <time>2025-04-21T08:38:01.546Z</time>
      </trkpt>
      <trkpt lat="43.22485" lon="6.31574">
        <ele>225.1</ele>
        <time>2025-04-21T08:38:09Z</time>
      </trkpt>
      <trkpt lat="43.2248" lon="6.31575">
        <ele>223.4</ele>
        <time>2025-04-21T08:38:17.000Z</time>
      </trkpt>
      <trkpt lat="43.22475" lon="6.31576">
        <ele>221.7</ele>
        <time>2025-04-21T08:38:25Z</time>
      </trkpt>
      <trkpt lat="43.22467" lon="6.31577">
        <ele>218.6</ele>
        <time>2025-04-21T08:38:42Z</time>
      </trkpt>
      <trkpt lat="43.22463" lon="6.3158">
        <ele>217.4</ele>
        <time>2025-04-21T08:38:52.999Z</time>
      </trkpt>
      <trkpt lat="43.22459" lon="6.31583">
        <ele>216.2</ele>
        <time>2025-04-21T08:39:04Z</time>
      </trkpt>
      <trkpt lat="43.22454" lon="6.31585">
        <ele>214.2</ele>
        <time>2025-04-21T08:39:10.999Z</time>
      </trkpt>
      <trkpt lat="43.22449" lon="6.31587">
        <ele>212.2</ele>
        <time>2025-04-21T08:39:18Z</time>
      </trkpt>
      <trkpt lat="43.22445" lon="6.31591">
        <ele>210.8</ele>
        <time>2025-04-21T08:39:24.688Z</time>
      </trkpt>
      <trkpt lat="43.22441" lon="6.31596">
        <ele>210</ele>
        <time>2025-04-21T08:39:32Z</time>
      </trkpt>
      <trkpt lat="43.22437" lon="6.31595">
        <ele>208.8</ele>
        <time>2025-04-21T08:39:40.521Z</time>
      </trkpt>
      <trkpt lat="43.22432" lon="6.31595">
        <ele>207.4</ele>
        <time>2025-04-21T08:39:51Z</time>
      </trkpt>
      <trkpt lat="43.22427" lon="6.31594">
        <ele>206</ele>
        <time>2025-04-21T08:39:59.000Z</time>
      </trkpt>
      <trkpt lat="43.22422" lon="6.31593">
        <ele>204.5</ele>
        <time>2025-04-21T08:40:07Z</time>
      </trkpt>
      <trkpt lat="43.22417" lon="6.31595">
        <ele>203.4</ele>
        <time>2025-04-21T08:40:15.253Z</time>
      </trkpt>
      <trkpt lat="43.22413" lon="6.31597">
        <ele>202.7</ele>
        <time>2025-04-21T08:40:22Z</time>
      </trkpt>
      <trkpt lat="43.22407" lon="6.31597">
        <ele>201.4</ele>
        <time>2025-04-21T08:40:30.500Z</time>
      </trkpt>
      <trkpt lat="43.22401" lon="6.31597">
        <ele>200.1</ele>
        <time>2025-04-21T08:40:39Z</time>
      </trkpt>
      <trkpt lat="43.22397" lon="6.316">
        <ele>199.4</ele>
        <time>2025-04-21T08:41:00Z</time>
      </trkpt>
      <trkpt lat="43.22396" lon="6.31607">
        <ele>199.6</ele>
        <time>2025-04-21T08:41:06.548Z</time>
      </trkpt>
      <trkpt lat="43.22395" lon="6.31615">
        <ele>200</ele>
        <time>2025-04-21T08:41:14Z</time>
      </trkpt>
      <trkpt lat="43.22388" lon="6.31618">
        <ele>199.2</ele>
        <time>2025-04-21T08:41:18.499Z</time>
      </trkpt>
      <trkpt lat="43.22381" lon="6.31621">
        <ele>199.4</ele>
        <time>2025-04-21T08:41:23Z</time>
      </trkpt>
      <trkpt lat="43.22375" lon="6.3162">
        <ele>198.9</ele>
        <time>2025-04-21T08:41:28.371Z</time>
      </trkpt>
      <trkpt lat="43.2237" lon="6.31618">
        <ele>198.2</ele>
        <time>2025-04-21T08:41:33Z</time>
      </trkpt>
      <trkpt lat="43.22365" lon="6.31617">
        <ele>197.7</ele>
        <time>2025-04-21T08:41:37.050Z</time>
      </trkpt>
      <trkpt lat="43.22359" lon="6.31615">
        <ele>196.8</ele>
        <time>2025-04-21T08:41:42Z</time>
      </trkpt>
      <trkpt lat="43.22355" lon="6.31617">
        <ele>196.9</ele>
        <time>2025-04-21T08:41:46.497Z</time>
      </trkpt>
      <trkpt lat="43.2235" lon="6.31619">
        <ele>196.7</ele>
        <time>2025-04-21T08:41:52Z</time>
      </trkpt>
      <trkpt lat="43.22345" lon="6.31622">
        <ele>196.7</ele>
        <time>2025-04-21T08:41:57.243Z</time>
      </trkpt>
      <trkpt lat="43.22341" lon="6.31626">
        <ele>196.8</ele>
        <time>2025-04-21T08:42:02Z</time>
      </trkpt>
      <trkpt lat="43.22336" lon="6.31629">
        <ele>196.4</ele>
        <time>2025-04-21T08:42:07.243Z</time>
      </trkpt>
      <trkpt lat="43.22332" lon="6.31633">
        <ele>196.3</ele>
        <time>2025-04-21T08:42:12Z</time>
      </trkpt>
      <trkpt lat="43.22327" lon="6.31638">
        <ele>196.5</ele>
        <time>2025-04-21T08:42:16.499Z</time>
      </trkpt>
      <trkpt lat="43.22322" lon="6.31643">
        <ele>197</ele>
        <time>2025-04-21T08:42:21Z</time>
      </trkpt>
      <trkpt lat="43.22318" lon="6.31647">
        <ele>197.3</ele>
        <time>2025-04-21T08:42:25.999Z</time>
      </trkpt>
      <trkpt lat="43.22314" lon="6.31651">
        <ele>197.3</ele>
        <time>2025-04-21T08:42:31Z</time>
      </trkpt>
      <trkpt lat="43.22317" lon="6.31652">
        <ele>197.9</ele>
        <time>2025-04-21T08:43:00Z</time>
      </trkpt>
      <trkpt lat="43.22311" lon="6.31654">
        <ele>197.1</ele>
        <time>2025-04-21T08:43:09.599Z</time>
      </trkpt>
      <trkpt lat="43.22304" lon="6.31657">
        <ele>196.5</ele>
        <time>2025-04-21T08:43:21Z</time>
      </trkpt>
      <trkpt lat="43.22301" lon="6.31657">
        <ele>196.9</ele>
        <time>2025-04-21T08:43:41Z</time>
      </trkpt>
      <trkpt lat="43.22306" lon="6.31667">
        <ele>197.2</ele>
        <time>2025-04-21T08:43:55Z</time>
      </trkpt>
      <trkpt lat="43.223" lon="6.31669">
        <ele>197.7</ele>
        <time>2025-04-21T08:44:15Z</time>
      </trkpt>
      <trkpt lat="43.22302" lon="6.31675">
        <ele>197.8</ele>
        <time>2025-04-21T08:44:25.500Z</time>
      </trkpt>
      <trkpt lat="43.22304" lon="6.31681">
        <ele>198.1</ele>
        <time>2025-04-21T08:44:36Z</time>
      </trkpt>
      <trkpt lat="43.22303" lon="6.31677">
        <ele>197.9</ele>
        <time>2025-04-21T08:45:04Z</time>
      </trkpt>
      <trkpt lat="43.22299" lon="6.31675">
        <ele>198</ele>
        <time>2025-04-21T08:45:31Z</time>
      </trkpt>
      <trkpt lat="43.223" lon="6.31679">
        <ele>198.1</ele>
        <time>2025-04-21T08:45:57Z</time>
      </trkpt>
      <trkpt lat="43.22298" lon="6.31685">
        <ele>198.4</ele>
        <time>2025-04-21T08:46:03.727Z</time>
      </trkpt>
      <trkpt lat="43.22297" lon="6.31692">
        <ele>198.6</ele>
        <time>2025-04-21T08:46:11Z</time>
      </trkpt>
      <trkpt lat="43.22292" lon="6.31699">
        <ele>198.7</ele>
        <time>2025-04-21T08:46:17.999Z</time>
      </trkpt>
      <trkpt lat="43.22287" lon="6.31706">
        <ele>198.7</ele>
        <time>2025-04-21T08:46:25Z</time>
      </trkpt>
      <trkpt lat="43.22282" lon="6.31715">
        <ele>198.9</ele>
        <time>2025-04-21T08:46:35Z</time>
      </trkpt>
      <trkpt lat="43.22276" lon="6.31721">
        <ele>199.1</ele>
        <time>2025-04-21T08:46:39.999Z</time>
      </trkpt>
      <trkpt lat="43.2227" lon="6.31727">
        <ele>199.5</ele>
        <time>2025-04-21T08:46:45Z</time>
      </trkpt>
      <trkpt lat="43.22265" lon="6.31736">
        <ele>199.5</ele>
        <time>2025-04-21T08:46:54Z</time>
      </trkpt>
      <trkpt lat="43.22259" lon="6.31742">
        <ele>199.1</ele>
        <time>2025-04-21T08:46:58.999Z</time>
      </trkpt>
      <trkpt lat="43.22253" lon="6.31748">
        <ele>198.4</ele>
        <time>2025-04-21T08:47:04Z</time>
      </trkpt>
      <trkpt lat="43.22248" lon="6.31753">
        <ele>198.6</ele>
        <time>2025-04-21T08:47:18Z</time>
      </trkpt>
      <trkpt lat="43.22248" lon="6.31756">
        <ele>198.9</ele>
        <time>2025-04-21T08:47:44Z</time>
      </trkpt>
      <trkpt lat="43.22245" lon="6.31763">
        <ele>199.8</ele>
        <time>2025-04-21T08:47:49.801Z</time>
      </trkpt>
      <trkpt lat="43.22242" lon="6.31769">
        <ele>200.3</ele>
        <time>2025-04-21T08:47:55Z</time>
      </trkpt>
      <trkpt lat="43.22238" lon="6.31775">
        <ele>200.5</ele>
        <time>2025-04-21T08:48:00.566Z</time>
      </trkpt>
      <trkpt lat="43.22235" lon="6.3178">
        <ele>200.5</ele>
        <time>2025-04-21T08:48:05Z</time>
      </trkpt>
      <trkpt lat="43.22231" lon="6.31785">
        <ele>200.4</ele>
        <time>2025-04-21T08:48:09.806Z</time>
      </trkpt>
      <trkpt lat="43.22228" lon="6.3179">
        <ele>200.3</ele>
        <time>2025-04-21T08:48:14Z</time>
      </trkpt>
      <trkpt lat="43.22225" lon="6.31799">
        <ele>200.2</ele>
        <time>2025-04-21T08:48:18.357Z</time>
      </trkpt>
      <trkpt lat="43.22221" lon="6.31808">
        <ele>200.2</ele>
        <time>2025-04-21T08:48:23Z</time>
      </trkpt>
      <trkpt lat="43.2222" lon="6.31814">
        <ele>200.5</ele>
        <time>2025-04-21T08:48:27.671Z</time>
      </trkpt>
      <trkpt lat="43.22218" lon="6.31819">
        <ele>200.9</ele>
        <time>2025-04-21T08:48:32Z</time>
      </trkpt>
      <trkpt lat="43.22216" lon="6.31826">
        <ele>201.2</ele>
        <time>2025-04-21T08:48:36.793Z</time>
      </trkpt>
      <trkpt lat="43.22214" lon="6.31832">
        <ele>201.6</ele>
        <time>2025-04-21T08:48:41Z</time>
      </trkpt>
      <trkpt lat="43.22212" lon="6.31839">
        <ele>201.6</ele>
        <time>2025-04-21T08:48:45.618Z</time>
      </trkpt>
      <trkpt lat="43.22211" lon="6.31846">
        <ele>201.5</ele>
        <time>2025-04-21T08:48:50Z</time>
      </trkpt>
      <trkpt lat="43.2221" lon="6.31852">
        <ele>201.4</ele>
        <time>2025-04-21T08:48:54.210Z</time>
      </trkpt>
      <trkpt lat="43.2221" lon="6.31859">
        <ele>201.2</ele>
        <time>2025-04-21T08:48:59Z</time>
      </trkpt>
      <trkpt lat="43.22209" lon="6.31867">
        <ele>201.2</ele>
        <time>2025-04-21T08:49:03.790Z</time>
      </trkpt>
      <trkpt lat="43.22208" lon="6.31874">
        <ele>201.2</ele>
        <time>2025-04-21T08:49:08Z</time>
      </trkpt>
      <trkpt lat="43.22205" lon="6.31881">
        <ele>201</ele>
        <time>2025-04-21T08:49:12.673Z</time>
      </trkpt>
      <trkpt lat="43.22203" lon="6.31888">
        <ele>200.9</ele>
        <time>2025-04-21T08:49:17Z</time>
      </trkpt>
      <trkpt lat="43.222" lon="6.31896">
        <ele>201.3</ele>
        <time>2025-04-21T08:49:21.499Z</time>
      </trkpt>
      <trkpt lat="43.22197" lon="6.31904">
        <ele>201.8</ele>
        <time>2025-04-21T08:49:26Z</time>
      </trkpt>
      <trkpt lat="43.22194" lon="6.31911">
        <ele>202.4</ele>
        <time>2025-04-21T08:49:30.673Z</time>
      </trkpt>
      <trkpt lat="43.22192" lon="6.31918">
        <ele>203.3</ele>
        <time>2025-04-21T08:49:35Z</time>
      </trkpt>
      <trkpt lat="43.22189" lon="6.31923">
        <ele>203.6</ele>
        <time>2025-04-21T08:49:39.458Z</time>
      </trkpt>
      <trkpt lat="43.22187" lon="6.31929">
        <ele>203.8</ele>
        <time>2025-04-21T08:49:44Z</time>
      </trkpt>
      <trkpt lat="43.22184" lon="6.31937">
        <ele>203.8</ele>
        <time>2025-04-21T08:49:48.999Z</time>
      </trkpt>
      <trkpt lat="43.22181" lon="6.31945">
        <ele>203.6</ele>
        <time>2025-04-21T08:49:54Z</time>
      </trkpt>
      <trkpt lat="43.22179" lon="6.31951">
        <ele>203.9</ele>
        <time>2025-04-21T08:49:58.930Z</time>
      </trkpt>
      <trkpt lat="43.22176" lon="6.31958">
        <ele>204</ele>
        <time>2025-04-21T08:50:05Z</time>
      </trkpt>
      <trkpt lat="43.22173" lon="6.31964">
        <ele>203.9</ele>
        <time>2025-04-21T08:50:09.725Z</time>
      </trkpt>
      <trkpt lat="43.2217" lon="6.31971">
        <ele>203.6</ele>
        <time>2025-04-21T08:50:15Z</time>
      </trkpt>
      <trkpt lat="43.22166" lon="6.31978">
        <ele>203.9</ele>
        <time>2025-04-21T08:50:19.499Z</time>
      </trkpt>
      <trkpt lat="43.22162" lon="6.31985">
        <ele>205</ele>
        <time>2025-04-21T08:50:24Z</time>
      </trkpt>
      <trkpt lat="43.22158" lon="6.31991">
        <ele>205.7</ele>
        <time>2025-04-21T08:50:28.715Z</time>
      </trkpt>
      <trkpt lat="43.22153" lon="6.31997">
        <ele>205.9</ele>
        <time>2025-04-21T08:50:34Z</time>
      </trkpt>
      <trkpt lat="43.22149" lon="6.32003">
        <ele>206.1</ele>
        <time>2025-04-21T08:50:39.253Z</time>
      </trkpt>
      <trkpt lat="43.22145" lon="6.3201">
        <ele>206.4</ele>
        <time>2025-04-21T08:50:45Z</time>
      </trkpt>
      <trkpt lat="43.22142" lon="6.32016">
        <ele>206.6</ele>
        <time>2025-04-21T08:50:49.720Z</time>
      </trkpt>
      <trkpt lat="43.2214" lon="6.32022">
        <ele>206.8</ele>
        <time>2025-04-21T08:50:54Z</time>
      </trkpt>
      <trkpt lat="43.22137" lon="6.32026">
        <ele>206.9</ele>
        <time>2025-04-21T08:51:00.499Z</time>
      </trkpt>
      <trkpt lat="43.22133" lon="6.3203">
        <ele>207.2</ele>
        <time>2025-04-21T08:51:07Z</time>
      </trkpt>
      <trkpt lat="43.22126" lon="6.32029">
        <ele>207.1</ele>
        <time>2025-04-21T08:51:37Z</time>
      </trkpt>
      <trkpt lat="43.22121" lon="6.32028">
        <ele>207</ele>
        <time>2025-04-21T08:52:13Z</time>
      </trkpt>
      <trkpt lat="43.22125" lon="6.32032">
        <ele>207.2</ele>
        <time>2025-04-21T08:52:23.411Z</time>
      </trkpt>
      <trkpt lat="43.22129" lon="6.32035">
        <ele>207.5</ele>
        <time>2025-04-21T08:52:33Z</time>
      </trkpt>
      <trkpt lat="43.22133" lon="6.32034">
        <ele>207.5</ele>
        <time>2025-04-21T08:52:40.014Z</time>
      </trkpt>
      <trkpt lat="43.22138" lon="6.32032">
        <ele>207.4</ele>
        <time>2025-04-21T08:52:49Z</time>
      </trkpt>
      <trkpt lat="43.22134" lon="6.32026">
        <ele>206.9</ele>
        <time>2025-04-21T08:53:15Z</time>
      </trkpt>
      <trkpt lat="43.22128" lon="6.32034">
        <ele>207.4</ele>
        <time>2025-04-21T08:53:21.546Z</time>
      </trkpt>
      <trkpt lat="43.22123" lon="6.32043">
        <ele>207.7</ele>
        <time>2025-04-21T08:53:28Z</time>
      </trkpt>
      <trkpt lat="43.22118" lon="6.32049">
        <ele>207.6</ele>
        <time>2025-04-21T08:53:32.959Z</time>
      </trkpt>
      <trkpt lat="43.22114" lon="6.32054">
        <ele>207.3</ele>
        <time>2025-04-21T08:53:37Z</time>
      </trkpt>
      <trkpt lat="43.2211" lon="6.32059">
        <ele>207.5</ele>
        <time>2025-04-21T08:53:41.999Z</time>
      </trkpt>
      <trkpt lat="43.22106" lon="6.32064">
        <ele>208.2</ele>
        <time>2025-04-21T08:53:47Z</time>
      </trkpt>
      <trkpt lat="43.22101" lon="6.3207">
        <ele>208.7</ele>
        <time>2025-04-21T08:53:52.177Z</time>
      </trkpt>
      <trkpt lat="43.22096" lon="6.32075">
        <ele>208.8</ele>
        <time>2025-04-21T08:53:57Z</time>
      </trkpt>
      <trkpt lat="43.22092" lon="6.32081">
        <ele>208.7</ele>
        <time>2025-04-21T08:54:01.704Z</time>
      </trkpt>
      <trkpt lat="43.22088" lon="6.32086">
        <ele>208.6</ele>
        <time>2025-04-21T08:54:06Z</time>
      </trkpt>
      <trkpt lat="43.22084" lon="6.32091">
        <ele>208.9</ele>
        <time>2025-04-21T08:54:10.348Z</time>
      </trkpt>
      <trkpt lat="43.22079" lon="6.32095">
        <ele>209.2</ele>
        <time>2025-04-21T08:54:15Z</time>
      </trkpt>
      <trkpt lat="43.22076" lon="6.32101">
        <ele>209.6</ele>
        <time>2025-04-21T08:54:19.722Z</time>
      </trkpt>
      <trkpt lat="43.22072" lon="6.32107">
        <ele>209.6</ele>
        <time>2025-04-21T08:54:25Z</time>
      </trkpt>
      <trkpt lat="43.22066" lon="6.32114">
        <ele>209.5</ele>
        <time>2025-04-21T08:54:30.333Z</time>
      </trkpt>
      <trkpt lat="43.2206" lon="6.32122">
        <ele>210</ele>
        <time>2025-04-21T08:54:36Z</time>
      </trkpt>
      <trkpt lat="43.22055" lon="6.32126">
        <ele>210.1</ele>
        <time>2025-04-21T08:54:40.350Z</time>
      </trkpt>
      <trkpt lat="43.2205" lon="6.32131">
        <ele>210.6</ele>
        <time>2025-04-21T08:54:45Z</time>
      </trkpt>
      <trkpt lat="43.22046" lon="6.32135">
        <ele>210.7</ele>
        <time>2025-04-21T08:54:49.499Z</time>
      </trkpt>
      <trkpt lat="43.22042" lon="6.32139">
        <ele>210.5</ele>
        <time>2025-04-21T08:54:54Z</time>
      </trkpt>
      <trkpt lat="43.22038" lon="6.32147">
        <ele>211.2</ele>
        <time>2025-04-21T08:54:58.899Z</time>
      </trkpt>
      <trkpt lat="43.22035" lon="6.32154">
        <ele>211.8</ele>
        <time>2025-04-21T08:55:03Z</time>
      </trkpt>
      <trkpt lat="43.22031" lon="6.32161">
        <ele>212.4</ele>
        <time>2025-04-21T08:55:07.704Z</time>
      </trkpt>
      <trkpt lat="43.22028" lon="6.32168">
        <ele>213.3</ele>
        <time>2025-04-21T08:55:12Z</time>
      </trkpt>
      <trkpt lat="43.22023" lon="6.32173">
        <ele>213.8</ele>
        <time>2025-04-21T08:55:17.868Z</time>
      </trkpt>
      <trkpt lat="43.22019" lon="6.32178">
        <ele>214.3</ele>
        <time>2025-04-21T08:55:23Z</time>
      </trkpt>
      <trkpt lat="43.22014" lon="6.32184">
        <ele>214.8</ele>
        <time>2025-04-21T08:55:28.566Z</time>
      </trkpt>
      <trkpt lat="43.2201" lon="6.32191">
        <ele>215.5</ele>
        <time>2025-04-21T08:55:34Z</time>
      </trkpt>
      <trkpt lat="43.22005" lon="6.32197">
        <ele>216.6</ele>
        <time>2025-04-21T08:55:40.073Z</time>
      </trkpt>
      <trkpt lat="43.22001" lon="6.32204">
        <ele>218.9</ele>
        <time>2025-04-21T08:55:46Z</time>
      </trkpt>
      <trkpt lat="43.21996" lon="6.32209">
        <ele>219.8</ele>
        <time>2025-04-21T08:55:52.499Z</time>
      </trkpt>
      <trkpt lat="43.21991" lon="6.32214">
        <ele>220.3</ele>
        <time>2025-04-21T08:55:59Z</time>
      </trkpt>
      <trkpt lat="43.21988" lon="6.32219">
        <ele>221.1</ele>
        <time>2025-04-21T08:56:03.876Z</time>
      </trkpt>
      <trkpt lat="43.21984" lon="6.32225">
        <ele>221.8</ele>
        <time>2025-04-21T08:56:10Z</time>
      </trkpt>
      <trkpt lat="43.21978" lon="6.32229">
        <ele>221.5</ele>
        <time>2025-04-21T08:56:16.821Z</time>
      </trkpt>
      <trkpt lat="43.21972" lon="6.32234">
        <ele>221.6</ele>
        <time>2025-04-21T08:56:24Z</time>
      </trkpt>
      <trkpt lat="43.21966" lon="6.32237">
        <ele>222.4</ele>
        <time>2025-04-21T08:56:30.819Z</time>
      </trkpt>
      <trkpt lat="43.21961" lon="6.32241">
        <ele>223.8</ele>
        <time>2025-04-21T08:56:37Z</time>
      </trkpt>
      <trkpt lat="43.21955" lon="6.32244">
        <ele>224.7</ele>
        <time>2025-04-21T08:56:43.499Z</time>
      </trkpt>
      <trkpt lat="43.21949" lon="6.32247">
        <ele>225.8</ele>
        <time>2025-04-21T08:56:50Z</time>
      </trkpt>
      <trkpt lat="43.21945" lon="6.32249">
        <ele>226.3</ele>
        <time>2025-04-21T08:57:00.999Z</time>
      </trkpt>
      <trkpt lat="43.2194" lon="6.3225">
        <ele>225.9</ele>
        <time>2025-04-21T08:57:12Z</time>
      </trkpt>
      <trkpt lat="43.21939" lon="6.32253">
        <ele>226.4</ele>
        <time>2025-04-21T08:57:44Z</time>
      </trkpt>
      <trkpt lat="43.21934" lon="6.32255">
        <ele>225.5</ele>
        <time>2025-04-21T08:58:19Z</time>
      </trkpt>
      <trkpt lat="43.21936" lon="6.32255">
        <ele>226.1</ele>
        <time>2025-04-21T08:58:49Z</time>
      </trkpt>
      <trkpt lat="43.21934" lon="6.32262">
        <ele>227.2</ele>
        <time>2025-04-21T08:58:58.054Z</time>
      </trkpt>
      <trkpt lat="43.21932" lon="6.32268">
        <ele>227.9</ele>
        <time>2025-04-21T08:59:06Z</time>
      </trkpt>
      <trkpt lat="43.21932" lon="6.32276">
        <ele>229.7</ele>
        <time>2025-04-21T08:59:10.467Z</time>
      </trkpt>
      <trkpt lat="43.21933" lon="6.32284">
        <ele>231.3</ele>
        <time>2025-04-21T08:59:15Z</time>
      </trkpt>
      <trkpt lat="43.21931" lon="6.32291">
        <ele>231.3</ele>
        <time>2025-04-21T08:59:20.644Z</time>
      </trkpt>
      <trkpt lat="43.2193" lon="6.32298">
        <ele>231.8</ele>
        <time>2025-04-21T08:59:26Z</time>
      </trkpt>
      <trkpt lat="43.21925" lon="6.32303">
        <ele>230.3</ele>
        <time>2025-04-21T08:59:31.304Z</time>
      </trkpt>
      <trkpt lat="43.2192" lon="6.32309">
        <ele>228.7</ele>
        <time>2025-04-21T08:59:37Z</time>
      </trkpt>
      <trkpt lat="43.21914" lon="6.32305">
        <ele>227.6</ele>
        <time>2025-04-21T08:59:45.250Z</time>
      </trkpt>
      <trkpt lat="43.21909" lon="6.32302">
        <ele>228.4</ele>
        <time>2025-04-21T08:59:52Z</time>
      </trkpt>
      <trkpt lat="43.21908" lon="6.32293">
        <ele>227.4</ele>
        <time>2025-04-21T08:59:57.409Z</time>
      </trkpt>
      <trkpt lat="43.21906" lon="6.32284">
        <ele>226.5</ele>
        <time>2025-04-21T09:00:03Z</time>
      </trkpt>
      <trkpt lat="43.21905" lon="6.32277">
        <ele>225.6</ele>
        <time>2025-04-21T09:00:07.999Z</time>
      </trkpt>
      <trkpt lat="43.21904" lon="6.3227">
        <ele>224.7</ele>
        <time>2025-04-21T09:00:13Z</time>
      </trkpt>
      <trkpt lat="43.21901" lon="6.32264">
        <ele>224.3</ele>
        <time>2025-04-21T09:00:17.720Z</time>
      </trkpt>
      <trkpt lat="43.21899" lon="6.32258">
        <ele>223.7</ele>
        <time>2025-04-21T09:00:22Z</time>
      </trkpt>
      <trkpt lat="43.21896" lon="6.32251">
        <ele>223.1</ele>
        <time>2025-04-21T09:00:29.269Z</time>
      </trkpt>
      <trkpt lat="43.21894" lon="6.32244">
        <ele>222</ele>
        <time>2025-04-21T09:00:36Z</time>
      </trkpt>
      <trkpt lat="43.21889" lon="6.32239">
        <ele>221.6</ele>
        <time>2025-04-21T09:00:42.934Z</time>
      </trkpt>
      <trkpt lat="43.21885" lon="6.32234">
        <ele>220.9</ele>
        <time>2025-04-21T09:00:49Z</time>
      </trkpt>
      <trkpt lat="43.21879" lon="6.32228">
        <ele>219.9</ele>
        <time>2025-04-21T09:00:56.636Z</time>
      </trkpt>
      <trkpt lat="43.21874" lon="6.32223">
        <ele>218.8</ele>
        <time>2025-04-21T09:01:03Z</time>
      </trkpt>
      <trkpt lat="43.21869" lon="6.32215">
        <ele>217.7</ele>
        <time>2025-04-21T09:01:08.727Z</time>
      </trkpt>
      <trkpt lat="43.21865" lon="6.32207">
        <ele>216.7</ele>
        <time>2025-04-21T09:01:14Z</time>
      </trkpt>
      <trkpt lat="43.2186" lon="6.32201">
        <ele>216.1</ele>
        <time>2025-04-21T09:01:19.510Z</time>
      </trkpt>
      <trkpt lat="43.21856" lon="6.32196">
        <ele>216</ele>
        <time>2025-04-21T09:01:24Z</time>
      </trkpt>
      <trkpt lat="43.21851" lon="6.32192">
        <ele>216.4</ele>
        <time>2025-04-21T09:01:28.499Z</time>
      </trkpt>
      <trkpt lat="43.21846" lon="6.32188">
        <ele>216.9</ele>
        <time>2025-04-21T09:01:33Z</time>
      </trkpt>
      <trkpt lat="43.21842" lon="6.32184">
        <ele>217.1</ele>
        <time>2025-04-21T09:01:37.499Z</time>
      </trkpt>
      <trkpt lat="43.21838" lon="6.3218">
        <ele>217.1</ele>
        <time>2025-04-21T09:01:42Z</time>
      </trkpt>
      <trkpt lat="43.21835" lon="6.32174">
        <ele>216.7</ele>
        <time>2025-04-21T09:01:46.499Z</time>
      </trkpt>
      <trkpt lat="43.21832" lon="6.32168">
        <ele>216.3</ele>
        <time>2025-04-21T09:01:51Z</time>
      </trkpt>
      <trkpt lat="43.21828" lon="6.32163">
        <ele>216.9</ele>
        <time>2025-04-21T09:01:55.499Z</time>
      </trkpt>
      <trkpt lat="43.21824" lon="6.32158">
        <ele>217.4</ele>
        <time>2025-04-21T09:02:00Z</time>
      </trkpt>
      <trkpt lat="43.21819" lon="6.32157">
        <ele>217.9</ele>
        <time>2025-04-21T09:02:04.987Z</time>
      </trkpt>
      <trkpt lat="43.21815" lon="6.32156">
        <ele>218.1</ele>
        <time>2025-04-21T09:02:09Z</time>
      </trkpt>
      <trkpt lat="43.21807" lon="6.32159">
        <ele>219</ele>
        <time>2025-04-21T09:02:19Z</time>
      </trkpt>
      <trkpt lat="43.218" lon="6.32159">
        <ele>219.3</ele>
        <time>2025-04-21T09:02:24.366Z</time>
      </trkpt>
      <trkpt lat="43.21794" lon="6.3216">
        <ele>219.6</ele>
        <time>2025-04-21T09:02:29Z</time>
      </trkpt>
      <trkpt lat="43.21788" lon="6.32161">
        <ele>219.9</ele>
        <time>2025-04-21T09:02:56Z</time>
      </trkpt>
      <trkpt lat="43.21783" lon="6.32162">
        <ele>220.2</ele>
        <time>2025-04-21T09:03:02.000Z</time>
      </trkpt>
      <trkpt lat="43.21778" lon="6.32163">
        <ele>220.5</ele>
        <time>2025-04-21T09:03:08Z</time>
      </trkpt>
      <trkpt lat="43.21773" lon="6.32163">
        <ele>220.8</ele>
        <time>2025-04-21T09:03:12.476Z</time>
      </trkpt>
      <trkpt lat="43.21768" lon="6.32162">
        <ele>221.1</ele>
        <time>2025-04-21T09:03:17Z</time>
      </trkpt>
      <trkpt lat="43.21763" lon="6.32159">
        <ele>221.1</ele>
        <time>2025-04-21T09:03:22.055Z</time>
      </trkpt>
      <trkpt lat="43.21759" lon="6.32157">
        <ele>221.2</ele>
        <time>2025-04-21T09:03:26Z</time>
      </trkpt>
      <trkpt lat="43.21755" lon="6.32152">
        <ele>221</ele>
        <time>2025-04-21T09:03:31.222Z</time>
      </trkpt>
      <trkpt lat="43.21751" lon="6.32148">
        <ele>220.9</ele>
        <time>2025-04-21T09:03:36Z</time>
      </trkpt>
      <trkpt lat="43.21746" lon="6.32146">
        <ele>221</ele>
        <time>2025-04-21T09:03:45.278Z</time>
      </trkpt>
      <trkpt lat="43.21741" lon="6.32143">
        <ele>221</ele>
        <time>2025-04-21T09:03:55Z</time>
      </trkpt>
      <trkpt lat="43.21735" lon="6.32139">
        <ele>221.1</ele>
        <time>2025-04-21T09:04:01.050Z</time>
      </trkpt>
      <trkpt lat="43.2173" lon="6.32136">
        <ele>221.3</ele>
        <time>2025-04-21T09:04:06Z</time>
      </trkpt>
      <trkpt lat="43.21725" lon="6.32134">
        <ele>221.5</ele>
        <time>2025-04-21T09:04:11.490Z</time>
      </trkpt>
      <trkpt lat="43.21719" lon="6.32132">
        <ele>221.5</ele>
        <time>2025-04-21T09:04:18Z</time>
      </trkpt>
      <trkpt lat="43.21714" lon="6.32132">
        <ele>221.5</ele>
        <time>2025-04-21T09:04:23.000Z</time>
      </trkpt>
      <trkpt lat="43.21708" lon="6.32132">
        <ele>221.5</ele>
        <time>2025-04-21T09:04:29Z</time>
      </trkpt>
      <trkpt lat="43.21703" lon="6.32133">
        <ele>221.5</ele>
        <time>2025-04-21T09:04:35.000Z</time>
      </trkpt>
      <trkpt lat="43.21698" lon="6.32134">
        <ele>221.4</ele>
        <time>2025-04-21T09:04:41Z</time>
      </trkpt>
      <trkpt lat="43.21691" lon="6.32137">
        <ele>221.4</ele>
        <time>2025-04-21T09:04:57Z</time>
      </trkpt>
      <trkpt lat="43.21685" lon="6.32137">
        <ele>221.8</ele>
        <time>2025-04-21T09:05:16Z</time>
      </trkpt>
      <trkpt lat="43.21683" lon="6.3213">
        <ele>222.3</ele>
        <time>2025-04-21T09:05:39Z</time>
      </trkpt>
      <trkpt lat="43.21678" lon="6.32135">
        <ele>222.4</ele>
        <time>2025-04-21T09:06:06Z</time>
      </trkpt>
      <trkpt lat="43.21672" lon="6.32137">
        <ele>222.7</ele>
        <time>2025-04-21T09:06:13.414Z</time>
      </trkpt>
      <trkpt lat="43.21665" lon="6.32139">
        <ele>223</ele>
        <time>2025-04-21T09:06:22Z</time>
      </trkpt>
      <trkpt lat="43.2166" lon="6.3214">
        <ele>223.1</ele>
        <time>2025-04-21T09:06:28.401Z</time>
      </trkpt>
      <trkpt lat="43.21655" lon="6.32142">
        <ele>223.5</ele>
        <time>2025-04-21T09:06:35Z</time>
      </trkpt>
      <trkpt lat="43.2165" lon="6.32144">
        <ele>223.9</ele>
        <time>2025-04-21T09:06:41.090Z</time>
      </trkpt>
      <trkpt lat="43.21645" lon="6.32145">
        <ele>224.2</ele>
        <time>2025-04-21T09:06:47Z</time>
      </trkpt>
      <trkpt lat="43.21639" lon="6.32148">
        <ele>225</ele>
        <time>2025-04-21T09:06:52.120Z</time>
      </trkpt>
      <trkpt lat="43.21632" lon="6.32151">
        <ele>225.5</ele>
        <time>2025-04-21T09:06:58Z</time>
      </trkpt>
      <trkpt lat="43.21626" lon="6.32151">
        <ele>225.4</ele>
        <time>2025-04-21T09:07:04.000Z</time>
      </trkpt>
      <trkpt lat="43.21621" lon="6.32151">
        <ele>225.3</ele>
        <time>2025-04-21T09:07:09Z</time>
      </trkpt>
      <trkpt lat="43.21615" lon="6.32151">
        <ele>225.1</ele>
        <time>2025-04-21T09:07:13.909Z</time>
      </trkpt>
      <trkpt lat="43.2161" lon="6.32151">
        <ele>225.1</ele>
        <time>2025-04-21T09:07:18Z</time>
      </trkpt>
      <trkpt lat="43.21605" lon="6.32152">
        <ele>225.7</ele>
        <time>2025-04-21T09:07:23.000Z</time>
      </trkpt>
      <trkpt lat="43.216" lon="6.32153">
        <ele>226.4</ele>
        <time>2025-04-21T09:07:28Z</time>
      </trkpt>
      <trkpt lat="43.21596" lon="6.32158">
        <ele>228.1</ele>
        <time>2025-04-21T09:07:54Z</time>
      </trkpt>
      <trkpt lat="43.21602" lon="6.32158">
        <ele>227.6</ele>
        <time>2025-04-21T09:08:13Z</time>
      </trkpt>
      <trkpt lat="43.21608" lon="6.32159">
        <ele>227.3</ele>
        <time>2025-04-21T09:08:21.714Z</time>
      </trkpt>
      <trkpt lat="43.21613" lon="6.3216">
        <ele>227.3</ele>
        <time>2025-04-21T09:08:29Z</time>
      </trkpt>
      <trkpt lat="43.21619" lon="6.32165">
        <ele>228.6</ele>
        <time>2025-04-21T09:08:35.500Z</time>
      </trkpt>
      <trkpt lat="43.21625" lon="6.3217">
        <ele>229.6</ele>
        <time>2025-04-21T09:08:42Z</time>
      </trkpt>
      <trkpt lat="43.2163" lon="6.32173">
        <ele>230</ele>
        <time>2025-04-21T09:08:48.000Z</time>
      </trkpt>
      <trkpt lat="43.21635" lon="6.32176">
        <ele>230.2</ele>
        <time>2025-04-21T09:08:54Z</time>
      </trkpt>
      <trkpt lat="43.21641" lon="6.32182">
        <ele>230.4</ele>
        <time>2025-04-21T09:09:00.500Z</time>
      </trkpt>
      <trkpt lat="43.21647" lon="6.32188">
        <ele>230.4</ele>
        <time>2025-04-21T09:09:07Z</time>
      </trkpt>
      <trkpt lat="43.21651" lon="6.32196">
        <ele>230.9</ele>
        <time>2025-04-21T09:09:12.500Z</time>
      </trkpt>
      <trkpt lat="43.21655" lon="6.32204">
        <ele>231.3</ele>
        <time>2025-04-21T09:09:18Z</time>
      </trkpt>
      <trkpt lat="43.21659" lon="6.32211">
        <ele>231.2</ele>
        <time>2025-04-21T09:09:23.739Z</time>
      </trkpt>
      <trkpt lat="43.21663" lon="6.32219">
        <ele>230.9</ele>
        <time>2025-04-21T09:09:30Z</time>
      </trkpt>
      <trkpt lat="43.21665" lon="6.32228">
        <ele>230.6</ele>
        <time>2025-04-21T09:09:36.134Z</time>
      </trkpt>
      <trkpt lat="43.21668" lon="6.32236">
        <ele>229.8</ele>
        <time>2025-04-21T09:09:42Z</time>
      </trkpt>
      <trkpt lat="43.21669" lon="6.32247">
        <ele>229.6</ele>
        <time>2025-04-21T09:09:47.500Z</time>
      </trkpt>
      <trkpt lat="43.2167" lon="6.32258">
        <ele>229.8</ele>
        <time>2025-04-21T09:09:53Z</time>
      </trkpt>
      <trkpt lat="43.2167" lon="6.32266">
        <ele>230</ele>
        <time>2025-04-21T09:09:58.956Z</time>
      </trkpt>
      <trkpt lat="43.21671" lon="6.32274">
        <ele>230.3</ele>
        <time>2025-04-21T09:10:05Z</time>
      </trkpt>
      <trkpt lat="43.21667" lon="6.32281">
        <ele>230</ele>
        <time>2025-04-21T09:10:27Z</time>
      </trkpt>
      <trkpt lat="43.21661" lon="6.3229">
        <ele>232.6</ele>
        <time>2025-04-21T09:10:58Z</time>
      </trkpt>
      <trkpt lat="43.21659" lon="6.32296">
        <ele>233.2</ele>
        <time>2025-04-21T09:11:08.347Z</time>
      </trkpt>
      <trkpt lat="43.21658" lon="6.32302">
        <ele>233.3</ele>
        <time>2025-04-21T09:11:18Z</time>
      </trkpt>
      <trkpt lat="43.21655" lon="6.3231">
        <ele>234.1</ele>
        <time>2025-04-21T09:11:24.700Z</time>
      </trkpt>
      <trkpt lat="43.21653" lon="6.32318">
        <ele>234.5</ele>
        <time>2025-04-21T09:11:31Z</time>
      </trkpt>
      <trkpt lat="43.21651" lon="6.32328">
        <ele>234.7</ele>
        <time>2025-04-21T09:11:36.999Z</time>
      </trkpt>
      <trkpt lat="43.21649" lon="6.32338">
        <ele>235.2</ele>
        <time>2025-04-21T09:11:43Z</time>
      </trkpt>
      <trkpt lat="43.21647" lon="6.32345">
        <ele>235.9</ele>
        <time>2025-04-21T09:11:48.462Z</time>
      </trkpt>
      <trkpt lat="43.21644" lon="6.32353">
        <ele>236.5</ele>
        <time>2025-04-21T09:11:55Z</time>
      </trkpt>
      <trkpt lat="43.21641" lon="6.3236">
        <ele>236.8</ele>
        <time>2025-04-21T09:12:00.999Z</time>
      </trkpt>
      <trkpt lat="43.21638" lon="6.32367">
        <ele>236.8</ele>
        <time>2025-04-21T09:12:07Z</time>
      </trkpt>
      <trkpt lat="43.21636" lon="6.32376">
        <ele>237</ele>
        <time>2025-04-21T09:12:12.792Z</time>
      </trkpt>
      <trkpt lat="43.21634" lon="6.32384">
        <ele>237.4</ele>
        <time>2025-04-21T09:12:18Z</time>
      </trkpt>
      <trkpt lat="43.21632" lon="6.32391">
        <ele>238.3</ele>
        <time>2025-04-21T09:12:23.644Z</time>
      </trkpt>
      <trkpt lat="43.21631" lon="6.32398">
        <ele>239.1</ele>
        <time>2025-04-21T09:12:29Z</time>
      </trkpt>
      <trkpt lat="43.2163" lon="6.32406">
        <ele>239.9</ele>
        <time>2025-04-21T09:12:34.499Z</time>
      </trkpt>
      <trkpt lat="43.21629" lon="6.32414">
        <ele>240.6</ele>
        <time>2025-04-21T09:12:40Z</time>
      </trkpt>
      <trkpt lat="43.21627" lon="6.32421">
        <ele>241.6</ele>
        <time>2025-04-21T09:12:46.671Z</time>
      </trkpt>
      <trkpt lat="43.21626" lon="6.32428">
        <ele>241.7</ele>
        <time>2025-04-21T09:12:53Z</time>
      </trkpt>
      <trkpt lat="43.21623" lon="6.32438">
        <ele>242.4</ele>
        <time>2025-04-21T09:12:58.882Z</time>
      </trkpt>
      <trkpt lat="43.21621" lon="6.32447">
        <ele>243.2</ele>
        <time>2025-04-21T09:13:04Z</time>
      </trkpt>
      <trkpt lat="43.21622" lon="6.32455">
        <ele>244.4</ele>
        <time>2025-04-21T09:13:11.500Z</time>
      </trkpt>
      <trkpt lat="43.21623" lon="6.32463">
        <ele>245.4</ele>
        <time>2025-04-21T09:13:19Z</time>
      </trkpt>
      <trkpt lat="43.21624" lon="6.32471">
        <ele>246.3</ele>
        <time>2025-04-21T09:13:26.345Z</time>
      </trkpt>
      <trkpt lat="43.21626" lon="6.32479">
        <ele>246.8</ele>
        <time>2025-04-21T09:13:34Z</time>
      </trkpt>
      <trkpt lat="43.21627" lon="6.32486">
        <ele>247.5</ele>
        <time>2025-04-21T09:13:41.515Z</time>
      </trkpt>
      <trkpt lat="43.21628" lon="6.32492">
        <ele>248.1</ele>
        <time>2025-04-21T09:13:48Z</time>
      </trkpt>
      <trkpt lat="43.21628" lon="6.32499">
        <ele>249.5</ele>
        <time>2025-04-21T09:13:54.438Z</time>
      </trkpt>
      <trkpt lat="43.21629" lon="6.32506">
        <ele>249.1</ele>
        <time>2025-04-21T09:14:01Z</time>
      </trkpt>
      <trkpt lat="43.21629" lon="6.32513">
        <ele>249.1</ele>
        <time>2025-04-21T09:14:07.000Z</time>
      </trkpt>
      <trkpt lat="43.21629" lon="6.3252">
        <ele>249.1</ele>
        <time>2025-04-21T09:14:13Z</time>
      </trkpt>
      <trkpt lat="43.21628" lon="6.32527">
        <ele>249.7</ele>
        <time>2025-04-21T09:14:18.490Z</time>
      </trkpt>
      <trkpt lat="43.21626" lon="6.32535">
        <ele>250.6</ele>
        <time>2025-04-21T09:14:25Z</time>
      </trkpt>
      <trkpt lat="43.21625" lon="6.32544">
        <ele>250.6</ele>
        <time>2025-04-21T09:14:29.999Z</time>
      </trkpt>
      <trkpt lat="43.21624" lon="6.32553">
        <ele>250.5</ele>
        <time>2025-04-21T09:14:35Z</time>
      </trkpt>
      <trkpt lat="43.21625" lon="6.32559">
        <ele>250.1</ele>
        <time>2025-04-21T09:14:39.631Z</time>
      </trkpt>
      <trkpt lat="43.21626" lon="6.32566">
        <ele>249.8</ele>
        <time>2025-04-21T09:14:45Z</time>
      </trkpt>
      <trkpt lat="43.21625" lon="6.32572">
        <ele>250.3</ele>
        <time>2025-04-21T09:14:51.999Z</time>
      </trkpt>
      <trkpt lat="43.21624" lon="6.32578">
        <ele>250.7</ele>
        <time>2025-04-21T09:14:59Z</time>
      </trkpt>
      <trkpt lat="43.21624" lon="6.32587">
        <ele>250.8</ele>
        <time>2025-04-21T09:15:15Z</time>
      </trkpt>
      <trkpt lat="43.21625" lon="6.32595">
        <ele>250.3</ele>
        <time>2025-04-21T09:15:19.267Z</time>
      </trkpt>
      <trkpt lat="43.21625" lon="6.32604">
        <ele>250.1</ele>
        <time>2025-04-21T09:15:24Z</time>
      </trkpt>
      <trkpt lat="43.21631" lon="6.32612">
        <ele>248</ele>
        <time>2025-04-21T09:15:34Z</time>
      </trkpt>
      <trkpt lat="43.21627" lon="6.32618">
        <ele>250.3</ele>
        <time>2025-04-21T09:15:50Z</time>
      </trkpt>
      <trkpt lat="43.21621" lon="6.3262">
        <ele>253</ele>
        <time>2025-04-21T09:32:45.505Z</time>
      </trkpt>
      <trkpt lat="43.21615" lon="6.32622">
        <ele>255.8</ele>
        <time>2025-04-21T09:49:41.011Z</time>
      </trkpt>
      <trkpt lat="43.21616" lon="6.32615">
        <ele>254</ele>
        <time>2025-04-21T10:03:56Z</time>
      </trkpt>
      <trkpt lat="43.21619" lon="6.32619">
        <ele>253.6</ele>
        <time>2025-04-21T10:04:26Z</time>
      </trkpt>
      <trkpt lat="43.21621" lon="6.32617">
        <ele>252.5</ele>
        <time>2025-04-21T10:05:09Z</time>
      </trkpt>
      <trkpt lat="43.21622" lon="6.32617">
        <ele>252.1</ele>
        <time>2025-04-21T10:05:37Z</time>
      </trkpt>
      <trkpt lat="43.21621" lon="6.32613">
        <ele>251.8</ele>
        <time>2025-04-21T10:06:01Z</time>
      </trkpt>
      <trkpt lat="43.21616" lon="6.32613">
        <ele>253.6</ele>
        <time>2025-04-21T10:06:08.500Z</time>
      </trkpt>
      <trkpt lat="43.21611" lon="6.32613">
        <ele>255.4</ele>
        <time>2025-04-21T10:06:16Z</time>
      </trkpt>
      <trkpt lat="43.21604" lon="6.32614">
        <ele>257.5</ele>
        <time>2025-04-21T10:06:26.256Z</time>
      </trkpt>
      <trkpt lat="43.21598" lon="6.32614">
        <ele>259.1</ele>
        <time>2025-04-21T10:06:35Z</time>
      </trkpt>
      <trkpt lat="43.21593" lon="6.32615">
        <ele>260.8</ele>
        <time>2025-04-21T10:06:43.865Z</time>
      </trkpt>
      <trkpt lat="43.21589" lon="6.32616">
        <ele>262.2</ele>
        <time>2025-04-21T10:06:51Z</time>
      </trkpt>
      <trkpt lat="43.21584" lon="6.32616">
        <ele>263.6</ele>
        <time>2025-04-21T10:06:58.000Z</time>
      </trkpt>
      <trkpt lat="43.21579" lon="6.32616">
        <ele>264.4</ele>
        <time>2025-04-21T10:07:05Z</time>
      </trkpt>
      <trkpt lat="43.21574" lon="6.32618">
        <ele>265.8</ele>
        <time>2025-04-21T10:07:15.131Z</time>
      </trkpt>
      <trkpt lat="43.2157" lon="6.32621">
        <ele>267.5</ele>
        <time>2025-04-21T10:07:24Z</time>
      </trkpt>
      <trkpt lat="43.21566" lon="6.32623">
        <ele>268.8</ele>
        <time>2025-04-21T10:07:32.499Z</time>
      </trkpt>
      <trkpt lat="43.21562" lon="6.32625">
        <ele>270.1</ele>
        <time>2025-04-21T10:07:41Z</time>
      </trkpt>
      <trkpt lat="43.21557" lon="6.32627">
        <ele>271.5</ele>
        <time>2025-04-21T10:07:48.105Z</time>
      </trkpt>
      <trkpt lat="43.21552" lon="6.32628">
        <ele>273</ele>
        <time>2025-04-21T10:07:55Z</time>
      </trkpt>
      <trkpt lat="43.21544" lon="6.3263">
        <ele>275.7</ele>
        <time>2025-04-21T10:08:24Z</time>
      </trkpt>
      <trkpt lat="43.21539" lon="6.32632">
        <ele>277.5</ele>
        <time>2025-04-21T10:08:31.778Z</time>
      </trkpt>
      <trkpt lat="43.21533" lon="6.32634">
        <ele>279.5</ele>
        <time>2025-04-21T10:08:41Z</time>
      </trkpt>
      <trkpt lat="43.21529" lon="6.32633">
        <ele>280.2</ele>
        <time>2025-04-21T10:08:44.275Z</time>
      </trkpt>
      <trkpt lat="43.21524" lon="6.32631">
        <ele>280.7</ele>
        <time>2025-04-21T10:08:47.550Z</time>
      </trkpt>
      <trkpt lat="43.2152" lon="6.3263">
        <ele>281.4</ele>
        <time>2025-04-21T10:08:50.775Z</time>
      </trkpt>
      <trkpt lat="43.21515" lon="6.32629">
        <ele>282.2</ele>
        <time>2025-04-21T10:08:54Z</time>
      </trkpt>
      <trkpt lat="43.21507" lon="6.32629">
        <ele>283.8</ele>
        <time>2025-04-21T10:09:01.000Z</time>
      </trkpt>
      <trkpt lat="43.21499" lon="6.32629">
        <ele>285.8</ele>
        <time>2025-04-21T10:09:08Z</time>
      </trkpt>
      <trkpt lat="43.21498" lon="6.32633">
        <ele>286.5</ele>
        <time>2025-04-21T10:09:28Z</time>
      </trkpt>
      <trkpt lat="43.21502" lon="6.32634">
        <ele>285.3</ele>
        <time>2025-04-21T10:09:36.025Z</time>
      </trkpt>
      <trkpt lat="43.21507" lon="6.32635">
        <ele>284.5</ele>
        <time>2025-04-21T10:09:46Z</time>
      </trkpt>
      <trkpt lat="43.21512" lon="6.3264">
        <ele>284.7</ele>
        <time>2025-04-21T10:09:54.783Z</time>
      </trkpt>
      <trkpt lat="43.21517" lon="6.32644">
        <ele>285.6</ele>
        <time>2025-04-21T10:10:03Z</time>
      </trkpt>
      <trkpt lat="43.21521" lon="6.3265">
        <ele>287.5</ele>
        <time>2025-04-21T10:10:12.500Z</time>
      </trkpt>
      <trkpt lat="43.21525" lon="6.32656">
        <ele>289.2</ele>
        <time>2025-04-21T10:10:22Z</time>
      </trkpt>
      <trkpt lat="43.21529" lon="6.32662">
        <ele>290.9</ele>
        <time>2025-04-21T10:10:32.500Z</time>
      </trkpt>
      <trkpt lat="43.21533" lon="6.32668">
        <ele>292.2</ele>
        <time>2025-04-21T10:10:43Z</time>
      </trkpt>
      <trkpt lat="43.21537" lon="6.32673">
        <ele>292.9</ele>
        <time>2025-04-21T10:10:53.000Z</time>
      </trkpt>
      <trkpt lat="43.21541" lon="6.32678">
        <ele>293.6</ele>
        <time>2025-04-21T10:11:03Z</time>
      </trkpt>
      <trkpt lat="43.21544" lon="6.32685">
        <ele>295.1</ele>
        <time>2025-04-21T10:11:12.488Z</time>
      </trkpt>
      <trkpt lat="43.21547" lon="6.32693">
        <ele>297</ele>
        <time>2025-04-21T10:11:23Z</time>
      </trkpt>
      <trkpt lat="43.21551" lon="6.32699">
        <ele>297.2</ele>
        <time>2025-04-21T10:11:31.444Z</time>
      </trkpt>
      <trkpt lat="43.21554" lon="6.32705">
        <ele>297.4</ele>
        <time>2025-04-21T10:11:39Z</time>
      </trkpt>
      <trkpt lat="43.21558" lon="6.32716">
        <ele>297.5</ele>
        <time>2025-04-21T10:11:56Z</time>
      </trkpt>
      <trkpt lat="43.21554" lon="6.32717">
        <ele>299.8</ele>
        <time>2025-04-21T10:12:05.500Z</time>
      </trkpt>
      <trkpt lat="43.21549" lon="6.32718">
        <ele>301.7</ele>
        <time>2025-04-21T10:12:15Z</time>
      </trkpt>
      <trkpt lat="43.21544" lon="6.32717">
        <ele>303.4</ele>
        <time>2025-04-21T10:12:25.057Z</time>
      </trkpt>
      <trkpt lat="43.21538" lon="6.32717">
        <ele>305.7</ele>
        <time>2025-04-21T10:12:37Z</time>
      </trkpt>
      <trkpt lat="43.21532" lon="6.32715">
        <ele>307.4</ele>
        <time>2025-04-21T10:12:47.449Z</time>
      </trkpt>
      <trkpt lat="43.21527" lon="6.32714">
        <ele>308.8</ele>
        <time>2025-04-21T10:12:56Z</time>
      </trkpt>
      <trkpt lat="43.21521" lon="6.32713">
        <ele>310.1</ele>
        <time>2025-04-21T10:13:04.316Z</time>
      </trkpt>
      <trkpt lat="43.21514" lon="6.32712">
        <ele>311.7</ele>
        <time>2025-04-21T10:13:14Z</time>
      </trkpt>
      <trkpt lat="43.21509" lon="6.32712">
        <ele>313</ele>
        <time>2025-04-21T10:13:26.222Z</time>
      </trkpt>
      <trkpt lat="43.21505" lon="6.32712">
        <ele>314</ele>
        <time>2025-04-21T10:13:36Z</time>
      </trkpt>
      <trkpt lat="43.21499" lon="6.32705">
        <ele>312.9</ele>
        <time>2025-04-21T10:13:59Z</time>
      </trkpt>
      <trkpt lat="43.21493" lon="6.3271">
        <ele>315.2</ele>
        <time>2025-04-21T10:14:18Z</time>
      </trkpt>
      <trkpt lat="43.21489" lon="6.32712">
        <ele>316.4</ele>
        <time>2025-04-21T10:14:26.326Z</time>
      </trkpt>
      <trkpt lat="43.21484" lon="6.32715">
        <ele>318</ele>
        <time>2025-04-21T10:14:37Z</time>
      </trkpt>
      <trkpt lat="43.2148" lon="6.32718">
        <ele>319.5</ele>
        <time>2025-04-21T10:14:44.499Z</time>
      </trkpt>
      <trkpt lat="43.21476" lon="6.32721">
        <ele>321.1</ele>
        <time>2025-04-21T10:14:52Z</time>
      </trkpt>
      <trkpt lat="43.21471" lon="6.32723">
        <ele>322.4</ele>
        <time>2025-04-21T10:14:58.932Z</time>
      </trkpt>
      <trkpt lat="43.21467" lon="6.32726">
        <ele>323.7</ele>
        <time>2025-04-21T10:15:05Z</time>
      </trkpt>
      <trkpt lat="43.21461" lon="6.32724">
        <ele>323.4</ele>
        <time>2025-04-21T10:15:13.249Z</time>
      </trkpt>
      <trkpt lat="43.21456" lon="6.32723">
        <ele>323.4</ele>
        <time>2025-04-21T10:15:20Z</time>
      </trkpt>
      <trkpt lat="43.21451" lon="6.32722">
        <ele>323.4</ele>
        <time>2025-04-21T10:15:27.255Z</time>
      </trkpt>
      <trkpt lat="43.21447" lon="6.32722">
        <ele>323.7</ele>
        <time>2025-04-21T10:15:33Z</time>
      </trkpt>
      <trkpt lat="43.21442" lon="6.32722">
        <ele>324.2</ele>
        <time>2025-04-21T10:15:38.500Z</time>
      </trkpt>
      <trkpt lat="43.21437" lon="6.32722">
        <ele>324.7</ele>
        <time>2025-04-21T10:15:44Z</time>
      </trkpt>
      <trkpt lat="43.21431" lon="6.32728">
        <ele>327.5</ele>
        <time>2025-04-21T10:15:55Z</time>
      </trkpt>
      <trkpt lat="43.21435" lon="6.32732">
        <ele>328.4</ele>
        <time>2025-04-21T10:16:03.000Z</time>
      </trkpt>
      <trkpt lat="43.2144" lon="6.32737">
        <ele>329.4</ele>
        <time>2025-04-21T10:16:13Z</time>
      </trkpt>
      <trkpt lat="43.21445" lon="6.32739">
        <ele>329.4</ele>
        <time>2025-04-21T10:16:20.324Z</time>
      </trkpt>
      <trkpt lat="43.2145" lon="6.32742">
        <ele>330.2</ele>
        <time>2025-04-21T10:16:28Z</time>
      </trkpt>
      <trkpt lat="43.21454" lon="6.32743">
        <ele>330.3</ele>
        <time>2025-04-21T10:16:35.815Z</time>
      </trkpt>
      <trkpt lat="43.21458" lon="6.32745">
        <ele>330.8</ele>
        <time>2025-04-21T10:16:44Z</time>
      </trkpt>
      <trkpt lat="43.21463" lon="6.32748">
        <ele>331.6</ele>
        <time>2025-04-21T10:16:54.673Z</time>
      </trkpt>
      <trkpt lat="43.21467" lon="6.3275">
        <ele>332.2</ele>
        <time>2025-04-21T10:17:03Z</time>
      </trkpt>
      <trkpt lat="43.21473" lon="6.32757">
        <ele>333.6</ele>
        <time>2025-04-21T10:17:13.307Z</time>
      </trkpt>
      <trkpt lat="43.21478" lon="6.32763">
        <ele>333.6</ele>
        <time>2025-04-21T10:17:22Z</time>
      </trkpt>
      <trkpt lat="43.2148" lon="6.32768">
        <ele>334.1</ele>
        <time>2025-04-21T10:17:28.151Z</time>
      </trkpt>
      <trkpt lat="43.21483" lon="6.32774">
        <ele>334.4</ele>
        <time>2025-04-21T10:17:36Z</time>
      </trkpt>
      <trkpt lat="43.21478" lon="6.32779">
        <ele>337.1</ele>
        <time>2025-04-21T10:17:53Z</time>
      </trkpt>
      <trkpt lat="43.21471" lon="6.32781">
        <ele>339.8</ele>
        <time>2025-04-21T10:18:02.658Z</time>
      </trkpt>
      <trkpt lat="43.21465" lon="6.32783">
        <ele>341.1</ele>
        <time>2025-04-21T10:18:11Z</time>
      </trkpt>
      <trkpt lat="43.2146" lon="6.32784">
        <ele>342.2</ele>
        <time>2025-04-21T10:18:18.314Z</time>
      </trkpt>
      <trkpt lat="43.21454" lon="6.32784">
        <ele>343.2</ele>
        <time>2025-04-21T10:18:27Z</time>
      </trkpt>
      <trkpt lat="43.21449" lon="6.32785">
        <ele>344.3</ele>
        <time>2025-04-21T10:18:34.740Z</time>
      </trkpt>
      <trkpt lat="43.21443" lon="6.32786">
        <ele>345.5</ele>
        <time>2025-04-21T10:18:44Z</time>
      </trkpt>
      <trkpt lat="43.21438" lon="6.32784">
        <ele>345.5</ele>
        <time>2025-04-21T10:18:51.405Z</time>
      </trkpt>
      <trkpt lat="43.21432" lon="6.32783">
        <ele>345.9</ele>
        <time>2025-04-21T10:19:00Z</time>
      </trkpt>
      <trkpt lat="43.21424" lon="6.32781">
        <ele>346.2</ele>
        <time>2025-04-21T10:19:07.042Z</time>
      </trkpt>
      <trkpt lat="43.21416" lon="6.3278">
        <ele>346.8</ele>
        <time>2025-04-21T10:19:14Z</time>
      </trkpt>
      <trkpt lat="43.2141" lon="6.32781">
        <ele>348.1</ele>
        <time>2025-04-21T10:19:22.531Z</time>
      </trkpt>
      <trkpt lat="43.21404" lon="6.32781">
        <ele>349</ele>
        <time>2025-04-21T10:19:31Z</time>
      </trkpt>
      <trkpt lat="43.21399" lon="6.32782">
        <ele>350.1</ele>
        <time>2025-04-21T10:19:37.830Z</time>
      </trkpt>
      <trkpt lat="43.21393" lon="6.32783">
        <ele>351.4</ele>
        <time>2025-04-21T10:19:46Z</time>
      </trkpt>
      <trkpt lat="43.21388" lon="6.32784">
        <ele>352.6</ele>
        <time>2025-04-21T10:19:53.314Z</time>
      </trkpt>
      <trkpt lat="43.21382" lon="6.32784">
        <ele>353.2</ele>
        <time>2025-04-21T10:20:02Z</time>
      </trkpt>
      <trkpt lat="43.21376" lon="6.32785">
        <ele>354.1</ele>
        <time>2025-04-21T10:20:09.661Z</time>
      </trkpt>
      <trkpt lat="43.21371" lon="6.32785">
        <ele>354.6</ele>
        <time>2025-04-21T10:20:16Z</time>
      </trkpt>
      <trkpt lat="43.21364" lon="6.32785">
        <ele>355.3</ele>
        <time>2025-04-21T10:20:22.976Z</time>
      </trkpt>
      <trkpt lat="43.21358" lon="6.32784">
        <ele>356</ele>
        <time>2025-04-21T10:20:29Z</time>
      </trkpt>
      <trkpt lat="43.21353" lon="6.32783">
        <ele>356.8</ele>
        <time>2025-04-21T10:20:36.386Z</time>
      </trkpt>
      <trkpt lat="43.21348" lon="6.32781">
        <ele>357.4</ele>
        <time>2025-04-21T10:20:44Z</time>
      </trkpt>
      <trkpt lat="43.21343" lon="6.32778">
        <ele>357.6</ele>
        <time>2025-04-21T10:20:51.302Z</time>
      </trkpt>
      <trkpt lat="43.21339" lon="6.32776">
        <ele>358</ele>
        <time>2025-04-21T10:20:57Z</time>
      </trkpt>
      <trkpt lat="43.21333" lon="6.32773">
        <ele>358.7</ele>
        <time>2025-04-21T10:21:04.160Z</time>
      </trkpt>
      <trkpt lat="43.21328" lon="6.32771">
        <ele>359.8</ele>
        <time>2025-04-21T10:21:10Z</time>
      </trkpt>
      <trkpt lat="43.21324" lon="6.32765">
        <ele>360.1</ele>
        <time>2025-04-21T10:21:16.499Z</time>
      </trkpt>
      <trkpt lat="43.2132" lon="6.32759">
        <ele>360.9</ele>
        <time>2025-04-21T10:21:23Z</time>
      </trkpt>
      <trkpt lat="43.21317" lon="6.32751">
        <ele>361.5</ele>
        <time>2025-04-21T10:21:29.700Z</time>
      </trkpt>
      <trkpt lat="43.21315" lon="6.32743">
        <ele>361.6</ele>
        <time>2025-04-21T10:21:36Z</time>
      </trkpt>
      <trkpt lat="43.21314" lon="6.32737">
        <ele>361.4</ele>
        <time>2025-04-21T10:21:41.401Z</time>
      </trkpt>
      <trkpt lat="43.21312" lon="6.3273">
        <ele>361.4</ele>
        <time>2025-04-21T10:21:48Z</time>
      </trkpt>
      <trkpt lat="43.21316" lon="6.32722">
        <ele>358.6</ele>
        <time>2025-04-21T10:21:55.188Z</time>
      </trkpt>
      <trkpt lat="43.2132" lon="6.32713">
        <ele>359.8</ele>
        <time>2025-04-21T10:22:03Z</time>
      </trkpt>
      <trkpt lat="43.21324" lon="6.32708">
        <ele>360</ele>
        <time>2025-04-21T10:22:10.331Z</time>
      </trkpt>
      <trkpt lat="43.21327" lon="6.32704">
        <ele>360.4</ele>
        <time>2025-04-21T10:22:16Z</time>
      </trkpt>
      <trkpt lat="43.21333" lon="6.32697">
        <ele>361.1</ele>
        <time>2025-04-21T10:22:23.721Z</time>
      </trkpt>
      <trkpt lat="43.21339" lon="6.32691">
        <ele>360.5</ele>
        <time>2025-04-21T10:22:31Z</time>
      </trkpt>
      <trkpt lat="43.21344" lon="6.32686">
        <ele>359.7</ele>
        <time>2025-04-21T10:22:36.000Z</time>
      </trkpt>
      <trkpt lat="43.21349" lon="6.32681">
        <ele>359</ele>
        <time>2025-04-21T10:22:41Z</time>
      </trkpt>
      <trkpt lat="43.21353" lon="6.32671">
        <ele>360.4</ele>
        <time>2025-04-21T10:22:51Z</time>
      </trkpt>
      <trkpt lat="43.21355" lon="6.32665">
        <ele>361.4</ele>
        <time>2025-04-21T10:22:56.000Z</time>
      </trkpt>
      <trkpt lat="43.21356" lon="6.32659">
        <ele>362</ele>
        <time>2025-04-21T10:23:01Z</time>
      </trkpt>
      <trkpt lat="43.21357" lon="6.32647">
        <ele>364.1</ele>
        <time>2025-04-21T10:23:13Z</time>
      </trkpt>
      <trkpt lat="43.21357" lon="6.3264">
        <ele>365.5</ele>
        <time>2025-04-21T10:23:18.556Z</time>
      </trkpt>
      <trkpt lat="43.21358" lon="6.32632">
        <ele>365.4</ele>
        <time>2025-04-21T10:23:25Z</time>
      </trkpt>
      <trkpt lat="43.21356" lon="6.32622">
        <ele>366.3</ele>
        <time>2025-04-21T10:23:33.388Z</time>
      </trkpt>
      <trkpt lat="43.21354" lon="6.32613">
        <ele>367.3</ele>
        <time>2025-04-21T10:23:41Z</time>
      </trkpt>
      <trkpt lat="43.21353" lon="6.32607">
        <ele>367.5</ele>
        <time>2025-04-21T10:23:44.261Z</time>
      </trkpt>
      <trkpt lat="43.21351" lon="6.32601">
        <ele>368</ele>
        <time>2025-04-21T10:23:47.756Z</time>
      </trkpt>
      <trkpt lat="43.21349" lon="6.32595">
        <ele>368.7</ele>
        <time>2025-04-21T10:23:51.252Z</time>
      </trkpt>
      <trkpt lat="43.21348" lon="6.3259">
        <ele>368.9</ele>
        <time>2025-04-21T10:23:54Z</time>
      </trkpt>
      <trkpt lat="43.21346" lon="6.32582">
        <ele>369.7</ele>
        <time>2025-04-21T10:24:01.654Z</time>
      </trkpt>
      <trkpt lat="43.21345" lon="6.32574">
        <ele>370.3</ele>
        <time>2025-04-21T10:24:09Z</time>
      </trkpt>
      <trkpt lat="43.21345" lon="6.32566">
        <ele>370.3</ele>
        <time>2025-04-21T10:24:16.942Z</time>
      </trkpt>
      <trkpt lat="43.21344" lon="6.32558">
        <ele>370.9</ele>
        <time>2025-04-21T10:24:25Z</time>
      </trkpt>
      <trkpt lat="43.21342" lon="6.32549">
        <ele>372.2</ele>
        <time>2025-04-21T10:24:33.053Z</time>
      </trkpt>
      <trkpt lat="43.21341" lon="6.32541">
        <ele>372.9</ele>
        <time>2025-04-21T10:24:40Z</time>
      </trkpt>
      <trkpt lat="43.21337" lon="6.32534">
        <ele>375.1</ele>
        <time>2025-04-21T10:24:47.841Z</time>
      </trkpt>
      <trkpt lat="43.21334" lon="6.32527">
        <ele>376.6</ele>
        <time>2025-04-21T10:24:55Z</time>
      </trkpt>
      <trkpt lat="43.21329" lon="6.32522">
        <ele>377.2</ele>
        <time>2025-04-21T10:25:04.602Z</time>
      </trkpt>
      <trkpt lat="43.21325" lon="6.32517">
        <ele>377</ele>
        <time>2025-04-21T10:25:13Z</time>
      </trkpt>
      <trkpt lat="43.2132" lon="6.3252">
        <ele>378</ele>
        <time>2025-04-21T10:25:23.897Z</time>
      </trkpt>
      <trkpt lat="43.21316" lon="6.32523">
        <ele>379.1</ele>
        <time>2025-04-21T10:25:33Z</time>
      </trkpt>
      <trkpt lat="43.21312" lon="6.32525">
        <ele>380.2</ele>
        <time>2025-04-21T10:26:24Z</time>
      </trkpt>
      <trkpt lat="43.21309" lon="6.3253">
        <ele>381.7</ele>
        <time>2025-04-21T10:26:31.321Z</time>
      </trkpt>
      <trkpt lat="43.21305" lon="6.32534">
        <ele>382.9</ele>
        <time>2025-04-21T10:26:39Z</time>
      </trkpt>
      <trkpt lat="43.21304" lon="6.32541">
        <ele>383.9</ele>
        <time>2025-04-21T10:26:47.588Z</time>
      </trkpt>
      <trkpt lat="43.21303" lon="6.32547">
        <ele>384.8</ele>
        <time>2025-04-21T10:26:55Z</time>
      </trkpt>
      <trkpt lat="43.21301" lon="6.32553">
        <ele>385.9</ele>
        <time>2025-04-21T10:27:04.654Z</time>
      </trkpt>
      <trkpt lat="43.21299" lon="6.32558">
        <ele>386.7</ele>
        <time>2025-04-21T10:27:13Z</time>
      </trkpt>
      <trkpt lat="43.21297" lon="6.32564">
        <ele>387.6</ele>
        <time>2025-04-21T10:27:22.986Z</time>
      </trkpt>
      <trkpt lat="43.21294" lon="6.3257">
        <ele>388.7</ele>
        <time>2025-04-21T10:27:34Z</time>
      </trkpt>
      <trkpt lat="43.2129" lon="6.32575">
        <ele>390.1</ele>
        <time>2025-04-21T10:27:41.834Z</time>
      </trkpt>
      <trkpt lat="43.21286" lon="6.32579">
        <ele>391.5</ele>
        <time>2025-04-21T10:27:49Z</time>
      </trkpt>
      <trkpt lat="43.21281" lon="6.32582">
        <ele>393</ele>
        <time>2025-04-21T10:28:00.442Z</time>
      </trkpt>
      <trkpt lat="43.21277" lon="6.32585">
        <ele>394.3</ele>
        <time>2025-04-21T10:28:10Z</time>
      </trkpt>
      <trkpt lat="43.21271" lon="6.32588">
        <ele>395.3</ele>
        <time>2025-04-21T10:28:19.914Z</time>
      </trkpt>
      <trkpt lat="43.21266" lon="6.3259">
        <ele>396.2</ele>
        <time>2025-04-21T10:28:28Z</time>
      </trkpt>
      <trkpt lat="43.21262" lon="6.326">
        <ele>398.9</ele>
        <time>2025-04-21T10:28:48Z</time>
      </trkpt>
      <trkpt lat="43.21258" lon="6.32604">
        <ele>400.5</ele>
        <time>2025-04-21T10:29:25Z</time>
      </trkpt>
      <trkpt lat="43.21255" lon="6.32609">
        <ele>402.3</ele>
        <time>2025-04-21T10:29:34.499Z</time>
      </trkpt>
      <trkpt lat="43.21251" lon="6.32613">
        <ele>404</ele>
        <time>2025-04-21T10:29:44Z</time>
      </trkpt>
      <trkpt lat="43.21248" lon="6.32616">
        <ele>405</ele>
        <time>2025-04-21T10:29:51.181Z</time>
      </trkpt>
      <trkpt lat="43.21244" lon="6.32619">
        <ele>406</ele>
        <time>2025-04-21T10:30:00Z</time>
      </trkpt>
      <trkpt lat="43.21238" lon="6.3262">
        <ele>407.1</ele>
        <time>2025-04-21T10:30:10.893Z</time>
      </trkpt>
      <trkpt lat="43.21233" lon="6.32621">
        <ele>408.1</ele>
        <time>2025-04-21T10:30:20Z</time>
      </trkpt>
      <trkpt lat="43.2123" lon="6.32626">
        <ele>409.8</ele>
        <time>2025-04-21T10:30:51Z</time>
      </trkpt>
      <trkpt lat="43.21224" lon="6.32628">
        <ele>411.5</ele>
        <time>2025-04-21T10:30:58.414Z</time>
      </trkpt>
      <trkpt lat="43.21217" lon="6.3263">
        <ele>413.5</ele>
        <time>2025-04-21T10:31:07Z</time>
      </trkpt>
      <trkpt lat="43.21218" lon="6.32638">
        <ele>415.5</ele>
        <time>2025-04-21T10:31:24Z</time>
      </trkpt>
      <trkpt lat="43.21214" lon="6.32641">
        <ele>416.9</ele>
        <time>2025-04-21T10:31:34.013Z</time>
      </trkpt>
      <trkpt lat="43.21209" lon="6.32644">
        <ele>418.5</ele>
        <time>2025-04-21T10:31:46Z</time>
      </trkpt>
      <trkpt lat="43.21208" lon="6.3265">
        <ele>420</ele>
        <time>2025-04-21T10:32:12Z</time>
      </trkpt>
      <trkpt lat="43.21206" lon="6.32658">
        <ele>422.3</ele>
        <time>2025-04-21T10:32:33Z</time>
      </trkpt>
      <trkpt lat="43.21205" lon="6.32668">
        <ele>424.7</ele>
        <time>2025-04-21T10:32:52Z</time>
      </trkpt>
      <trkpt lat="43.212" lon="6.32674">
        <ele>427.2</ele>
        <time>2025-04-21T10:33:12Z</time>
      </trkpt>
      <trkpt lat="43.21196" lon="6.32677">
        <ele>429.4</ele>
        <time>2025-04-21T10:33:22.499Z</time>
      </trkpt>
      <trkpt lat="43.21191" lon="6.3268">
        <ele>431.4</ele>
        <time>2025-04-21T10:33:33Z</time>
      </trkpt>
      <trkpt lat="43.21186" lon="6.32678">
        <ele>432.4</ele>
        <time>2025-04-21T10:33:42.499Z</time>
      </trkpt>
      <trkpt lat="43.21181" lon="6.32676">
        <ele>433.4</ele>
        <time>2025-04-21T10:33:52Z</time>
      </trkpt>
      <trkpt lat="43.21174" lon="6.32675">
        <ele>435.1</ele>
        <time>2025-04-21T10:34:11Z</time>
      </trkpt>
      <trkpt lat="43.21168" lon="6.32675">
        <ele>436.7</ele>
        <time>2025-04-21T10:34:30Z</time>
      </trkpt>
      <trkpt lat="43.21163" lon="6.32675">
        <ele>437.9</ele>
        <time>2025-04-21T10:34:39.450Z</time>
      </trkpt>
      <trkpt lat="43.21158" lon="6.32674">
        <ele>438.9</ele>
        <time>2025-04-21T10:34:49Z</time>
      </trkpt>
      <trkpt lat="43.21157" lon="6.32681">
        <ele>440.7</ele>
        <time>2025-04-21T10:34:57.311Z</time>
      </trkpt>
      <trkpt lat="43.21155" lon="6.32687">
        <ele>442.4</ele>
        <time>2025-04-21T10:35:05Z</time>
      </trkpt>
      <trkpt lat="43.21155" lon="6.32699">
        <ele>444.6</ele>
        <time>2025-04-21T10:35:26Z</time>
      </trkpt>
      <trkpt lat="43.21159" lon="6.32709">
        <ele>445</ele>
        <time>2025-04-21T10:36:10Z</time>
      </trkpt>
      <trkpt lat="43.21156" lon="6.32715">
        <ele>446.1</ele>
        <time>2025-04-21T10:36:21.499Z</time>
      </trkpt>
      <trkpt lat="43.21153" lon="6.32721">
        <ele>447.3</ele>
        <time>2025-04-21T10:36:33Z</time>
      </trkpt>
      <trkpt lat="43.2115" lon="6.32727">
        <ele>448</ele>
        <time>2025-04-21T10:36:45.168Z</time>
      </trkpt>
      <trkpt lat="43.21147" lon="6.32732">
        <ele>448.6</ele>
        <time>2025-04-21T10:36:56Z</time>
      </trkpt>
      <trkpt lat="43.21144" lon="6.32734">
        <ele>449.3</ele>
        <time>2025-04-21T10:37:56Z</time>
      </trkpt>
      <trkpt lat="43.21147" lon="6.32735">
        <ele>448.6</ele>
        <time>2025-04-21T10:39:01Z</time>
      </trkpt>
      <trkpt lat="43.2115" lon="6.32736">
        <ele>447.9</ele>
        <time>2025-04-21T10:39:58Z</time>
      </trkpt>
      <trkpt lat="43.21148" lon="6.32743">
        <ele>448.4</ele>
        <time>2025-04-21T10:40:06.499Z</time>
      </trkpt>
      <trkpt lat="43.21146" lon="6.3275">
        <ele>449</ele>
        <time>2025-04-21T10:40:15Z</time>
      </trkpt>
      <trkpt lat="43.21146" lon="6.32758">
        <ele>448.9</ele>
        <time>2025-04-21T10:40:20.500Z</time>
      </trkpt>
      <trkpt lat="43.21146" lon="6.32766">
        <ele>448.8</ele>
        <time>2025-04-21T10:40:26Z</time>
      </trkpt>
      <trkpt lat="43.21147" lon="6.32774">
        <ele>448.4</ele>
        <time>2025-04-21T10:40:31.000Z</time>
      </trkpt>
      <trkpt lat="43.21148" lon="6.32782">
        <ele>447.9</ele>
        <time>2025-04-21T10:40:36Z</time>
      </trkpt>
      <trkpt lat="43.21147" lon="6.32789">
        <ele>448</ele>
        <time>2025-04-21T10:40:42.561Z</time>
      </trkpt>
      <trkpt lat="43.21147" lon="6.32796">
        <ele>447.7</ele>
        <time>2025-04-21T10:40:49Z</time>
      </trkpt>
      <trkpt lat="43.21147" lon="6.32804">
        <ele>447.4</ele>
        <time>2025-04-21T10:40:57.438Z</time>
      </trkpt>
      <trkpt lat="43.21146" lon="6.32812">
        <ele>447.5</ele>
        <time>2025-04-21T10:41:06Z</time>
      </trkpt>
      <trkpt lat="43.21146" lon="6.32818">
        <ele>447.4</ele>
        <time>2025-04-21T10:41:22.615Z</time>
      </trkpt>
      <trkpt lat="43.21146" lon="6.32825">
        <ele>447.2</ele>
        <time>2025-04-21T10:41:42Z</time>
      </trkpt>
      <trkpt lat="43.21148" lon="6.32835">
        <ele>446.5</ele>
        <time>2025-04-21T10:41:48.000Z</time>
      </trkpt>
      <trkpt lat="43.2115" lon="6.32845">
        <ele>446.4</ele>
        <time>2025-04-21T10:41:54Z</time>
      </trkpt>
      <trkpt lat="43.21152" lon="6.32852">
        <ele>446.2</ele>
        <time>2025-04-21T10:42:00.118Z</time>
      </trkpt>
      <trkpt lat="43.21154" lon="6.3286">
        <ele>446.1</ele>
        <time>2025-04-21T10:42:07Z</time>
      </trkpt>
      <trkpt lat="43.21155" lon="6.32869">
        <ele>446.1</ele>
        <time>2025-04-21T10:42:14.000Z</time>
      </trkpt>
      <trkpt lat="43.21156" lon="6.32878">
        <ele>446.3</ele>
        <time>2025-04-21T10:42:21Z</time>
      </trkpt>
      <trkpt lat="43.21158" lon="6.32887">
        <ele>446.6</ele>
        <time>2025-04-21T10:42:27.335Z</time>
      </trkpt>
      <trkpt lat="43.21161" lon="6.32896">
        <ele>447.3</ele>
        <time>2025-04-21T10:42:34Z</time>
      </trkpt>
      <trkpt lat="43.21164" lon="6.32905">
        <ele>448.3</ele>
        <time>2025-04-21T10:42:39.500Z</time>
      </trkpt>
      <trkpt lat="43.21167" lon="6.32914">
        <ele>449.6</ele>
        <time>2025-04-21T10:42:45Z</time>
      </trkpt>
      <trkpt lat="43.21169" lon="6.32922">
        <ele>450</ele>
        <time>2025-04-21T10:42:52.142Z</time>
      </trkpt>
      <trkpt lat="43.21172" lon="6.32929">
        <ele>450.2</ele>
        <time>2025-04-21T10:42:59Z</time>
      </trkpt>
      <trkpt lat="43.21174" lon="6.32937">
        <ele>450.9</ele>
        <time>2025-04-21T10:43:06.652Z</time>
      </trkpt>
      <trkpt lat="43.21177" lon="6.32944">
        <ele>451.4</ele>
        <time>2025-04-21T10:43:14Z</time>
      </trkpt>
      <trkpt lat="43.21179" lon="6.32953">
        <ele>451.9</ele>
        <time>2025-04-21T10:43:22.131Z</time>
      </trkpt>
      <trkpt lat="43.2118" lon="6.32962">
        <ele>452.6</ele>
        <time>2025-04-21T10:43:30Z</time>
      </trkpt>
      <trkpt lat="43.21182" lon="6.3297">
        <ele>453.3</ele>
        <time>2025-04-21T10:43:38.047Z</time>
      </trkpt>
      <trkpt lat="43.21184" lon="6.32979">
        <ele>454.5</ele>
        <time>2025-04-21T10:43:47Z</time>
      </trkpt>
      <trkpt lat="43.21185" lon="6.32986">
        <ele>455.5</ele>
        <time>2025-04-21T10:43:53.080Z</time>
      </trkpt>
      <trkpt lat="43.21186" lon="6.32994">
        <ele>456.6</ele>
        <time>2025-04-21T10:44:00Z</time>
      </trkpt>
      <trkpt lat="43.21188" lon="6.33002">
        <ele>457.9</ele>
        <time>2025-04-21T10:44:08.047Z</time>
      </trkpt>
      <trkpt lat="43.2119" lon="6.33011">
        <ele>459.9</ele>
        <time>2025-04-21T10:44:17Z</time>
      </trkpt>
      <trkpt lat="43.21191" lon="6.33018">
        <ele>461.5</ele>
        <time>2025-04-21T10:44:27.000Z</time>
      </trkpt>
      <trkpt lat="43.21192" lon="6.33025">
        <ele>463.1</ele>
        <time>2025-04-21T10:44:37Z</time>
      </trkpt>
      <trkpt lat="43.21191" lon="6.33033">
        <ele>464.8</ele>
        <time>2025-04-21T10:44:48.420Z</time>
      </trkpt>
      <trkpt lat="43.21189" lon="6.3304">
        <ele>466.1</ele>
        <time>2025-04-21T10:44:59Z</time>
      </trkpt>
      <trkpt lat="43.21187" lon="6.33048">
        <ele>467.6</ele>
        <time>2025-04-21T10:45:06.411Z</time>
      </trkpt>
      <trkpt lat="43.21185" lon="6.33055">
        <ele>468.8</ele>
        <time>2025-04-21T10:45:13Z</time>
      </trkpt>
      <trkpt lat="43.21183" lon="6.33062">
        <ele>469.7</ele>
        <time>2025-04-21T10:45:18.647Z</time>
      </trkpt>
      <trkpt lat="43.21181" lon="6.3307">
        <ele>470.7</ele>
        <time>2025-04-21T10:45:25Z</time>
      </trkpt>
      <trkpt lat="43.21177" lon="6.33076">
        <ele>470.9</ele>
        <time>2025-04-21T10:45:30.009Z</time>
      </trkpt>
      <trkpt lat="43.21174" lon="6.33081">
        <ele>471.2</ele>
        <time>2025-04-21T10:45:34Z</time>
      </trkpt>
      <trkpt lat="43.2117" lon="6.33085">
        <ele>470.3</ele>
        <time>2025-04-21T10:45:39.205Z</time>
      </trkpt>
      <trkpt lat="43.21166" lon="6.33088">
        <ele>469.2</ele>
        <time>2025-04-21T10:45:44Z</time>
      </trkpt>
      <trkpt lat="43.21161" lon="6.33093">
        <ele>468.8</ele>
        <time>2025-04-21T10:45:51.217Z</time>
      </trkpt>
      <trkpt lat="43.21155" lon="6.33097">
        <ele>469.6</ele>
        <time>2025-04-21T10:45:59Z</time>
      </trkpt>
      <trkpt lat="43.2115" lon="6.33102">
        <ele>471.1</ele>
        <time>2025-04-21T10:46:06.499Z</time>
      </trkpt>
      <trkpt lat="43.21145" lon="6.33107">
        <ele>473.5</ele>
        <time>2025-04-21T10:46:14Z</time>
      </trkpt>
      <trkpt lat="43.2114" lon="6.33109">
        <ele>475.9</ele>
        <time>2025-04-21T10:46:20.738Z</time>
      </trkpt>
      <trkpt lat="43.21134" lon="6.33112">
        <ele>477.3</ele>
        <time>2025-04-21T10:46:29Z</time>
      </trkpt>
      <trkpt lat="43.2113" lon="6.33114">
        <ele>478</ele>
        <time>2025-04-21T10:46:37.095Z</time>
      </trkpt>
      <trkpt lat="43.21125" lon="6.33116">
        <ele>478.8</ele>
        <time>2025-04-21T10:46:47Z</time>
      </trkpt>
      <trkpt lat="43.21121" lon="6.33113">
        <ele>477.7</ele>
        <time>2025-04-21T10:47:59Z</time>
      </trkpt>
      <trkpt lat="43.21121" lon="6.33116">
        <ele>478.9</ele>
        <time>2025-04-21T10:49:02Z</time>
      </trkpt>
      <trkpt lat="43.2112" lon="6.33116">
        <ele>478.9</ele>
        <time>2025-04-21T10:50:08Z</time>
      </trkpt>
      <trkpt lat="43.21121" lon="6.33115">
        <ele>478.5</ele>
        <time>2025-04-21T10:50:39Z</time>
      </trkpt>
      <trkpt lat="43.21122" lon="6.33119">
        <ele>480.1</ele>
        <time>2025-04-21T10:51:18Z</time>
      </trkpt>
      <trkpt lat="43.21118" lon="6.33124">
        <ele>482.2</ele>
        <time>2025-04-21T10:51:47Z</time>
      </trkpt>
      <trkpt lat="43.21116" lon="6.33129">
        <ele>484.4</ele>
        <time>2025-04-21T10:51:54.470Z</time>
      </trkpt>
      <trkpt lat="43.21113" lon="6.33135">
        <ele>487.1</ele>
        <time>2025-04-21T10:52:04Z</time>
      </trkpt>
      <trkpt lat="43.21111" lon="6.3314">
        <ele>489.3</ele>
        <time>2025-04-21T10:52:10.151Z</time>
      </trkpt>
      <trkpt lat="43.21108" lon="6.33146">
        <ele>490.5</ele>
        <time>2025-04-21T10:52:18Z</time>
      </trkpt>
      <trkpt lat="43.21105" lon="6.33153">
        <ele>492.1</ele>
        <time>2025-04-21T10:52:27.499Z</time>
      </trkpt>
      <trkpt lat="43.21102" lon="6.3316">
        <ele>493.9</ele>
        <time>2025-04-21T10:52:37Z</time>
      </trkpt>
      <trkpt lat="43.21105" lon="6.33171">
        <ele>497.2</ele>
        <time>2025-04-21T10:52:55Z</time>
      </trkpt>
      <trkpt lat="43.21113" lon="6.33174">
        <ele>497.1</ele>
        <time>2025-04-21T10:53:15Z</time>
      </trkpt>
      <trkpt lat="43.21111" lon="6.3318">
        <ele>498.9</ele>
        <time>2025-04-21T10:53:25.499Z</time>
      </trkpt>
      <trkpt lat="43.21109" lon="6.33186">
        <ele>499.9</ele>
        <time>2025-04-21T10:53:36Z</time>
      </trkpt>
      <trkpt lat="43.21108" lon="6.33193">
        <ele>501.2</ele>
        <time>2025-04-21T10:53:45.999Z</time>
      </trkpt>
      <trkpt lat="43.21107" lon="6.332">
        <ele>502.5</ele>
        <time>2025-04-21T10:53:56Z</time>
      </trkpt>
      <trkpt lat="43.21102" lon="6.33207">
        <ele>504.7</ele>
        <time>2025-04-21T10:54:17Z</time>
      </trkpt>
      <trkpt lat="43.21098" lon="6.33208">
        <ele>505.9</ele>
        <time>2025-04-21T10:54:26.500Z</time>
      </trkpt>
      <trkpt lat="43.21093" lon="6.33209">
        <ele>507.1</ele>
        <time>2025-04-21T10:54:36Z</time>
      </trkpt>
      <trkpt lat="43.2109" lon="6.33214">
        <ele>509</ele>
        <time>2025-04-21T10:54:45.999Z</time>
      </trkpt>
      <trkpt lat="43.21087" lon="6.33219">
        <ele>511.1</ele>
        <time>2025-04-21T10:54:56Z</time>
      </trkpt>
      <trkpt lat="43.21083" lon="6.33224">
        <ele>513.2</ele>
        <time>2025-04-21T10:55:07.843Z</time>
      </trkpt>
      <trkpt lat="43.2108" lon="6.33228">
        <ele>513.9</ele>
        <time>2025-04-21T10:55:17Z</time>
      </trkpt>
      <trkpt lat="43.21077" lon="6.3323">
        <ele>514.3</ele>
        <time>2025-04-21T10:56:31Z</time>
      </trkpt>
      <trkpt lat="43.21077" lon="6.33236">
        <ele>514.9</ele>
        <time>2025-04-21T10:56:38.384Z</time>
      </trkpt>
      <trkpt lat="43.21077" lon="6.33243">
        <ele>515.7</ele>
        <time>2025-04-21T10:56:47Z</time>
      </trkpt>
      <trkpt lat="43.21075" lon="6.3325">
        <ele>516.6</ele>
        <time>2025-04-21T10:56:54.184Z</time>
      </trkpt>
      <trkpt lat="43.21074" lon="6.33257">
        <ele>516.8</ele>
        <time>2025-04-21T10:57:01Z</time>
      </trkpt>
      <trkpt lat="43.21077" lon="6.33263">
        <ele>516.6</ele>
        <time>2025-04-21T10:57:09.500Z</time>
      </trkpt>
      <trkpt lat="43.2108" lon="6.33269">
        <ele>516.3</ele>
        <time>2025-04-21T10:57:18Z</time>
      </trkpt>
      <trkpt lat="43.21083" lon="6.33274">
        <ele>516</ele>
        <time>2025-04-21T10:57:23.317Z</time>
      </trkpt>
      <trkpt lat="43.21085" lon="6.33279">
        <ele>515.6</ele>
        <time>2025-04-21T10:57:28Z</time>
      </trkpt>
      <trkpt lat="43.21088" lon="6.33284">
        <ele>514.9</ele>
        <time>2025-04-21T10:57:32.709Z</time>
      </trkpt>
      <trkpt lat="43.21091" lon="6.3329">
        <ele>514.4</ele>
        <time>2025-04-21T10:57:38Z</time>
      </trkpt>
      <trkpt lat="43.21095" lon="6.333">
        <ele>513.8</ele>
        <time>2025-04-21T10:57:51Z</time>
      </trkpt>
      <trkpt lat="43.21097" lon="6.33306">
        <ele>513.6</ele>
        <time>2025-04-21T10:57:56.231Z</time>
      </trkpt>
      <trkpt lat="43.211" lon="6.33312">
        <ele>513.3</ele>
        <time>2025-04-21T10:58:02Z</time>
      </trkpt>
      <trkpt lat="43.21101" lon="6.33318">
        <ele>513.6</ele>
        <time>2025-04-21T10:58:06.631Z</time>
      </trkpt>
      <trkpt lat="43.21102" lon="6.33325">
        <ele>513.9</ele>
        <time>2025-04-21T10:58:12Z</time>
      </trkpt>
      <trkpt lat="43.21105" lon="6.33332">
        <ele>514</ele>
        <time>2025-04-21T10:58:18.230Z</time>
      </trkpt>
      <trkpt lat="43.21107" lon="6.33339">
        <ele>514.3</ele>
        <time>2025-04-21T10:58:24Z</time>
      </trkpt>
      <trkpt lat="43.21112" lon="6.33341">
        <ele>513.7</ele>
        <time>2025-04-21T10:58:30.052Z</time>
      </trkpt>
      <trkpt lat="43.21116" lon="6.33343">
        <ele>513.2</ele>
        <time>2025-04-21T10:58:35Z</time>
      </trkpt>
      <trkpt lat="43.21121" lon="6.33344">
        <ele>512.5</ele>
        <time>2025-04-21T10:58:40.528Z</time>
      </trkpt>
      <trkpt lat="43.21126" lon="6.33344">
        <ele>511.7</ele>
        <time>2025-04-21T10:58:46Z</time>
      </trkpt>
      <trkpt lat="43.2113" lon="6.33344">
        <ele>511</ele>
        <time>2025-04-21T10:58:51.302Z</time>
      </trkpt>
      <trkpt lat="43.21135" lon="6.33343">
        <ele>510</ele>
        <time>2025-04-21T10:58:58Z</time>
      </trkpt>
      <trkpt lat="43.2114" lon="6.33344">
        <ele>509</ele>
        <time>2025-04-21T10:59:12.961Z</time>
      </trkpt>
      <trkpt lat="43.21144" lon="6.33345">
        <ele>507.3</ele>
        <time>2025-04-21T10:59:25Z</time>
      </trkpt>
      <trkpt lat="43.21147" lon="6.33349">
        <ele>506.7</ele>
        <time>2025-04-21T11:00:47Z</time>
      </trkpt>
      <trkpt lat="43.2115" lon="6.33355">
        <ele>506.8</ele>
        <time>2025-04-21T11:00:59.000Z</time>
      </trkpt>
      <trkpt lat="43.21152" lon="6.3336">
        <ele>507</ele>
        <time>2025-04-21T11:01:11Z</time>
      </trkpt>
      <trkpt lat="43.21155" lon="6.33366">
        <ele>506.5</ele>
        <time>2025-04-21T11:18:06.585Z</time>
      </trkpt>
      <trkpt lat="43.2116" lon="6.3337">
        <ele>505</ele>
        <time>2025-04-21T11:36:35Z</time>
      </trkpt>
      <trkpt lat="43.21168" lon="6.33374">
        <ele>501.2</ele>
        <time>2025-04-21T11:36:50Z</time>
      </trkpt>
      <trkpt lat="43.21166" lon="6.33381">
        <ele>503.7</ele>
        <time>2025-04-21T11:37:28Z</time>
      </trkpt>
      <trkpt lat="43.21168" lon="6.33382">
        <ele>501.6</ele>
        <time>2025-04-21T11:38:51Z</time>
      </trkpt>
      <trkpt lat="43.21168" lon="6.33377">
        <ele>501.3</ele>
        <time>2025-04-21T11:39:50Z</time>
      </trkpt>
      <trkpt lat="43.21165" lon="6.33372">
        <ele>503.4</ele>
        <time>2025-04-21T11:40:01.499Z</time>
      </trkpt>
      <trkpt lat="43.21162" lon="6.33367">
        <ele>504.1</ele>
        <time>2025-04-21T11:40:13Z</time>
      </trkpt>
      <trkpt lat="43.21158" lon="6.33365">
        <ele>505.4</ele>
        <time>2025-04-21T11:40:21.995Z</time>
      </trkpt>
      <trkpt lat="43.21153" lon="6.33363">
        <ele>507</ele>
        <time>2025-04-21T11:40:33Z</time>
      </trkpt>
      <trkpt lat="43.21151" lon="6.33357">
        <ele>506.7</ele>
        <time>2025-04-21T11:40:40.478Z</time>
      </trkpt>
      <trkpt lat="43.21149" lon="6.3335">
        <ele>506</ele>
        <time>2025-04-21T11:40:49Z</time>
      </trkpt>
      <trkpt lat="43.21145" lon="6.33347">
        <ele>507.2</ele>
        <time>2025-04-21T11:40:56.191Z</time>
      </trkpt>
      <trkpt lat="43.21141" lon="6.33343">
        <ele>508.4</ele>
        <time>2025-04-21T11:41:04Z</time>
      </trkpt>
      <trkpt lat="43.21136" lon="6.33342">
        <ele>509.7</ele>
        <time>2025-04-21T11:41:12.000Z</time>
      </trkpt>
      <trkpt lat="43.21131" lon="6.33341">
        <ele>510.4</ele>
        <time>2025-04-21T11:41:20Z</time>
      </trkpt>
      <trkpt lat="43.21126" lon="6.33341">
        <ele>511.3</ele>
        <time>2025-04-21T11:41:31.666Z</time>
      </trkpt>
      <trkpt lat="43.21122" lon="6.33341">
        <ele>512</ele>
        <time>2025-04-21T11:41:41Z</time>
      </trkpt>
      <trkpt lat="43.21117" lon="6.33341">
        <ele>512.8</ele>
        <time>2025-04-21T11:41:48.500Z</time>
      </trkpt>
      <trkpt lat="43.21112" lon="6.33341">
        <ele>513.7</ele>
        <time>2025-04-21T11:41:56Z</time>
      </trkpt>
      <trkpt lat="43.21113" lon="6.33351">
        <ele>514.6</ele>
        <time>2025-04-21T11:42:11Z</time>
      </trkpt>
      <trkpt lat="43.21116" lon="6.33356">
        <ele>514.7</ele>
        <time>2025-04-21T11:42:17.000Z</time>
      </trkpt>
      <trkpt lat="43.21119" lon="6.33361">
        <ele>514.9</ele>
        <time>2025-04-21T11:42:23Z</time>
      </trkpt>
      <trkpt lat="43.21122" lon="6.33367">
        <ele>514.5</ele>
        <time>2025-04-21T11:42:27.454Z</time>
      </trkpt>
      <trkpt lat="43.21126" lon="6.33372">
        <ele>514.1</ele>
        <time>2025-04-21T11:42:32Z</time>
      </trkpt>
      <trkpt lat="43.21131" lon="6.33382">
        <ele>513.7</ele>
        <time>2025-04-21T11:42:40Z</time>
      </trkpt>
      <trkpt lat="43.21136" lon="6.33392">
        <ele>513.5</ele>
        <time>2025-04-21T11:42:47Z</time>
      </trkpt>
      <trkpt lat="43.2114" lon="6.33401">
        <ele>513.5</ele>
        <time>2025-04-21T11:42:54Z</time>
      </trkpt>
      <trkpt lat="43.21142" lon="6.33413">
        <ele>513.8</ele>
        <time>2025-04-21T11:43:02Z</time>
      </trkpt>
      <trkpt lat="43.21143" lon="6.33419">
        <ele>513.7</ele>
        <time>2025-04-21T11:43:06.051Z</time>
      </trkpt>
      <trkpt lat="43.21145" lon="6.33426">
        <ele>513</ele>
        <time>2025-04-21T11:43:11Z</time>
      </trkpt>
      <trkpt lat="43.21146" lon="6.33433">
        <ele>512.5</ele>
        <time>2025-04-21T11:43:15.500Z</time>
      </trkpt>
      <trkpt lat="43.21147" lon="6.3344">
        <ele>512.1</ele>
        <time>2025-04-21T11:43:20Z</time>
      </trkpt>
      <trkpt lat="43.21149" lon="6.33446">
        <ele>511.5</ele>
        <time>2025-04-21T11:43:23.739Z</time>
      </trkpt>
      <trkpt lat="43.21151" lon="6.33453">
        <ele>511.2</ele>
        <time>2025-04-21T11:43:28Z</time>
      </trkpt>
      <trkpt lat="43.21151" lon="6.33459">
        <ele>511.4</ele>
        <time>2025-04-21T11:43:32.153Z</time>
      </trkpt>
      <trkpt lat="43.21151" lon="6.33466">
        <ele>511.6</ele>
        <time>2025-04-21T11:43:37Z</time>
      </trkpt>
      <trkpt lat="43.21151" lon="6.33472">
        <ele>511.8</ele>
        <time>2025-04-21T11:43:41.153Z</time>
      </trkpt>
      <trkpt lat="43.21151" lon="6.33479">
        <ele>511.9</ele>
        <time>2025-04-21T11:43:46Z</time>
      </trkpt>
      <trkpt lat="43.2115" lon="6.33487">
        <ele>512.2</ele>
        <time>2025-04-21T11:43:51.499Z</time>
      </trkpt>
      <trkpt lat="43.21149" lon="6.33495">
        <ele>512.5</ele>
        <time>2025-04-21T11:43:57Z</time>
      </trkpt>
      <trkpt lat="43.21153" lon="6.33502">
        <ele>512</ele>
        <time>2025-04-21T11:44:02.227Z</time>
      </trkpt>
      <trkpt lat="43.21156" lon="6.33509">
        <ele>511.7</ele>
        <time>2025-04-21T11:44:07Z</time>
      </trkpt>
      <trkpt lat="43.21161" lon="6.33514">
        <ele>510.9</ele>
        <time>2025-04-21T11:44:13.666Z</time>
      </trkpt>
      <trkpt lat="43.21165" lon="6.33518">
        <ele>510.3</ele>
        <time>2025-04-21T11:44:19Z</time>
      </trkpt>
      <trkpt lat="43.2117" lon="6.33517">
        <ele>509.2</ele>
        <time>2025-04-21T11:44:26.740Z</time>
      </trkpt>
      <trkpt lat="43.21176" lon="6.33516">
        <ele>507.8</ele>
        <time>2025-04-21T11:44:36Z</time>
      </trkpt>
      <trkpt lat="43.21181" lon="6.33514">
        <ele>506.6</ele>
        <time>2025-04-21T11:44:42.000Z</time>
      </trkpt>
      <trkpt lat="43.21186" lon="6.33512">
        <ele>505.4</ele>
        <time>2025-04-21T11:44:48Z</time>
      </trkpt>
      <trkpt lat="43.21191" lon="6.3351">
        <ele>504.2</ele>
        <time>2025-04-21T11:44:55.105Z</time>
      </trkpt>
      <trkpt lat="43.21196" lon="6.33509">
        <ele>502.8</ele>
        <time>2025-04-21T11:45:02Z</time>
      </trkpt>
      <trkpt lat="43.212" lon="6.33511">
        <ele>501.7</ele>
        <time>2025-04-21T11:45:07.697Z</time>
      </trkpt>
      <trkpt lat="43.21205" lon="6.33514">
        <ele>500.3</ele>
        <time>2025-04-21T11:45:15Z</time>
      </trkpt>
      <trkpt lat="43.21213" lon="6.33516">
        <ele>497.9</ele>
        <time>2025-04-21T11:45:30Z</time>
      </trkpt>
      <trkpt lat="43.21219" lon="6.33521">
        <ele>496.5</ele>
        <time>2025-04-21T11:45:38.500Z</time>
      </trkpt>
      <trkpt lat="43.21225" lon="6.33526">
        <ele>495.2</ele>
        <time>2025-04-21T11:45:47Z</time>
      </trkpt>
      <trkpt lat="43.2123" lon="6.3353">
        <ele>494.4</ele>
        <time>2025-04-21T11:45:52.874Z</time>
      </trkpt>
      <trkpt lat="43.21236" lon="6.33535">
        <ele>493.3</ele>
        <time>2025-04-21T11:46:00Z</time>
      </trkpt>
      <trkpt lat="43.21241" lon="6.3354">
        <ele>492.4</ele>
        <time>2025-04-21T11:46:07.500Z</time>
      </trkpt>
      <trkpt lat="43.21246" lon="6.33545">
        <ele>491.5</ele>
        <time>2025-04-21T11:46:15Z</time>
      </trkpt>
      <trkpt lat="43.21251" lon="6.33552">
        <ele>490.6</ele>
        <time>2025-04-21T11:46:22.254Z</time>
      </trkpt>
      <trkpt lat="43.21256" lon="6.33558">
        <ele>489.4</ele>
        <time>2025-04-21T11:46:29Z</time>
      </trkpt>
      <trkpt lat="43.21259" lon="6.33566">
        <ele>488.6</ele>
        <time>2025-04-21T11:46:34.531Z</time>
      </trkpt>
      <trkpt lat="43.21263" lon="6.33573">
        <ele>487.7</ele>
        <time>2025-04-21T11:46:40Z</time>
      </trkpt>
      <trkpt lat="43.21266" lon="6.3358">
        <ele>487.1</ele>
        <time>2025-04-21T11:46:45.274Z</time>
      </trkpt>
      <trkpt lat="43.21269" lon="6.33586">
        <ele>486.8</ele>
        <time>2025-04-21T11:46:50Z</time>
      </trkpt>
      <trkpt lat="43.21272" lon="6.33592">
        <ele>486.7</ele>
        <time>2025-04-21T11:46:54.949Z</time>
      </trkpt>
      <trkpt lat="43.21276" lon="6.33597">
        <ele>486.3</ele>
        <time>2025-04-21T11:47:00Z</time>
      </trkpt>
      <trkpt lat="43.21281" lon="6.336">
        <ele>485.7</ele>
        <time>2025-04-21T11:47:05.823Z</time>
      </trkpt>
      <trkpt lat="43.21286" lon="6.33604">
        <ele>485.2</ele>
        <time>2025-04-21T11:47:12Z</time>
      </trkpt>
      <trkpt lat="43.21289" lon="6.33608">
        <ele>484.8</ele>
        <time>2025-04-21T11:47:16.796Z</time>
      </trkpt>
      <trkpt lat="43.21293" lon="6.33613">
        <ele>484.2</ele>
        <time>2025-04-21T11:47:23Z</time>
      </trkpt>
      <trkpt lat="43.21298" lon="6.33616">
        <ele>483.1</ele>
        <time>2025-04-21T11:47:28.500Z</time>
      </trkpt>
      <trkpt lat="43.21303" lon="6.33619">
        <ele>481.9</ele>
        <time>2025-04-21T11:47:34Z</time>
      </trkpt>
      <trkpt lat="43.21305" lon="6.33609">
        <ele>482.1</ele>
        <time>2025-04-21T11:48:01Z</time>
      </trkpt>
      <trkpt lat="43.21308" lon="6.33603">
        <ele>481.4</ele>
        <time>2025-04-21T11:48:07.143Z</time>
      </trkpt>
      <trkpt lat="43.21311" lon="6.33596">
        <ele>480.6</ele>
        <time>2025-04-21T11:48:14Z</time>
      </trkpt>
      <trkpt lat="43.21312" lon="6.33587">
        <ele>480.4</ele>
        <time>2025-04-21T11:48:21.500Z</time>
      </trkpt>
      <trkpt lat="43.21313" lon="6.33578">
        <ele>479.1</ele>
        <time>2025-04-21T11:48:29Z</time>
      </trkpt>
      <trkpt lat="43.21313" lon="6.33571">
        <ele>477.8</ele>
        <time>2025-04-21T11:48:36.000Z</time>
      </trkpt>
      <trkpt lat="43.21313" lon="6.33564">
        <ele>476.5</ele>
        <time>2025-04-21T11:48:43Z</time>
      </trkpt>
      <trkpt lat="43.21313" lon="6.33557">
        <ele>475.1</ele>
        <time>2025-04-21T11:48:53.230Z</time>
      </trkpt>
      <trkpt lat="43.21313" lon="6.33551">
        <ele>471.9</ele>
        <time>2025-04-21T11:49:02Z</time>
      </trkpt>
      <trkpt lat="43.21313" lon="6.3355">
        <ele>471.2</ele>
        <time>2025-04-21T11:49:52Z</time>
      </trkpt>
      <trkpt lat="43.21313" lon="6.33549">
        <ele>470.5</ele>
        <time>2025-04-21T11:50:35Z</time>
      </trkpt>
      <trkpt lat="43.2131" lon="6.33557">
        <ele>476</ele>
        <time>2025-04-21T11:51:09Z</time>
      </trkpt>
      <trkpt lat="43.21309" lon="6.33564">
        <ele>477.6</ele>
        <time>2025-04-21T11:51:17.311Z</time>
      </trkpt>
      <trkpt lat="43.21307" lon="6.3357">
        <ele>479.2</ele>
        <time>2025-04-21T11:51:25Z</time>
      </trkpt>
      <trkpt lat="43.2131" lon="6.33579">
        <ele>480.1</ele>
        <time>2025-04-21T11:52:13Z</time>
      </trkpt>
      <trkpt lat="43.21308" lon="6.33585">
        <ele>481.4</ele>
        <time>2025-04-21T11:52:19.725Z</time>
      </trkpt>
      <trkpt lat="43.21307" lon="6.33591">
        <ele>481.6</ele>
        <time>2025-04-21T11:52:26Z</time>
      </trkpt>
      <trkpt lat="43.21306" lon="6.33599">
        <ele>481.9</ele>
        <time>2025-04-21T11:52:33.517Z</time>
      </trkpt>
      <trkpt lat="43.21306" lon="6.33606">
        <ele>481.9</ele>
        <time>2025-04-21T11:52:40Z</time>
      </trkpt>
      <trkpt lat="43.21307" lon="6.33613">
        <ele>481.5</ele>
        <time>2025-04-21T11:52:47.065Z</time>
      </trkpt>
      <trkpt lat="43.21307" lon="6.3362">
        <ele>481</ele>
        <time>2025-04-21T11:52:54Z</time>
      </trkpt>
      <trkpt lat="43.21311" lon="6.33624">
        <ele>479.8</ele>
        <time>2025-04-21T11:53:02.000Z</time>
      </trkpt>
      <trkpt lat="43.21315" lon="6.33628">
        <ele>478.6</ele>
        <time>2025-04-21T11:53:10Z</time>
      </trkpt>
      <trkpt lat="43.21317" lon="6.33634">
        <ele>477.8</ele>
        <time>2025-04-21T11:53:15.608Z</time>
      </trkpt>
      <trkpt lat="43.21319" lon="6.33641">
        <ele>477</ele>
        <time>2025-04-21T11:53:22Z</time>
      </trkpt>
      <trkpt lat="43.21322" lon="6.33646">
        <ele>476.1</ele>
        <time>2025-04-21T11:53:27.369Z</time>
      </trkpt>
      <trkpt lat="43.21326" lon="6.3365">
        <ele>475.1</ele>
        <time>2025-04-21T11:53:33Z</time>
      </trkpt>
      <trkpt lat="43.21329" lon="6.33655">
        <ele>474.3</ele>
        <time>2025-04-21T11:53:37.785Z</time>
      </trkpt>
      <trkpt lat="43.21331" lon="6.3366">
        <ele>473.7</ele>
        <time>2025-04-21T11:53:42Z</time>
      </trkpt>
      <trkpt lat="43.21334" lon="6.33667">
        <ele>472.9</ele>
        <time>2025-04-21T11:53:46.965Z</time>
      </trkpt>
      <trkpt lat="43.21336" lon="6.33673">
        <ele>472.8</ele>
        <time>2025-04-21T11:53:51Z</time>
      </trkpt>
      <trkpt lat="43.21338" lon="6.33679">
        <ele>472.8</ele>
        <time>2025-04-21T11:53:55.500Z</time>
      </trkpt>
      <trkpt lat="43.2134" lon="6.33685">
        <ele>472.7</ele>
        <time>2025-04-21T11:54:00Z</time>
      </trkpt>
      <trkpt lat="43.21341" lon="6.33692">
        <ele>472.8</ele>
        <time>2025-04-21T11:54:06.500Z</time>
      </trkpt>
      <trkpt lat="43.21342" lon="6.33699">
        <ele>472.5</ele>
        <time>2025-04-21T11:54:13Z</time>
      </trkpt>
      <trkpt lat="43.21344" lon="6.33707">
        <ele>471.9</ele>
        <time>2025-04-21T11:54:18.814Z</time>
      </trkpt>
      <trkpt lat="43.21347" lon="6.33715">
        <ele>471.3</ele>
        <time>2025-04-21T11:54:25Z</time>
      </trkpt>
      <trkpt lat="43.2135" lon="6.33723">
        <ele>470.9</ele>
        <time>2025-04-21T11:54:30.986Z</time>
      </trkpt>
      <trkpt lat="43.21354" lon="6.33732">
        <ele>471.2</ele>
        <time>2025-04-21T11:54:38Z</time>
      </trkpt>
      <trkpt lat="43.21355" lon="6.33742">
        <ele>471.9</ele>
        <time>2025-04-21T11:54:43.919Z</time>
      </trkpt>
      <trkpt lat="43.21357" lon="6.33752">
        <ele>472.4</ele>
        <time>2025-04-21T11:54:50Z</time>
      </trkpt>
      <trkpt lat="43.21358" lon="6.3376">
        <ele>472.6</ele>
        <time>2025-04-21T11:54:56.000Z</time>
      </trkpt>
      <trkpt lat="43.21359" lon="6.33768">
        <ele>472.8</ele>
        <time>2025-04-21T11:55:02Z</time>
      </trkpt>
      <trkpt lat="43.21365" lon="6.33775">
        <ele>472.6</ele>
        <time>2025-04-21T11:55:09.341Z</time>
      </trkpt>
      <trkpt lat="43.2137" lon="6.33782">
        <ele>472.5</ele>
        <time>2025-04-21T11:55:16Z</time>
      </trkpt>
      <trkpt lat="43.21376" lon="6.33786">
        <ele>472.1</ele>
        <time>2025-04-21T11:55:23.308Z</time>
      </trkpt>
      <trkpt lat="43.21382" lon="6.33791">
        <ele>471.6</ele>
        <time>2025-04-21T11:55:31Z</time>
      </trkpt>
      <trkpt lat="43.2138" lon="6.33794">
        <ele>471.8</ele>
        <time>2025-04-21T11:56:01Z</time>
      </trkpt>
      <trkpt lat="43.21381" lon="6.33801">
        <ele>471.8</ele>
        <time>2025-04-21T11:56:47Z</time>
      </trkpt>
      <trkpt lat="43.21384" lon="6.33804">
        <ele>471.5</ele>
        <time>2025-04-21T11:57:32Z</time>
      </trkpt>
      <trkpt lat="43.21387" lon="6.3381">
        <ele>471.8</ele>
        <time>2025-04-21T11:57:42.000Z</time>
      </trkpt>
      <trkpt lat="43.21389" lon="6.33815">
        <ele>472.4</ele>
        <time>2025-04-21T11:57:52Z</time>
      </trkpt>
      <trkpt lat="43.21395" lon="6.33816">
        <ele>472.5</ele>
        <time>2025-04-21T11:58:21Z</time>
      </trkpt>
      <trkpt lat="43.214" lon="6.3381">
        <ele>471.6</ele>
        <time>2025-04-21T11:58:44Z</time>
      </trkpt>
      <trkpt lat="43.214" lon="6.33808">
        <ele>471.4</ele>
        <time>2025-04-21T11:59:44Z</time>
      </trkpt>
      <trkpt lat="43.21404" lon="6.33805">
        <ele>471</ele>
        <time>2025-04-21T11:59:52.865Z</time>
      </trkpt>
      <trkpt lat="43.21407" lon="6.33801">
        <ele>470.8</ele>
        <time>2025-04-21T12:00:01Z</time>
      </trkpt>
      <trkpt lat="43.2141" lon="6.33796">
        <ele>470.5</ele>
        <time>2025-04-21T12:00:33Z</time>
      </trkpt>
      <trkpt lat="43.21412" lon="6.33789">
        <ele>470</ele>
        <time>2025-04-21T12:01:00Z</time>
      </trkpt>
      <trkpt lat="43.21419" lon="6.33787">
        <ele>469.9</ele>
        <time>2025-04-21T12:01:31Z</time>
      </trkpt>
      <trkpt lat="43.21415" lon="6.3378">
        <ele>469.3</ele>
        <time>2025-04-21T12:01:55Z</time>
      </trkpt>
      <trkpt lat="43.21417" lon="6.33775">
        <ele>469</ele>
        <time>2025-04-21T12:02:02.492Z</time>
      </trkpt>
      <trkpt lat="43.2142" lon="6.3377">
        <ele>469.3</ele>
        <time>2025-04-21T12:02:11Z</time>
      </trkpt>
      <trkpt lat="43.21414" lon="6.3377">
        <ele>469.1</ele>
        <time>2025-04-21T12:02:38Z</time>
      </trkpt>
      <trkpt lat="43.21407" lon="6.33766">
        <ele>469</ele>
        <time>2025-04-21T12:03:04Z</time>
      </trkpt>
      <trkpt lat="43.21406" lon="6.33763">
        <ele>468.7</ele>
        <time>2025-04-21T12:03:39Z</time>
      </trkpt>
      <trkpt lat="43.21408" lon="6.33771">
        <ele>469.2</ele>
        <time>2025-04-21T12:04:18Z</time>
      </trkpt>
      <trkpt lat="43.21404" lon="6.33768">
        <ele>469.1</ele>
        <time>2025-04-21T12:04:55Z</time>
      </trkpt>
      <trkpt lat="43.2141" lon="6.33765">
        <ele>468.9</ele>
        <time>2025-04-21T12:05:22Z</time>
      </trkpt>
      <trkpt lat="43.21415" lon="6.33767">
        <ele>469</ele>
        <time>2025-04-21T12:05:34.354Z</time>
      </trkpt>
      <trkpt lat="43.21419" lon="6.33768">
        <ele>469.2</ele>
        <time>2025-04-21T12:05:44Z</time>
      </trkpt>
      <trkpt lat="43.21423" lon="6.33763">
        <ele>469.6</ele>
        <time>2025-04-21T12:06:13Z</time>
      </trkpt>
      <trkpt lat="43.21431" lon="6.33768">
        <ele>470.4</ele>
        <time>2025-04-21T12:06:35Z</time>
      </trkpt>
      <trkpt lat="43.21435" lon="6.33776">
        <ele>470.9</ele>
        <time>2025-04-21T12:06:44.000Z</time>
      </trkpt>
      <trkpt lat="43.21439" lon="6.33784">
        <ele>471.9</ele>
        <time>2025-04-21T12:06:53Z</time>
      </trkpt>
      <trkpt lat="43.21443" lon="6.33789">
        <ele>472.7</ele>
        <time>2025-04-21T12:07:03.264Z</time>
      </trkpt>
      <trkpt lat="43.21448" lon="6.33794">
        <ele>473.2</ele>
        <time>2025-04-21T12:07:15Z</time>
      </trkpt>
      <trkpt lat="43.21454" lon="6.33793">
        <ele>473.3</ele>
        <time>2025-04-21T12:07:25.077Z</time>
      </trkpt>
      <trkpt lat="43.21461" lon="6.33791">
        <ele>473.3</ele>
        <time>2025-04-21T12:07:37Z</time>
      </trkpt>
      <trkpt lat="43.21464" lon="6.33785">
        <ele>473</ele>
        <time>2025-04-21T12:07:43.611Z</time>
      </trkpt>
      <trkpt lat="43.21468" lon="6.33779">
        <ele>472.9</ele>
        <time>2025-04-21T12:07:51Z</time>
      </trkpt>
      <trkpt lat="43.21473" lon="6.33771">
        <ele>472.8</ele>
        <time>2025-04-21T12:08:04Z</time>
      </trkpt>
      <trkpt lat="43.21477" lon="6.33767">
        <ele>472.6</ele>
        <time>2025-04-21T12:08:12.329Z</time>
      </trkpt>
      <trkpt lat="43.21481" lon="6.33764">
        <ele>472.5</ele>
        <time>2025-04-21T12:08:20Z</time>
      </trkpt>
      <trkpt lat="43.21488" lon="6.33757">
        <ele>472.3</ele>
        <time>2025-04-21T12:08:42Z</time>
      </trkpt>
      <trkpt lat="43.2149" lon="6.33755">
        <ele>472.2</ele>
        <time>2025-04-21T12:09:07Z</time>
      </trkpt>
      <trkpt lat="43.21494" lon="6.3375">
        <ele>472</ele>
        <time>2025-04-21T12:09:17.445Z</time>
      </trkpt>
      <trkpt lat="43.21498" lon="6.33746">
        <ele>472</ele>
        <time>2025-04-21T12:09:27Z</time>
      </trkpt>
      <trkpt lat="43.21501" lon="6.3374">
        <ele>472</ele>
        <time>2025-04-21T12:09:35.465Z</time>
      </trkpt>
      <trkpt lat="43.21504" lon="6.33735">
        <ele>472</ele>
        <time>2025-04-21T12:09:43Z</time>
      </trkpt>
      <trkpt lat="43.21511" lon="6.33735">
        <ele>472</ele>
        <time>2025-04-21T12:10:00Z</time>
      </trkpt>
      <trkpt lat="43.21515" lon="6.33727">
        <ele>472</ele>
        <time>2025-04-21T12:10:29Z</time>
      </trkpt>
      <trkpt lat="43.21519" lon="6.33721">
        <ele>472</ele>
        <time>2025-04-21T12:10:37.000Z</time>
      </trkpt>
      <trkpt lat="43.21523" lon="6.33715">
        <ele>472</ele>
        <time>2025-04-21T12:10:45Z</time>
      </trkpt>
      <trkpt lat="43.21527" lon="6.3371">
        <ele>472</ele>
        <time>2025-04-21T12:10:52.247Z</time>
      </trkpt>
      <trkpt lat="43.21532" lon="6.33706">
        <ele>472.2</ele>
        <time>2025-04-21T12:11:00Z</time>
      </trkpt>
      <trkpt lat="43.21537" lon="6.33706">
        <ele>472.3</ele>
        <time>2025-04-21T12:11:11.581Z</time>
      </trkpt>
      <trkpt lat="43.21541" lon="6.33707">
        <ele>472.5</ele>
        <time>2025-04-21T12:11:21Z</time>
      </trkpt>
      <trkpt lat="43.21542" lon="6.3371">
        <ele>472.5</ele>
        <time>2025-04-21T12:11:47Z</time>
      </trkpt>
      <trkpt lat="43.21547" lon="6.33712">
        <ele>472.7</ele>
        <time>2025-04-21T12:11:50.369Z</time>
      </trkpt>
      <trkpt lat="43.21551" lon="6.33713">
        <ele>472.8</ele>
        <time>2025-04-21T12:11:52.999Z</time>
      </trkpt>
      <trkpt lat="43.21556" lon="6.33715">
        <ele>473</ele>
        <time>2025-04-21T12:11:56.369Z</time>
      </trkpt>
      <trkpt lat="43.2156" lon="6.33716">
        <ele>473.1</ele>
        <time>2025-04-21T12:11:59Z</time>
      </trkpt>
      <trkpt lat="43.21568" lon="6.33721">
        <ele>473.4</ele>
        <time>2025-04-21T12:12:09Z</time>
      </trkpt>
      <trkpt lat="43.21573" lon="6.33725">
        <ele>473.6</ele>
        <time>2025-04-21T12:12:14.500Z</time>
      </trkpt>
      <trkpt lat="43.21578" lon="6.33729">
        <ele>473.6</ele>
        <time>2025-04-21T12:12:20Z</time>
      </trkpt>
      <trkpt lat="43.21583" lon="6.33732">
        <ele>473.6</ele>
        <time>2025-04-21T12:12:25.768Z</time>
      </trkpt>
      <trkpt lat="43.21587" lon="6.33736">
        <ele>473.6</ele>
        <time>2025-04-21T12:12:31Z</time>
      </trkpt>
      <trkpt lat="43.21591" lon="6.33738">
        <ele>473.6</ele>
        <time>2025-04-21T12:12:35.382Z</time>
      </trkpt>
      <trkpt lat="43.21596" lon="6.33741">
        <ele>473.6</ele>
        <time>2025-04-21T12:12:41Z</time>
      </trkpt>
      <trkpt lat="43.216" lon="6.33744">
        <ele>473.7</ele>
        <time>2025-04-21T12:12:46.000Z</time>
      </trkpt>
      <trkpt lat="43.21604" lon="6.33747">
        <ele>473.8</ele>
        <time>2025-04-21T12:12:51Z</time>
      </trkpt>
      <trkpt lat="43.21611" lon="6.33752">
        <ele>473.9</ele>
        <time>2025-04-21T12:13:01Z</time>
      </trkpt>
      <trkpt lat="43.21615" lon="6.33756">
        <ele>473.9</ele>
        <time>2025-04-21T12:13:06.707Z</time>
      </trkpt>
      <trkpt lat="43.2162" lon="6.33759">
        <ele>474</ele>
        <time>2025-04-21T12:13:13Z</time>
      </trkpt>
      <trkpt lat="43.21625" lon="6.33761">
        <ele>474.1</ele>
        <time>2025-04-21T12:13:44Z</time>
      </trkpt>
      <trkpt lat="43.21628" lon="6.33762">
        <ele>474.2</ele>
        <time>2025-04-21T12:14:21Z</time>
      </trkpt>
      <trkpt lat="43.21635" lon="6.3376">
        <ele>474.5</ele>
        <time>2025-04-21T12:15:08Z</time>
      </trkpt>
      <trkpt lat="43.21631" lon="6.33756">
        <ele>474.5</ele>
        <time>2025-04-21T12:15:37Z</time>
      </trkpt>
      <trkpt lat="43.2163" lon="6.33758">
        <ele>474.4</ele>
        <time>2025-04-21T12:16:15Z</time>
      </trkpt>
      <trkpt lat="43.21638" lon="6.33759">
        <ele>474.6</ele>
        <time>2025-04-21T12:16:26Z</time>
      </trkpt>
      <trkpt lat="43.21642" lon="6.33757">
        <ele>474.9</ele>
        <time>2025-04-21T12:16:26.659Z</time>
      </trkpt>
      <trkpt lat="43.21637" lon="6.33755">
        <ele>474.8</ele>
        <time>2025-04-21T12:16:27.556Z</time>
      </trkpt>
      <trkpt lat="43.21631" lon="6.33752">
        <ele>474.6</ele>
        <time>2025-04-21T12:16:28.453Z</time>
      </trkpt>
      <trkpt lat="43.21626" lon="6.33754">
        <ele>474.4</ele>
        <time>2025-04-21T12:16:29.259Z</time>
      </trkpt>
      <trkpt lat="43.21621" lon="6.33756">
        <ele>474.1</ele>
        <time>2025-04-21T12:16:30.065Z</time>
      </trkpt>
      <trkpt lat="43.21617" lon="6.33752">
        <ele>474.1</ele>
        <time>2025-04-21T12:16:30.927Z</time>
      </trkpt>
      <trkpt lat="43.21612" lon="6.33747">
        <ele>474</ele>
        <time>2025-04-21T12:16:31.789Z</time>
      </trkpt>
      <trkpt lat="43.21605" lon="6.33744">
        <ele>473.8</ele>
        <time>2025-04-21T12:16:32.924Z</time>
      </trkpt>
      <trkpt lat="43.21598" lon="6.33741">
        <ele>473.7</ele>
        <time>2025-04-21T12:16:34.060Z</time>
      </trkpt>
      <trkpt lat="43.21593" lon="6.33737">
        <ele>473.7</ele>
        <time>2025-04-21T12:16:34.986Z</time>
      </trkpt>
      <trkpt lat="43.21588" lon="6.33732">
        <ele>473.7</ele>
        <time>2025-04-21T12:16:35.912Z</time>
      </trkpt>
      <trkpt lat="43.21582" lon="6.33727">
        <ele>473.8</ele>
        <time>2025-04-21T12:16:37Z</time>
      </trkpt>
      <trkpt lat="43.21574" lon="6.33723">
        <ele>473.6</ele>
        <time>2025-04-21T12:16:42.235Z</time>
      </trkpt>
      <trkpt lat="43.21568" lon="6.33719">
        <ele>473.4</ele>
        <time>2025-04-21T12:16:46.337Z</time>
      </trkpt>
      <trkpt lat="43.2156" lon="6.33715">
        <ele>473.1</ele>
        <time>2025-04-21T12:16:51.573Z</time>
      </trkpt>
      <trkpt lat="43.21552" lon="6.33711">
        <ele>472.9</ele>
        <time>2025-04-21T12:16:56.809Z</time>
      </trkpt>
      <trkpt lat="43.21548" lon="6.3371">
        <ele>472.7</ele>
        <time>2025-04-21T12:16:59.612Z</time>
      </trkpt>
      <trkpt lat="43.21543" lon="6.33709">
        <ele>472.5</ele>
        <time>2025-04-21T12:17:02.415Z</time>
      </trkpt>
      <trkpt lat="43.2154" lon="6.337">
        <ele>472.4</ele>
        <time>2025-04-21T12:17:06.850Z</time>
      </trkpt>
      <trkpt lat="43.21546" lon="6.33695">
        <ele>472.6</ele>
        <time>2025-04-21T12:17:11.035Z</time>
      </trkpt>
      <trkpt lat="43.21551" lon="6.33689">
        <ele>472.8</ele>
        <time>2025-04-21T12:17:15.220Z</time>
      </trkpt>
      <trkpt lat="43.21556" lon="6.33685">
        <ele>473</ele>
        <time>2025-04-21T12:17:18.644Z</time>
      </trkpt>
      <trkpt lat="43.2156" lon="6.3368">
        <ele>472.9</ele>
        <time>2025-04-21T12:17:22.068Z</time>
      </trkpt>
      <trkpt lat="43.21565" lon="6.33677">
        <ele>472.8</ele>
        <time>2025-04-21T12:17:25.144Z</time>
      </trkpt>
      <trkpt lat="43.21569" lon="6.33674">
        <ele>472.6</ele>
        <time>2025-04-21T12:17:28.220Z</time>
      </trkpt>
      <trkpt lat="43.21575" lon="6.33668">
        <ele>472.3</ele>
        <time>2025-04-21T12:17:32.785Z</time>
      </trkpt>
      <trkpt lat="43.2158" lon="6.33663">
        <ele>471.9</ele>
        <time>2025-04-21T12:17:36.589Z</time>
      </trkpt>
      <trkpt lat="43.21588" lon="6.33659">
        <ele>471.4</ele>
        <time>2025-04-21T12:17:41.825Z</time>
      </trkpt>
      <trkpt lat="43.21594" lon="6.3366">
        <ele>471.5</ele>
        <time>2025-04-21T12:17:45.214Z</time>
      </trkpt>
      <trkpt lat="43.21599" lon="6.3366">
        <ele>471.5</ele>
        <time>2025-04-21T12:17:48.603Z</time>
      </trkpt>
      <trkpt lat="43.21605" lon="6.33657">
        <ele>471.3</ele>
        <time>2025-04-21T12:17:52.242Z</time>
      </trkpt>
      <trkpt lat="43.2161" lon="6.33654">
        <ele>471.1</ele>
        <time>2025-04-21T12:17:55.881Z</time>
      </trkpt>
      <trkpt lat="43.21618" lon="6.33652">
        <ele>471.7</ele>
        <time>2025-04-21T12:18:00.627Z</time>
      </trkpt>
      <trkpt lat="43.21625" lon="6.33649">
        <ele>472.5</ele>
        <time>2025-04-21T12:18:05.373Z</time>
      </trkpt>
      <trkpt lat="43.21633" lon="6.33651">
        <ele>473.6</ele>
        <time>2025-04-21T12:18:10.034Z</time>
      </trkpt>
      <trkpt lat="43.2164" lon="6.33652">
        <ele>474.6</ele>
        <time>2025-04-21T12:18:14.695Z</time>
      </trkpt>
      <trkpt lat="43.21645" lon="6.33655">
        <ele>475.1</ele>
        <time>2025-04-21T12:18:18.051Z</time>
      </trkpt>
      <trkpt lat="43.2165" lon="6.33658">
        <ele>475.6</ele>
        <time>2025-04-21T12:18:21.407Z</time>
      </trkpt>
      <trkpt lat="43.21655" lon="6.33663">
        <ele>476.1</ele>
        <time>2025-04-21T12:18:24.968Z</time>
      </trkpt>
      <trkpt lat="43.21659" lon="6.33668">
        <ele>476.4</ele>
        <time>2025-04-21T12:18:28.529Z</time>
      </trkpt>
      <trkpt lat="43.21663" lon="6.33675">
        <ele>476.7</ele>
        <time>2025-04-21T12:18:32.342Z</time>
      </trkpt>
      <trkpt lat="43.21667" lon="6.33681">
        <ele>477</ele>
        <time>2025-04-21T12:18:36.155Z</time>
      </trkpt>
      <trkpt lat="43.21671" lon="6.33686">
        <ele>477.3</ele>
        <time>2025-04-21T12:18:39.104Z</time>
      </trkpt>
      <trkpt lat="43.21674" lon="6.3369">
        <ele>477.6</ele>
        <time>2025-04-21T12:18:42.053Z</time>
      </trkpt>
      <trkpt lat="43.21678" lon="6.33699">
        <ele>477.7</ele>
        <time>2025-04-21T12:18:46.778Z</time>
      </trkpt>
      <trkpt lat="43.21685" lon="6.33705">
        <ele>478</ele>
        <time>2025-04-21T12:18:51.596Z</time>
      </trkpt>
      <trkpt lat="43.21691" lon="6.33711">
        <ele>478.2</ele>
        <time>2025-04-21T12:18:56.414Z</time>
      </trkpt>
      <trkpt lat="43.21697" lon="6.33717">
        <ele>478.3</ele>
        <time>2025-04-21T12:19:00.599Z</time>
      </trkpt>
      <trkpt lat="43.21702" lon="6.33722">
        <ele>478.3</ele>
        <time>2025-04-21T12:19:04.785Z</time>
      </trkpt>
      <trkpt lat="43.21706" lon="6.33726">
        <ele>478.3</ele>
        <time>2025-04-21T12:19:07.586Z</time>
      </trkpt>
      <trkpt lat="43.21709" lon="6.3373">
        <ele>478.2</ele>
        <time>2025-04-21T12:19:10.388Z</time>
      </trkpt>
      <trkpt lat="43.21712" lon="6.33733">
        <ele>478.2</ele>
        <time>2025-04-21T12:19:12.671Z</time>
      </trkpt>
      <trkpt lat="43.21719" lon="6.3374">
        <ele>478.2</ele>
        <time>2025-04-21T12:19:18Z</time>
      </trkpt>
      <trkpt lat="43.21725" lon="6.33741">
        <ele>478.6</ele>
        <time>2025-04-21T12:19:58Z</time>
      </trkpt>
      <trkpt lat="43.2172" lon="6.33733">
        <ele>478.5</ele>
        <time>2025-04-21T12:20:18Z</time>
      </trkpt>
      <trkpt lat="43.21724" lon="6.33733">
        <ele>478.8</ele>
        <time>2025-04-21T12:20:41Z</time>
      </trkpt>
      <trkpt lat="43.21722" lon="6.33725">
        <ele>478.9</ele>
        <time>2025-04-21T12:20:58Z</time>
      </trkpt>
      <trkpt lat="43.21723" lon="6.33713">
        <ele>480.1</ele>
        <time>2025-04-21T12:21:22Z</time>
      </trkpt>
      <trkpt lat="43.21723" lon="6.33706">
        <ele>480.8</ele>
        <time>2025-04-21T12:21:40Z</time>
      </trkpt>
      <trkpt lat="43.21722" lon="6.33705">
        <ele>480.8</ele>
        <time>2025-04-21T12:22:05Z</time>
      </trkpt>
      <trkpt lat="43.21727" lon="6.33714">
        <ele>480.4</ele>
        <time>2025-04-21T12:22:21Z</time>
      </trkpt>
      <trkpt lat="43.21727" lon="6.33707">
        <ele>481.1</ele>
        <time>2025-04-21T12:22:44Z</time>
      </trkpt>
      <trkpt lat="43.2173" lon="6.33708">
        <ele>481.2</ele>
        <time>2025-04-21T12:23:21Z</time>
      </trkpt>
      <trkpt lat="43.21734" lon="6.33707">
        <ele>481.7</ele>
        <time>2025-04-21T12:23:57Z</time>
      </trkpt>
      <trkpt lat="43.2173" lon="6.33701">
        <ele>481.9</ele>
        <time>2025-04-21T12:24:30Z</time>
      </trkpt>
      <trkpt lat="43.21729" lon="6.33697">
        <ele>482.2</ele>
        <time>2025-04-21T12:24:51Z</time>
      </trkpt>
      <trkpt lat="43.21732" lon="6.33707">
        <ele>481.5</ele>
        <time>2025-04-21T12:25:11Z</time>
      </trkpt>
      <trkpt lat="43.21736" lon="6.33709">
        <ele>481.7</ele>
        <time>2025-04-21T12:25:34Z</time>
      </trkpt>
      <trkpt lat="43.21737" lon="6.33721">
        <ele>480.7</ele>
        <time>2025-04-21T12:25:52Z</time>
      </trkpt>
      <trkpt lat="43.21738" lon="6.33728">
        <ele>480.5</ele>
        <time>2025-04-21T12:26:01.250Z</time>
      </trkpt>
      <trkpt lat="43.2174" lon="6.33735">
        <ele>480.5</ele>
        <time>2025-04-21T12:26:11Z</time>
      </trkpt>
      <trkpt lat="43.21744" lon="6.33742">
        <ele>480.6</ele>
        <time>2025-04-21T12:26:20.900Z</time>
      </trkpt>
      <trkpt lat="43.21747" lon="6.33748">
        <ele>480.7</ele>
        <time>2025-04-21T12:26:29Z</time>
      </trkpt>
      <trkpt lat="43.21751" lon="6.33752">
        <ele>480.9</ele>
        <time>2025-04-21T12:27:03Z</time>
      </trkpt>
      <trkpt lat="43.21756" lon="6.33757">
        <ele>480.9</ele>
        <time>2025-04-21T12:27:32Z</time>
      </trkpt>
      <trkpt lat="43.21762" lon="6.33758">
        <ele>481.3</ele>
        <time>2025-04-21T12:27:40.169Z</time>
      </trkpt>
      <trkpt lat="43.21767" lon="6.33759">
        <ele>481.6</ele>
        <time>2025-04-21T12:27:47Z</time>
      </trkpt>
      <trkpt lat="43.21773" lon="6.33762">
        <ele>481.8</ele>
        <time>2025-04-21T12:27:56.151Z</time>
      </trkpt>
      <trkpt lat="43.21779" lon="6.33764">
        <ele>482.1</ele>
        <time>2025-04-21T12:28:05Z</time>
      </trkpt>
      <trkpt lat="43.21785" lon="6.33766">
        <ele>482.2</ele>
        <time>2025-04-21T12:28:11.487Z</time>
      </trkpt>
      <trkpt lat="43.21792" lon="6.33768">
        <ele>482.4</ele>
        <time>2025-04-21T12:28:19Z</time>
      </trkpt>
      <trkpt lat="43.21799" lon="6.33774">
        <ele>482.1</ele>
        <time>2025-04-21T12:28:40Z</time>
      </trkpt>
      <trkpt lat="43.21805" lon="6.33776">
        <ele>482.2</ele>
        <time>2025-04-21T12:28:48.136Z</time>
      </trkpt>
      <trkpt lat="43.2181" lon="6.33778">
        <ele>482.3</ele>
        <time>2025-04-21T12:28:55Z</time>
      </trkpt>
      <trkpt lat="43.21817" lon="6.33779">
        <ele>482.7</ele>
        <time>2025-04-21T12:29:00.952Z</time>
      </trkpt>
      <trkpt lat="43.21824" lon="6.33781">
        <ele>483.1</ele>
        <time>2025-04-21T12:29:07Z</time>
      </trkpt>
      <trkpt lat="43.2183" lon="6.33782">
        <ele>483.5</ele>
        <time>2025-04-21T12:29:12.955Z</time>
      </trkpt>
      <trkpt lat="43.21837" lon="6.33784">
        <ele>483.7</ele>
        <time>2025-04-21T12:29:20Z</time>
      </trkpt>
      <trkpt lat="43.21843" lon="6.33786">
        <ele>483.8</ele>
        <time>2025-04-21T12:29:26.500Z</time>
      </trkpt>
      <trkpt lat="43.21849" lon="6.33788">
        <ele>483.8</ele>
        <time>2025-04-21T12:29:33Z</time>
      </trkpt>
      <trkpt lat="43.21855" lon="6.33791">
        <ele>483.8</ele>
        <time>2025-04-21T12:29:39.819Z</time>
      </trkpt>
      <trkpt lat="43.2186" lon="6.33795">
        <ele>483.7</ele>
        <time>2025-04-21T12:29:46Z</time>
      </trkpt>
      <trkpt lat="43.21866" lon="6.33794">
        <ele>484.3</ele>
        <time>2025-04-21T12:29:54.169Z</time>
      </trkpt>
      <trkpt lat="43.21871" lon="6.33793">
        <ele>484.8</ele>
        <time>2025-04-21T12:30:01Z</time>
      </trkpt>
      <trkpt lat="43.21875" lon="6.3379">
        <ele>485.4</ele>
        <time>2025-04-21T12:30:09.150Z</time>
      </trkpt>
      <trkpt lat="43.21879" lon="6.33786">
        <ele>486.1</ele>
        <time>2025-04-21T12:30:18Z</time>
      </trkpt>
      <trkpt lat="43.21884" lon="6.33787">
        <ele>486.5</ele>
        <time>2025-04-21T12:30:51Z</time>
      </trkpt>
      <trkpt lat="43.21879" lon="6.33793">
        <ele>485.5</ele>
        <time>2025-04-21T12:31:03.683Z</time>
      </trkpt>
      <trkpt lat="43.21875" lon="6.33799">
        <ele>484.6</ele>
        <time>2025-04-21T12:31:15Z</time>
      </trkpt>
      <trkpt lat="43.21878" lon="6.33806">
        <ele>484.2</ele>
        <time>2025-04-21T12:31:24.000Z</time>
      </trkpt>
      <trkpt lat="43.21881" lon="6.33813">
        <ele>484.4</ele>
        <time>2025-04-21T12:31:33Z</time>
      </trkpt>
      <trkpt lat="43.21884" lon="6.3382">
        <ele>484.6</ele>
        <time>2025-04-21T12:31:38.249Z</time>
      </trkpt>
      <trkpt lat="43.21888" lon="6.33827">
        <ele>484.9</ele>
        <time>2025-04-21T12:31:44Z</time>
      </trkpt>
      <trkpt lat="43.21892" lon="6.33833">
        <ele>485.6</ele>
        <time>2025-04-21T12:31:49.805Z</time>
      </trkpt>
      <trkpt lat="43.21895" lon="6.33839">
        <ele>486</ele>
        <time>2025-04-21T12:31:55Z</time>
      </trkpt>
      <trkpt lat="43.21898" lon="6.33845">
        <ele>486.4</ele>
        <time>2025-04-21T12:32:08.111Z</time>
      </trkpt>
      <trkpt lat="43.219" lon="6.33851">
        <ele>486.5</ele>
        <time>2025-04-21T12:32:20Z</time>
      </trkpt>
      <trkpt lat="43.21903" lon="6.33857">
        <ele>486.7</ele>
        <time>2025-04-21T12:32:27.868Z</time>
      </trkpt>
      <trkpt lat="43.21905" lon="6.33864">
        <ele>486.6</ele>
        <time>2025-04-21T12:32:36Z</time>
      </trkpt>
      <trkpt lat="43.21909" lon="6.33873">
        <ele>486.7</ele>
        <time>2025-04-21T12:32:48Z</time>
      </trkpt>
      <trkpt lat="43.21913" lon="6.3388">
        <ele>486.9</ele>
        <time>2025-04-21T12:33:08Z</time>
      </trkpt>
      <trkpt lat="43.21913" lon="6.33878">
        <ele>487</ele>
        <time>2025-04-21T12:33:47Z</time>
      </trkpt>
      <trkpt lat="43.2191" lon="6.33878">
        <ele>486.7</ele>
        <time>2025-04-21T12:34:34Z</time>
      </trkpt>
      <trkpt lat="43.2191" lon="6.33875">
        <ele>486.8</ele>
        <time>2025-04-21T12:35:31Z</time>
      </trkpt>
      <trkpt lat="43.21909" lon="6.33871">
        <ele>486.8</ele>
        <time>2025-04-21T12:36:06Z</time>
      </trkpt>
      <trkpt lat="43.21914" lon="6.33879">
        <ele>487.1</ele>
        <time>2025-04-21T12:37:48Z</time>
      </trkpt>
      <trkpt lat="43.21918" lon="6.33873">
        <ele>487.8</ele>
        <time>2025-04-21T12:38:09Z</time>
      </trkpt>
      <trkpt lat="43.21916" lon="6.33879">
        <ele>487.3</ele>
        <time>2025-04-21T12:38:19.499Z</time>
      </trkpt>
      <trkpt lat="43.21914" lon="6.33885">
        <ele>486.9</ele>
        <time>2025-04-21T12:38:30Z</time>
      </trkpt>
      <trkpt lat="43.21919" lon="6.33892">
        <ele>487</ele>
        <time>2025-04-21T12:41:04Z</time>
      </trkpt>
      <trkpt lat="43.21918" lon="6.33891">
        <ele>487</ele>
        <time>2025-04-21T12:45:11Z</time>
      </trkpt>
      <trkpt lat="43.21923" lon="6.33889">
        <ele>487.7</ele>
        <time>2025-04-21T12:45:20.643Z</time>
      </trkpt>
      <trkpt lat="43.21928" lon="6.33888">
        <ele>488.3</ele>
        <time>2025-04-21T12:45:30Z</time>
      </trkpt>
      <trkpt lat="43.21933" lon="6.33889">
        <ele>488.8</ele>
        <time>2025-04-21T12:45:36.300Z</time>
      </trkpt>
      <trkpt lat="43.21939" lon="6.33891">
        <ele>489.3</ele>
        <time>2025-04-21T12:45:44Z</time>
      </trkpt>
      <trkpt lat="43.21945" lon="6.33894">
        <ele>489.9</ele>
        <time>2025-04-21T12:45:50.500Z</time>
      </trkpt>
      <trkpt lat="43.21951" lon="6.33897">
        <ele>491.1</ele>
        <time>2025-04-21T12:45:57Z</time>
      </trkpt>
      <trkpt lat="43.21953" lon="6.33904">
        <ele>491.1</ele>
        <time>2025-04-21T12:46:05.248Z</time>
      </trkpt>
      <trkpt lat="43.21952" lon="6.3391">
        <ele>490.7</ele>
        <time>2025-04-21T12:46:12Z</time>
      </trkpt>
      <trkpt lat="43.21953" lon="6.33915">
        <ele>490.6</ele>
        <time>2025-04-21T12:46:28Z</time>
      </trkpt>
      <trkpt lat="43.21954" lon="6.33922">
        <ele>490.7</ele>
        <time>2025-04-21T12:46:37.419Z</time>
      </trkpt>
      <trkpt lat="43.21951" lon="6.33926">
        <ele>490</ele>
        <time>2025-04-21T12:46:45Z</time>
      </trkpt>
      <trkpt lat="43.21953" lon="6.3393">
        <ele>490.4</ele>
        <time>2025-04-21T12:48:10Z</time>
      </trkpt>
      <trkpt lat="43.21957" lon="6.33937">
        <ele>491.2</ele>
        <time>2025-04-21T12:48:16.000Z</time>
      </trkpt>
      <trkpt lat="43.21961" lon="6.33944">
        <ele>492.2</ele>
        <time>2025-04-21T12:48:22Z</time>
      </trkpt>
      <trkpt lat="43.21963" lon="6.33951">
        <ele>491.9</ele>
        <time>2025-04-21T12:48:26.618Z</time>
      </trkpt>
      <trkpt lat="43.21964" lon="6.33958">
        <ele>491.3</ele>
        <time>2025-04-21T12:48:31Z</time>
      </trkpt>
      <trkpt lat="43.21967" lon="6.33964">
        <ele>491.1</ele>
        <time>2025-04-21T12:48:36.290Z</time>
      </trkpt>
      <trkpt lat="43.2197" lon="6.33969">
        <ele>491</ele>
        <time>2025-04-21T12:48:41Z</time>
      </trkpt>
      <trkpt lat="43.21973" lon="6.33975">
        <ele>490.8</ele>
        <time>2025-04-21T12:48:46.819Z</time>
      </trkpt>
      <trkpt lat="43.21976" lon="6.3398">
        <ele>490.7</ele>
        <time>2025-04-21T12:48:52Z</time>
      </trkpt>
      <trkpt lat="43.2198" lon="6.33984">
        <ele>490.9</ele>
        <time>2025-04-21T12:48:57.000Z</time>
      </trkpt>
      <trkpt lat="43.21984" lon="6.33988">
        <ele>491</ele>
        <time>2025-04-21T12:49:02Z</time>
      </trkpt>
      <trkpt lat="43.21988" lon="6.33994">
        <ele>490.8</ele>
        <time>2025-04-21T12:49:07.381Z</time>
      </trkpt>
      <trkpt lat="43.21993" lon="6.33999">
        <ele>490.9</ele>
        <time>2025-04-21T12:49:13Z</time>
      </trkpt>
      <trkpt lat="43.21995" lon="6.34006">
        <ele>491.3</ele>
        <time>2025-04-21T12:49:17.326Z</time>
      </trkpt>
      <trkpt lat="43.21998" lon="6.34013">
        <ele>492.1</ele>
        <time>2025-04-21T12:49:22Z</time>
      </trkpt>
      <trkpt lat="43.21998" lon="6.34019">
        <ele>492.3</ele>
        <time>2025-04-21T12:49:26.568Z</time>
      </trkpt>
      <trkpt lat="43.21999" lon="6.34026">
        <ele>492.7</ele>
        <time>2025-04-21T12:49:32Z</time>
      </trkpt>
      <trkpt lat="43.21996" lon="6.34032">
        <ele>492.6</ele>
        <time>2025-04-21T12:49:37.409Z</time>
      </trkpt>
      <trkpt lat="43.21994" lon="6.34039">
        <ele>492.9</ele>
        <time>2025-04-21T12:49:43Z</time>
      </trkpt>
      <trkpt lat="43.21992" lon="6.34046">
        <ele>493.2</ele>
        <time>2025-04-21T12:49:49.048Z</time>
      </trkpt>
      <trkpt lat="43.21991" lon="6.34052">
        <ele>493.7</ele>
        <time>2025-04-21T12:49:54Z</time>
      </trkpt>
      <trkpt lat="43.2199" lon="6.34059">
        <ele>494</ele>
        <time>2025-04-21T12:50:04.199Z</time>
      </trkpt>
      <trkpt lat="43.21989" lon="6.34065">
        <ele>494.2</ele>
        <time>2025-04-21T12:50:13Z</time>
      </trkpt>
      <trkpt lat="43.21989" lon="6.34072">
        <ele>494.6</ele>
        <time>2025-04-21T12:50:18.556Z</time>
      </trkpt>
      <trkpt lat="43.2199" lon="6.3408">
        <ele>495.3</ele>
        <time>2025-04-21T12:50:25Z</time>
      </trkpt>
      <trkpt lat="43.21992" lon="6.34087">
        <ele>496</ele>
        <time>2025-04-21T12:50:30.131Z</time>
      </trkpt>
      <trkpt lat="43.21993" lon="6.34094">
        <ele>496.2</ele>
        <time>2025-04-21T12:50:35Z</time>
      </trkpt>
      <trkpt lat="43.21995" lon="6.34102">
        <ele>496.7</ele>
        <time>2025-04-21T12:50:40.424Z</time>
      </trkpt>
      <trkpt lat="43.21996" lon="6.34109">
        <ele>497</ele>
        <time>2025-04-21T12:50:45Z</time>
      </trkpt>
      <trkpt lat="43.21997" lon="6.34116">
        <ele>497.1</ele>
        <time>2025-04-21T12:50:49.868Z</time>
      </trkpt>
      <trkpt lat="43.21999" lon="6.34123">
        <ele>497.3</ele>
        <time>2025-04-21T12:50:55Z</time>
      </trkpt>
      <trkpt lat="43.22001" lon="6.34129">
        <ele>497.5</ele>
        <time>2025-04-21T12:51:00.000Z</time>
      </trkpt>
      <trkpt lat="43.22003" lon="6.34135">
        <ele>497.5</ele>
        <time>2025-04-21T12:51:05Z</time>
      </trkpt>
      <trkpt lat="43.22006" lon="6.34139">
        <ele>497.6</ele>
        <time>2025-04-21T12:51:09.796Z</time>
      </trkpt>
      <trkpt lat="43.2201" lon="6.34144">
        <ele>497.4</ele>
        <time>2025-04-21T12:51:16Z</time>
      </trkpt>
      <trkpt lat="43.22015" lon="6.34146">
        <ele>497.6</ele>
        <time>2025-04-21T12:51:23.778Z</time>
      </trkpt>
      <trkpt lat="43.22021" lon="6.34148">
        <ele>497.8</ele>
        <time>2025-04-21T12:51:33Z</time>
      </trkpt>
      <trkpt lat="43.22025" lon="6.34148">
        <ele>498.1</ele>
        <time>2025-04-21T12:51:37.444Z</time>
      </trkpt>
      <trkpt lat="43.2203" lon="6.34148">
        <ele>498.8</ele>
        <time>2025-04-21T12:51:43Z</time>
      </trkpt>
      <trkpt lat="43.22034" lon="6.34151">
        <ele>499.2</ele>
        <time>2025-04-21T12:51:47.200Z</time>
      </trkpt>
      <trkpt lat="43.22039" lon="6.34153">
        <ele>500.1</ele>
        <time>2025-04-21T12:51:52Z</time>
      </trkpt>
      <trkpt lat="43.22042" lon="6.34159">
        <ele>500.1</ele>
        <time>2025-04-21T12:51:56.500Z</time>
      </trkpt>
      <trkpt lat="43.22045" lon="6.34165">
        <ele>500.1</ele>
        <time>2025-04-21T12:52:01Z</time>
      </trkpt>
      <trkpt lat="43.22047" lon="6.34172">
        <ele>499.8</ele>
        <time>2025-04-21T12:52:05.573Z</time>
      </trkpt>
      <trkpt lat="43.2205" lon="6.34178">
        <ele>500</ele>
        <time>2025-04-21T12:52:10Z</time>
      </trkpt>
      <trkpt lat="43.22052" lon="6.34184">
        <ele>499.9</ele>
        <time>2025-04-21T12:52:14.206Z</time>
      </trkpt>
      <trkpt lat="43.22054" lon="6.34191">
        <ele>499.8</ele>
        <time>2025-04-21T12:52:19Z</time>
      </trkpt>
      <trkpt lat="43.22056" lon="6.34197">
        <ele>499.9</ele>
        <time>2025-04-21T12:52:23.500Z</time>
      </trkpt>
      <trkpt lat="43.22058" lon="6.34203">
        <ele>499.9</ele>
        <time>2025-04-21T12:52:28Z</time>
      </trkpt>
      <trkpt lat="43.22061" lon="6.34209">
        <ele>500.2</ele>
        <time>2025-04-21T12:52:33.000Z</time>
      </trkpt>
      <trkpt lat="43.22064" lon="6.34215">
        <ele>500.5</ele>
        <time>2025-04-21T12:52:38Z</time>
      </trkpt>
      <trkpt lat="43.22065" lon="6.34221">
        <ele>500.2</ele>
        <time>2025-04-21T12:52:42.501Z</time>
      </trkpt>
      <trkpt lat="43.22067" lon="6.34228">
        <ele>500.4</ele>
        <time>2025-04-21T12:52:48Z</time>
      </trkpt>
      <trkpt lat="43.22069" lon="6.34234">
        <ele>500.7</ele>
        <time>2025-04-21T12:52:52.500Z</time>
      </trkpt>
      <trkpt lat="43.22071" lon="6.3424">
        <ele>501</ele>
        <time>2025-04-21T12:52:57Z</time>
      </trkpt>
      <trkpt lat="43.22074" lon="6.34245">
        <ele>501.6</ele>
        <time>2025-04-21T12:53:01.433Z</time>
      </trkpt>
      <trkpt lat="43.22078" lon="6.34251">
        <ele>502.3</ele>
        <time>2025-04-21T12:53:07Z</time>
      </trkpt>
      <trkpt lat="43.22082" lon="6.34256">
        <ele>502.8</ele>
        <time>2025-04-21T12:53:12.639Z</time>
      </trkpt>
      <trkpt lat="43.22085" lon="6.3426">
        <ele>502.8</ele>
        <time>2025-04-21T12:53:17Z</time>
      </trkpt>
      <trkpt lat="43.2209" lon="6.34264">
        <ele>502.9</ele>
        <time>2025-04-21T12:53:22.034Z</time>
      </trkpt>
      <trkpt lat="43.22094" lon="6.34267">
        <ele>503.1</ele>
        <time>2025-04-21T12:53:26Z</time>
      </trkpt>
      <trkpt lat="43.22101" lon="6.34273">
        <ele>503.2</ele>
        <time>2025-04-21T12:53:34Z</time>
      </trkpt>
      <trkpt lat="43.22105" lon="6.34275">
        <ele>503.5</ele>
        <time>2025-04-21T12:53:38.346Z</time>
      </trkpt>
      <trkpt lat="43.22109" lon="6.34278">
        <ele>503.7</ele>
        <time>2025-04-21T12:53:43Z</time>
      </trkpt>
      <trkpt lat="43.22114" lon="6.3428">
        <ele>503.8</ele>
        <time>2025-04-21T12:53:47.500Z</time>
      </trkpt>
      <trkpt lat="43.22119" lon="6.34282">
        <ele>503.6</ele>
        <time>2025-04-21T12:53:52Z</time>
      </trkpt>
      <trkpt lat="43.22124" lon="6.34282">
        <ele>503.8</ele>
        <time>2025-04-21T12:53:56.545Z</time>
      </trkpt>
      <trkpt lat="43.2213" lon="6.34282">
        <ele>504</ele>
        <time>2025-04-21T12:54:02Z</time>
      </trkpt>
      <trkpt lat="43.22135" lon="6.3428">
        <ele>504.5</ele>
        <time>2025-04-21T12:54:06.575Z</time>
      </trkpt>
      <trkpt lat="43.22141" lon="6.34278">
        <ele>505</ele>
        <time>2025-04-21T12:54:12Z</time>
      </trkpt>
      <trkpt lat="43.22149" lon="6.34273">
        <ele>506.1</ele>
        <time>2025-04-21T12:54:20Z</time>
      </trkpt>
      <trkpt lat="43.22153" lon="6.34275">
        <ele>505.9</ele>
        <time>2025-04-21T12:54:24.115Z</time>
      </trkpt>
      <trkpt lat="43.22158" lon="6.34276">
        <ele>505.9</ele>
        <time>2025-04-21T12:54:29Z</time>
      </trkpt>
      <trkpt lat="43.22164" lon="6.34279">
        <ele>505.8</ele>
        <time>2025-04-21T12:54:34.770Z</time>
      </trkpt>
      <trkpt lat="43.22169" lon="6.34283">
        <ele>505.8</ele>
        <time>2025-04-21T12:54:40Z</time>
      </trkpt>
      <trkpt lat="43.22174" lon="6.34286">
        <ele>506.2</ele>
        <time>2025-04-21T12:54:45.068Z</time>
      </trkpt>
      <trkpt lat="43.2218" lon="6.34289">
        <ele>506.7</ele>
        <time>2025-04-21T12:54:51Z</time>
      </trkpt>
      <trkpt lat="43.22185" lon="6.34292">
        <ele>507.1</ele>
        <time>2025-04-21T12:54:56.116Z</time>
      </trkpt>
      <trkpt lat="43.2219" lon="6.34294">
        <ele>507.6</ele>
        <time>2025-04-21T12:55:01Z</time>
      </trkpt>
      <trkpt lat="43.22196" lon="6.34297">
        <ele>508</ele>
        <time>2025-04-21T12:55:09.500Z</time>
      </trkpt>
      <trkpt lat="43.22202" lon="6.343">
        <ele>507.9</ele>
        <time>2025-04-21T12:55:18Z</time>
      </trkpt>
      <trkpt lat="43.22208" lon="6.34302">
        <ele>507.9</ele>
        <time>2025-04-21T12:55:23.097Z</time>
      </trkpt>
      <trkpt lat="43.22215" lon="6.34304">
        <ele>507.9</ele>
        <time>2025-04-21T12:55:29Z</time>
      </trkpt>
      <trkpt lat="43.2222" lon="6.34305">
        <ele>508</ele>
        <time>2025-04-21T12:55:33.500Z</time>
      </trkpt>
      <trkpt lat="43.22225" lon="6.34306">
        <ele>507.8</ele>
        <time>2025-04-21T12:55:38Z</time>
      </trkpt>
      <trkpt lat="43.22231" lon="6.34306">
        <ele>507.6</ele>
        <time>2025-04-21T12:55:42.885Z</time>
      </trkpt>
      <trkpt lat="43.22236" lon="6.34305">
        <ele>507.6</ele>
        <time>2025-04-21T12:55:47Z</time>
      </trkpt>
      <trkpt lat="43.22241" lon="6.34305">
        <ele>507.4</ele>
        <time>2025-04-21T12:55:51.000Z</time>
      </trkpt>
      <trkpt lat="43.22246" lon="6.34305">
        <ele>507.2</ele>
        <time>2025-04-21T12:55:55Z</time>
      </trkpt>
      <trkpt lat="43.22251" lon="6.34304">
        <ele>507.2</ele>
        <time>2025-04-21T12:55:59.000Z</time>
      </trkpt>
      <trkpt lat="43.22255" lon="6.34303">
        <ele>507</ele>
        <time>2025-04-21T12:56:03Z</time>
      </trkpt>
      <trkpt lat="43.2226" lon="6.34303">
        <ele>506.6</ele>
        <time>2025-04-21T12:56:07.476Z</time>
      </trkpt>
      <trkpt lat="43.22265" lon="6.34302">
        <ele>506.4</ele>
        <time>2025-04-21T12:56:12Z</time>
      </trkpt>
      <trkpt lat="43.22269" lon="6.34299">
        <ele>506.4</ele>
        <time>2025-04-21T12:56:15.641Z</time>
      </trkpt>
      <trkpt lat="43.22274" lon="6.34296">
        <ele>506.4</ele>
        <time>2025-04-21T12:56:20Z</time>
      </trkpt>
      <trkpt lat="43.22277" lon="6.3429">
        <ele>506.8</ele>
        <time>2025-04-21T12:56:25.290Z</time>
      </trkpt>
      <trkpt lat="43.2228" lon="6.34285">
        <ele>507</ele>
        <time>2025-04-21T12:56:30Z</time>
      </trkpt>
      <trkpt lat="43.22284" lon="6.34279">
        <ele>507.4</ele>
        <time>2025-04-21T12:56:35.009Z</time>
      </trkpt>
      <trkpt lat="43.22287" lon="6.34274">
        <ele>507.7</ele>
        <time>2025-04-21T12:56:39Z</time>
      </trkpt>
      <trkpt lat="43.22294" lon="6.34271">
        <ele>507.6</ele>
        <time>2025-04-21T12:56:53Z</time>
      </trkpt>
      <trkpt lat="43.223" lon="6.34274">
        <ele>506.9</ele>
        <time>2025-04-21T12:57:01.088Z</time>
      </trkpt>
      <trkpt lat="43.22305" lon="6.34277">
        <ele>506.2</ele>
        <time>2025-04-21T12:57:08Z</time>
      </trkpt>
      <trkpt lat="43.2231" lon="6.34279">
        <ele>505.6</ele>
        <time>2025-04-21T12:57:14.598Z</time>
      </trkpt>
      <trkpt lat="43.22315" lon="6.3428">
        <ele>505.3</ele>
        <time>2025-04-21T12:57:21Z</time>
      </trkpt>
      <trkpt lat="43.2232" lon="6.3428">
        <ele>505.2</ele>
        <time>2025-04-21T12:57:25.074Z</time>
      </trkpt>
      <trkpt lat="43.22326" lon="6.34279">
        <ele>505.1</ele>
        <time>2025-04-21T12:57:30Z</time>
      </trkpt>
      <trkpt lat="43.22331" lon="6.34277">
        <ele>505.2</ele>
        <time>2025-04-21T12:57:34.266Z</time>
      </trkpt>
      <trkpt lat="43.22335" lon="6.34274">
        <ele>505.2</ele>
        <time>2025-04-21T12:57:38Z</time>
      </trkpt>
      <trkpt lat="43.22341" lon="6.3427">
        <ele>504.7</ele>
        <time>2025-04-21T12:57:42.400Z</time>
      </trkpt>
      <trkpt lat="43.22346" lon="6.34267">
        <ele>504.3</ele>
        <time>2025-04-21T12:57:46Z</time>
      </trkpt>
      <trkpt lat="43.22353" lon="6.3426">
        <ele>504.1</ele>
        <time>2025-04-21T12:57:53Z</time>
      </trkpt>
      <trkpt lat="43.22357" lon="6.34257">
        <ele>503.9</ele>
        <time>2025-04-21T12:57:56.500Z</time>
      </trkpt>
      <trkpt lat="43.22361" lon="6.34253">
        <ele>503.7</ele>
        <time>2025-04-21T12:58:00Z</time>
      </trkpt>
      <trkpt lat="43.22367" lon="6.34246">
        <ele>504.1</ele>
        <time>2025-04-21T12:58:09Z</time>
      </trkpt>
      <trkpt lat="43.22372" lon="6.34243">
        <ele>504</ele>
        <time>2025-04-21T12:58:12.882Z</time>
      </trkpt>
      <trkpt lat="43.22377" lon="6.34239">
        <ele>504</ele>
        <time>2025-04-21T12:58:17Z</time>
      </trkpt>
      <trkpt lat="43.2238" lon="6.34235">
        <ele>504.1</ele>
        <time>2025-04-21T12:58:20.488Z</time>
      </trkpt>
      <trkpt lat="43.22384" lon="6.3423">
        <ele>504</ele>
        <time>2025-04-21T12:58:25Z</time>
      </trkpt>
      <trkpt lat="43.22388" lon="6.34226">
        <ele>503.8</ele>
        <time>2025-04-21T12:58:29.095Z</time>
      </trkpt>
      <trkpt lat="43.22391" lon="6.34221">
        <ele>504.1</ele>
        <time>2025-04-21T12:58:33Z</time>
      </trkpt>
      <trkpt lat="43.22394" lon="6.34216">
        <ele>504.4</ele>
        <time>2025-04-21T12:58:36.727Z</time>
      </trkpt>
      <trkpt lat="43.22398" lon="6.34211">
        <ele>504.8</ele>
        <time>2025-04-21T12:58:41Z</time>
      </trkpt>
      <trkpt lat="43.22403" lon="6.34211">
        <ele>504.8</ele>
        <time>2025-04-21T12:58:45.973Z</time>
      </trkpt>
      <trkpt lat="43.22408" lon="6.34212">
        <ele>504.7</ele>
        <time>2025-04-21T12:58:51Z</time>
      </trkpt>
      <trkpt lat="43.22413" lon="6.34215">
        <ele>504.5</ele>
        <time>2025-04-21T12:58:55.719Z</time>
      </trkpt>
      <trkpt lat="43.22417" lon="6.34219">
        <ele>504.2</ele>
        <time>2025-04-21T12:59:00Z</time>
      </trkpt>
      <trkpt lat="43.22422" lon="6.34221">
        <ele>504.3</ele>
        <time>2025-04-21T12:59:04.000Z</time>
      </trkpt>
      <trkpt lat="43.22427" lon="6.34223">
        <ele>504.3</ele>
        <time>2025-04-21T12:59:08Z</time>
      </trkpt>
      <trkpt lat="43.22433" lon="6.34224">
        <ele>504.5</ele>
        <time>2025-04-21T12:59:12.451Z</time>
      </trkpt>
      <trkpt lat="43.22439" lon="6.34226">
        <ele>504.7</ele>
        <time>2025-04-21T12:59:17Z</time>
      </trkpt>
      <trkpt lat="43.22444" lon="6.34227">
        <ele>504.8</ele>
        <time>2025-04-21T12:59:22.500Z</time>
      </trkpt>
      <trkpt lat="43.22449" lon="6.34228">
        <ele>505</ele>
        <time>2025-04-21T12:59:28Z</time>
      </trkpt>
      <trkpt lat="43.22455" lon="6.34226">
        <ele>505.2</ele>
        <time>2025-04-21T12:59:34.000Z</time>
      </trkpt>
      <trkpt lat="43.22461" lon="6.34224">
        <ele>505.5</ele>
        <time>2025-04-21T12:59:40Z</time>
      </trkpt>
      <trkpt lat="43.22467" lon="6.3422">
        <ele>506</ele>
        <time>2025-04-21T12:59:45.354Z</time>
      </trkpt>
      <trkpt lat="43.22472" lon="6.34216">
        <ele>506.4</ele>
        <time>2025-04-21T12:59:50Z</time>
      </trkpt>
      <trkpt lat="43.22478" lon="6.34215">
        <ele>506.9</ele>
        <time>2025-04-21T12:59:56.019Z</time>
      </trkpt>
      <trkpt lat="43.22483" lon="6.34215">
        <ele>507.2</ele>
        <time>2025-04-21T13:00:01Z</time>
      </trkpt>
      <trkpt lat="43.22489" lon="6.34214">
        <ele>507.6</ele>
        <time>2025-04-21T13:00:06.935Z</time>
      </trkpt>
      <trkpt lat="43.22495" lon="6.34212">
        <ele>508.1</ele>
        <time>2025-04-21T13:00:13Z</time>
      </trkpt>
      <trkpt lat="43.22502" lon="6.34212">
        <ele>508.5</ele>
        <time>2025-04-21T13:00:19.500Z</time>
      </trkpt>
      <trkpt lat="43.22509" lon="6.34212">
        <ele>508.8</ele>
        <time>2025-04-21T13:00:26Z</time>
      </trkpt>
      <trkpt lat="43.22515" lon="6.34212">
        <ele>509.1</ele>
        <time>2025-04-21T13:00:32.000Z</time>
      </trkpt>
      <trkpt lat="43.22522" lon="6.34212">
        <ele>509.5</ele>
        <time>2025-04-21T13:00:39Z</time>
      </trkpt>
      <trkpt lat="43.22528" lon="6.34211">
        <ele>509.8</ele>
        <time>2025-04-21T13:00:51Z</time>
      </trkpt>
      <trkpt lat="43.22526" lon="6.34205">
        <ele>510.1</ele>
        <time>2025-04-21T13:01:09Z</time>
      </trkpt>
      <trkpt lat="43.22524" lon="6.34198">
        <ele>510.5</ele>
        <time>2025-04-21T13:01:37Z</time>
      </trkpt>
      <trkpt lat="43.22523" lon="6.34195">
        <ele>510.6</ele>
        <time>2025-04-21T13:02:04Z</time>
      </trkpt>
      <trkpt lat="43.22522" lon="6.3419">
        <ele>510.6</ele>
        <time>2025-04-21T13:02:39Z</time>
      </trkpt>
      <trkpt lat="43.22521" lon="6.34184">
        <ele>510.6</ele>
        <time>2025-04-21T13:02:45.947Z</time>
      </trkpt>
      <trkpt lat="43.2252" lon="6.34177">
        <ele>510.6</ele>
        <time>2025-04-21T13:02:54Z</time>
      </trkpt>
      <trkpt lat="43.22521" lon="6.34168">
        <ele>510.7</ele>
        <time>2025-04-21T13:03:01.451Z</time>
      </trkpt>
      <trkpt lat="43.22521" lon="6.3416">
        <ele>511.1</ele>
        <time>2025-04-21T13:03:08Z</time>
      </trkpt>
      <trkpt lat="43.22521" lon="6.3415">
        <ele>511.5</ele>
        <time>2025-04-21T13:03:14.469Z</time>
      </trkpt>
      <trkpt lat="43.2252" lon="6.3414">
        <ele>511.9</ele>
        <time>2025-04-21T13:03:21Z</time>
      </trkpt>
      <trkpt lat="43.2252" lon="6.34129">
        <ele>512.5</ele>
        <time>2025-04-21T13:03:26.761Z</time>
      </trkpt>
      <trkpt lat="43.2252" lon="6.34119">
        <ele>512.9</ele>
        <time>2025-04-21T13:03:32Z</time>
      </trkpt>
      <trkpt lat="43.22515" lon="6.3411">
        <ele>513.6</ele>
        <time>2025-04-21T13:03:50Z</time>
      </trkpt>
      <trkpt lat="43.22511" lon="6.34105">
        <ele>514.2</ele>
        <time>2025-04-21T13:03:55.598Z</time>
      </trkpt>
      <trkpt lat="43.22506" lon="6.341">
        <ele>514.9</ele>
        <time>2025-04-21T13:04:02Z</time>
      </trkpt>
      <trkpt lat="43.22499" lon="6.34095">
        <ele>515.7</ele>
        <time>2025-04-21T13:04:07.203Z</time>
      </trkpt>
      <trkpt lat="43.22491" lon="6.3409">
        <ele>516.3</ele>
        <time>2025-04-21T13:04:13Z</time>
      </trkpt>
      <trkpt lat="43.22486" lon="6.3409">
        <ele>516.3</ele>
        <time>2025-04-21T13:04:17.545Z</time>
      </trkpt>
      <trkpt lat="43.2248" lon="6.3409">
        <ele>516.3</ele>
        <time>2025-04-21T13:04:23Z</time>
      </trkpt>
      <trkpt lat="43.22475" lon="6.34089">
        <ele>516.4</ele>
        <time>2025-04-21T13:04:28.000Z</time>
      </trkpt>
      <trkpt lat="43.2247" lon="6.34088">
        <ele>516.5</ele>
        <time>2025-04-21T13:04:33Z</time>
      </trkpt>
      <trkpt lat="43.22466" lon="6.34084">
        <ele>516.9</ele>
        <time>2025-04-21T13:04:38.499Z</time>
      </trkpt>
      <trkpt lat="43.22462" lon="6.3408">
        <ele>517.4</ele>
        <time>2025-04-21T13:04:44Z</time>
      </trkpt>
      <trkpt lat="43.22456" lon="6.34071">
        <ele>518.3</ele>
        <time>2025-04-21T13:04:54Z</time>
      </trkpt>
      <trkpt lat="43.22456" lon="6.34063">
        <ele>519.2</ele>
        <time>2025-04-21T13:04:59.500Z</time>
      </trkpt>
      <trkpt lat="43.22456" lon="6.34055">
        <ele>520.1</ele>
        <time>2025-04-21T13:05:05Z</time>
      </trkpt>
      <trkpt lat="43.22459" lon="6.34051">
        <ele>520.4</ele>
        <time>2025-04-21T13:05:10.232Z</time>
      </trkpt>
      <trkpt lat="43.22463" lon="6.34046">
        <ele>520.8</ele>
        <time>2025-04-21T13:05:17Z</time>
      </trkpt>
      <trkpt lat="43.22468" lon="6.34043">
        <ele>521</ele>
        <time>2025-04-21T13:05:21.903Z</time>
      </trkpt>
      <trkpt lat="43.22472" lon="6.3404">
        <ele>521.1</ele>
        <time>2025-04-21T13:05:26Z</time>
      </trkpt>
      <trkpt lat="43.22477" lon="6.34038">
        <ele>521.3</ele>
        <time>2025-04-21T13:05:30.952Z</time>
      </trkpt>
      <trkpt lat="43.22481" lon="6.34036">
        <ele>521.4</ele>
        <time>2025-04-21T13:05:35Z</time>
      </trkpt>
      <trkpt lat="43.22485" lon="6.34033">
        <ele>521.6</ele>
        <time>2025-04-21T13:05:40.461Z</time>
      </trkpt>
      <trkpt lat="43.2249" lon="6.3403">
        <ele>521.8</ele>
        <time>2025-04-21T13:05:47Z</time>
      </trkpt>
      <trkpt lat="43.22495" lon="6.34026">
        <ele>522.2</ele>
        <time>2025-04-21T13:05:52.800Z</time>
      </trkpt>
      <trkpt lat="43.225" lon="6.34021">
        <ele>522.7</ele>
        <time>2025-04-21T13:05:59Z</time>
      </trkpt>
      <trkpt lat="43.22506" lon="6.34016">
        <ele>523.1</ele>
        <time>2025-04-21T13:06:04.500Z</time>
      </trkpt>
      <trkpt lat="43.22512" lon="6.34011">
        <ele>523.4</ele>
        <time>2025-04-21T13:06:10Z</time>
      </trkpt>
      <trkpt lat="43.22517" lon="6.34007">
        <ele>523.6</ele>
        <time>2025-04-21T13:06:15.661Z</time>
      </trkpt>
      <trkpt lat="43.22522" lon="6.34004">
        <ele>523.8</ele>
        <time>2025-04-21T13:06:21Z</time>
      </trkpt>
      <trkpt lat="43.22527" lon="6.34">
        <ele>524</ele>
        <time>2025-04-21T13:06:26.110Z</time>
      </trkpt>
      <trkpt lat="43.22533" lon="6.33996">
        <ele>524.3</ele>
        <time>2025-04-21T13:06:32Z</time>
      </trkpt>
      <trkpt lat="43.22539" lon="6.33991">
        <ele>524.5</ele>
        <time>2025-04-21T13:06:37.178Z</time>
      </trkpt>
      <trkpt lat="43.22546" lon="6.33986">
        <ele>524.7</ele>
        <time>2025-04-21T13:06:43Z</time>
      </trkpt>
      <trkpt lat="43.22548" lon="6.3398">
        <ele>524.9</ele>
        <time>2025-04-21T13:06:47.673Z</time>
      </trkpt>
      <trkpt lat="43.2255" lon="6.33973">
        <ele>525.2</ele>
        <time>2025-04-21T13:06:53Z</time>
      </trkpt>
      <trkpt lat="43.22551" lon="6.33965">
        <ele>525.2</ele>
        <time>2025-04-21T13:06:58.854Z</time>
      </trkpt>
      <trkpt lat="43.22552" lon="6.33958">
        <ele>525.3</ele>
        <time>2025-04-21T13:07:04Z</time>
      </trkpt>
      <trkpt lat="43.22551" lon="6.33949">
        <ele>525.4</ele>
        <time>2025-04-21T13:07:09.815Z</time>
      </trkpt>
      <trkpt lat="43.2255" lon="6.33941">
        <ele>525.5</ele>
        <time>2025-04-21T13:07:15Z</time>
      </trkpt>
      <trkpt lat="43.22546" lon="6.33935">
        <ele>525.9</ele>
        <time>2025-04-21T13:07:20.805Z</time>
      </trkpt>
      <trkpt lat="43.22543" lon="6.33929">
        <ele>526.3</ele>
        <time>2025-04-21T13:07:26Z</time>
      </trkpt>
      <trkpt lat="43.22538" lon="6.33922">
        <ele>527.1</ele>
        <time>2025-04-21T13:07:31.699Z</time>
      </trkpt>
      <trkpt lat="43.22533" lon="6.33916">
        <ele>528</ele>
        <time>2025-04-21T13:07:37Z</time>
      </trkpt>
      <trkpt lat="43.22528" lon="6.33914">
        <ele>528.9</ele>
        <time>2025-04-21T13:07:41.883Z</time>
      </trkpt>
      <trkpt lat="43.22523" lon="6.33911">
        <ele>529.1</ele>
        <time>2025-04-21T13:07:47Z</time>
      </trkpt>
      <trkpt lat="43.22518" lon="6.3391">
        <ele>529.5</ele>
        <time>2025-04-21T13:07:53.139Z</time>
      </trkpt>
      <trkpt lat="43.22514" lon="6.3391">
        <ele>529.8</ele>
        <time>2025-04-21T13:07:58Z</time>
      </trkpt>
      <trkpt lat="43.22509" lon="6.33912">
        <ele>530.2</ele>
        <time>2025-04-21T13:08:03.075Z</time>
      </trkpt>
      <trkpt lat="43.22504" lon="6.33913">
        <ele>530.6</ele>
        <time>2025-04-21T13:08:08Z</time>
      </trkpt>
      <trkpt lat="43.22499" lon="6.33915">
        <ele>531</ele>
        <time>2025-04-21T13:08:13.075Z</time>
      </trkpt>
      <trkpt lat="43.22494" lon="6.33916">
        <ele>531.4</ele>
        <time>2025-04-21T13:08:18Z</time>
      </trkpt>
      <trkpt lat="43.22489" lon="6.33916">
        <ele>531.8</ele>
        <time>2025-04-21T13:08:22.973Z</time>
      </trkpt>
      <trkpt lat="43.22484" lon="6.33917">
        <ele>532.1</ele>
        <time>2025-04-21T13:08:28Z</time>
      </trkpt>
      <trkpt lat="43.22478" lon="6.33914">
        <ele>532.5</ele>
        <time>2025-04-21T13:08:33.499Z</time>
      </trkpt>
      <trkpt lat="43.22472" lon="6.33911">
        <ele>532.8</ele>
        <time>2025-04-21T13:08:39Z</time>
      </trkpt>
      <trkpt lat="43.22466" lon="6.33907">
        <ele>532.5</ele>
        <time>2025-04-21T13:08:44.999Z</time>
      </trkpt>
      <trkpt lat="43.2246" lon="6.33903">
        <ele>532.3</ele>
        <time>2025-04-21T13:08:51Z</time>
      </trkpt>
      <trkpt lat="43.22455" lon="6.33901">
        <ele>532.2</ele>
        <time>2025-04-21T13:08:55.575Z</time>
      </trkpt>
      <trkpt lat="43.22449" lon="6.33899">
        <ele>532.1</ele>
        <time>2025-04-21T13:09:01Z</time>
      </trkpt>
      <trkpt lat="43.22442" lon="6.33896">
        <ele>532</ele>
        <time>2025-04-21T13:09:06.569Z</time>
      </trkpt>
      <trkpt lat="43.22435" lon="6.33894">
        <ele>532</ele>
        <time>2025-04-21T13:09:12Z</time>
      </trkpt>
      <trkpt lat="43.2243" lon="6.3389">
        <ele>532</ele>
        <time>2025-04-21T13:09:16.999Z</time>
      </trkpt>
      <trkpt lat="43.22425" lon="6.33886">
        <ele>531.8</ele>
        <time>2025-04-21T13:09:22Z</time>
      </trkpt>
      <trkpt lat="43.2242" lon="6.33882">
        <ele>531.5</ele>
        <time>2025-04-21T13:09:26.645Z</time>
      </trkpt>
      <trkpt lat="43.22414" lon="6.33878">
        <ele>531.1</ele>
        <time>2025-04-21T13:09:32Z</time>
      </trkpt>
      <trkpt lat="43.22409" lon="6.33875">
        <ele>530.6</ele>
        <time>2025-04-21T13:09:36.499Z</time>
      </trkpt>
      <trkpt lat="43.22403" lon="6.33871">
        <ele>530</ele>
        <time>2025-04-21T13:09:42Z</time>
      </trkpt>
      <trkpt lat="43.22397" lon="6.33869">
        <ele>529.7</ele>
        <time>2025-04-21T13:09:46.499Z</time>
      </trkpt>
      <trkpt lat="43.22391" lon="6.33867">
        <ele>529.3</ele>
        <time>2025-04-21T13:09:51Z</time>
      </trkpt>
      <trkpt lat="43.22386" lon="6.33865">
        <ele>529</ele>
        <time>2025-04-21T13:09:55.883Z</time>
      </trkpt>
      <trkpt lat="43.22381" lon="6.33862">
        <ele>528.7</ele>
        <time>2025-04-21T13:10:01Z</time>
      </trkpt>
      <trkpt lat="43.22375" lon="6.33859">
        <ele>528.4</ele>
        <time>2025-04-21T13:10:06.931Z</time>
      </trkpt>
      <trkpt lat="43.2237" lon="6.33856">
        <ele>528.2</ele>
        <time>2025-04-21T13:10:12Z</time>
      </trkpt>
      <trkpt lat="43.22369" lon="6.33854">
        <ele>528.1</ele>
        <time>2025-04-21T13:10:43Z</time>
      </trkpt>
      <trkpt lat="43.22362" lon="6.33855">
        <ele>528</ele>
        <time>2025-04-21T13:11:27Z</time>
      </trkpt>
      <trkpt lat="43.22357" lon="6.3385">
        <ele>528.3</ele>
        <time>2025-04-21T13:11:32.999Z</time>
      </trkpt>
      <trkpt lat="43.22352" lon="6.33845">
        <ele>528.7</ele>
        <time>2025-04-21T13:11:39Z</time>
      </trkpt>
      <trkpt lat="43.22347" lon="6.33842">
        <ele>529</ele>
        <time>2025-04-21T13:11:43.853Z</time>
      </trkpt>
      <trkpt lat="43.22342" lon="6.33838">
        <ele>529.4</ele>
        <time>2025-04-21T13:11:49Z</time>
      </trkpt>
      <trkpt lat="43.22337" lon="6.33836">
        <ele>529.7</ele>
        <time>2025-04-21T13:11:53.492Z</time>
      </trkpt>
      <trkpt lat="43.22331" lon="6.33833">
        <ele>530.3</ele>
        <time>2025-04-21T13:11:59Z</time>
      </trkpt>
      <trkpt lat="43.22327" lon="6.33829">
        <ele>530.9</ele>
        <time>2025-04-21T13:12:03.756Z</time>
      </trkpt>
      <trkpt lat="43.22322" lon="6.33826">
        <ele>531.6</ele>
        <time>2025-04-21T13:12:09Z</time>
      </trkpt>
      <trkpt lat="43.22318" lon="6.33824">
        <ele>532.2</ele>
        <time>2025-04-21T13:12:14.258Z</time>
      </trkpt>
      <trkpt lat="43.22313" lon="6.33821">
        <ele>533</ele>
        <time>2025-04-21T13:12:21Z</time>
      </trkpt>
      <trkpt lat="43.22307" lon="6.33818">
        <ele>533.9</ele>
        <time>2025-04-21T13:12:26.869Z</time>
      </trkpt>
      <trkpt lat="43.22301" lon="6.33814">
        <ele>534.8</ele>
        <time>2025-04-21T13:12:33Z</time>
      </trkpt>
      <trkpt lat="43.22296" lon="6.33811">
        <ele>535.6</ele>
        <time>2025-04-21T13:12:40.083Z</time>
      </trkpt>
      <trkpt lat="43.22292" lon="6.33808">
        <ele>536.2</ele>
        <time>2025-04-21T13:12:46Z</time>
      </trkpt>
      <trkpt lat="43.22286" lon="6.33805">
        <ele>537.1</ele>
        <time>2025-04-21T13:12:52.609Z</time>
      </trkpt>
      <trkpt lat="43.22281" lon="6.33803">
        <ele>537.7</ele>
        <time>2025-04-21T13:12:58Z</time>
      </trkpt>
      <trkpt lat="43.22276" lon="6.33799">
        <ele>538.3</ele>
        <time>2025-04-21T13:13:03.110Z</time>
      </trkpt>
      <trkpt lat="43.2227" lon="6.33795">
        <ele>538.9</ele>
        <time>2025-04-21T13:13:09Z</time>
      </trkpt>
      <trkpt lat="43.22265" lon="6.33793">
        <ele>539.3</ele>
        <time>2025-04-21T13:13:13.999Z</time>
      </trkpt>
      <trkpt lat="43.2226" lon="6.33791">
        <ele>539.8</ele>
        <time>2025-04-21T13:13:19Z</time>
      </trkpt>
      <trkpt lat="43.22255" lon="6.33789">
        <ele>540.4</ele>
        <time>2025-04-21T13:13:24.502Z</time>
      </trkpt>
      <trkpt lat="43.22251" lon="6.33787">
        <ele>540.9</ele>
        <time>2025-04-21T13:13:29Z</time>
      </trkpt>
      <trkpt lat="43.22246" lon="6.33785">
        <ele>541.4</ele>
        <time>2025-04-21T13:13:33.999Z</time>
      </trkpt>
      <trkpt lat="43.22241" lon="6.33783">
        <ele>541.8</ele>
        <time>2025-04-21T13:13:39Z</time>
      </trkpt>
      <trkpt lat="43.22236" lon="6.33783">
        <ele>541.9</ele>
        <time>2025-04-21T13:13:43.545Z</time>
      </trkpt>
      <trkpt lat="43.2223" lon="6.33783">
        <ele>542.2</ele>
        <time>2025-04-21T13:13:49Z</time>
      </trkpt>
      <trkpt lat="43.22225" lon="6.33781">
        <ele>542.6</ele>
        <time>2025-04-21T13:13:53.883Z</time>
      </trkpt>
      <trkpt lat="43.2222" lon="6.33778">
        <ele>543</ele>
        <time>2025-04-21T13:13:59Z</time>
      </trkpt>
      <trkpt lat="43.22214" lon="6.33778">
        <ele>543</ele>
        <time>2025-04-21T13:14:03.981Z</time>
      </trkpt>
      <trkpt lat="43.22208" lon="6.33777">
        <ele>543</ele>
        <time>2025-04-21T13:14:09Z</time>
      </trkpt>
      <trkpt lat="43.22204" lon="6.33771">
        <ele>543.4</ele>
        <time>2025-04-21T13:14:13.243Z</time>
      </trkpt>
      <trkpt lat="43.22199" lon="6.33765">
        <ele>543.8</ele>
        <time>2025-04-21T13:14:18Z</time>
      </trkpt>
      <trkpt lat="43.22195" lon="6.33761">
        <ele>544.2</ele>
        <time>2025-04-21T13:14:22.609Z</time>
      </trkpt>
      <trkpt lat="43.2219" lon="6.33757">
        <ele>544.3</ele>
        <time>2025-04-21T13:14:28Z</time>
      </trkpt>
      <trkpt lat="43.22186" lon="6.33751">
        <ele>544.3</ele>
        <time>2025-04-21T13:14:34.499Z</time>
      </trkpt>
      <trkpt lat="43.22182" lon="6.33745">
        <ele>543.7</ele>
        <time>2025-04-21T13:14:41Z</time>
      </trkpt>
      <trkpt lat="43.22179" lon="6.33737">
        <ele>543</ele>
        <time>2025-04-21T13:14:45.811Z</time>
      </trkpt>
      <trkpt lat="43.22175" lon="6.33729">
        <ele>542.4</ele>
        <time>2025-04-21T13:14:51Z</time>
      </trkpt>
      <trkpt lat="43.22173" lon="6.33722">
        <ele>542</ele>
        <time>2025-04-21T13:14:56.081Z</time>
      </trkpt>
      <trkpt lat="43.2217" lon="6.33716">
        <ele>541.5</ele>
        <time>2025-04-21T13:15:01Z</time>
      </trkpt>
      <trkpt lat="43.22166" lon="6.33709">
        <ele>541.1</ele>
        <time>2025-04-21T13:15:05.999Z</time>
      </trkpt>
      <trkpt lat="43.22162" lon="6.33702">
        <ele>541</ele>
        <time>2025-04-21T13:15:11Z</time>
      </trkpt>
      <trkpt lat="43.22158" lon="6.33695">
        <ele>541.3</ele>
        <time>2025-04-21T13:15:15.999Z</time>
      </trkpt>
      <trkpt lat="43.22154" lon="6.33688">
        <ele>541.3</ele>
        <time>2025-04-21T13:15:21Z</time>
      </trkpt>
      <trkpt lat="43.22152" lon="6.33682">
        <ele>541</ele>
        <time>2025-04-21T13:15:25.290Z</time>
      </trkpt>
      <trkpt lat="43.2215" lon="6.33677">
        <ele>540.8</ele>
        <time>2025-04-21T13:15:29Z</time>
      </trkpt>
      <trkpt lat="43.22146" lon="6.33671">
        <ele>540.7</ele>
        <time>2025-04-21T13:15:34.009Z</time>
      </trkpt>
      <trkpt lat="43.22143" lon="6.33666">
        <ele>540.5</ele>
        <time>2025-04-21T13:15:38Z</time>
      </trkpt>
      <trkpt lat="43.2214" lon="6.33659">
        <ele>540.6</ele>
        <time>2025-04-21T13:15:44.499Z</time>
      </trkpt>
      <trkpt lat="43.22137" lon="6.33652">
        <ele>540.6</ele>
        <time>2025-04-21T13:15:51Z</time>
      </trkpt>
      <trkpt lat="43.22132" lon="6.33643">
        <ele>540.5</ele>
        <time>2025-04-21T13:15:56.499Z</time>
      </trkpt>
      <trkpt lat="43.22127" lon="6.33634">
        <ele>540.2</ele>
        <time>2025-04-21T13:16:02Z</time>
      </trkpt>
      <trkpt lat="43.22123" lon="6.33629">
        <ele>540.1</ele>
        <time>2025-04-21T13:16:06.489Z</time>
      </trkpt>
      <trkpt lat="43.22118" lon="6.33623">
        <ele>540</ele>
        <time>2025-04-21T13:16:12Z</time>
      </trkpt>
      <trkpt lat="43.22114" lon="6.33615">
        <ele>539.9</ele>
        <time>2025-04-21T13:16:17.738Z</time>
      </trkpt>
      <trkpt lat="43.2211" lon="6.33608">
        <ele>540.1</ele>
        <time>2025-04-21T13:16:23Z</time>
      </trkpt>
      <trkpt lat="43.22105" lon="6.33604">
        <ele>540</ele>
        <time>2025-04-21T13:16:27.499Z</time>
      </trkpt>
      <trkpt lat="43.221" lon="6.336">
        <ele>540</ele>
        <time>2025-04-21T13:16:32Z</time>
      </trkpt>
      <trkpt lat="43.22095" lon="6.33597">
        <ele>539.9</ele>
        <time>2025-04-21T13:16:36.222Z</time>
      </trkpt>
      <trkpt lat="43.22089" lon="6.33595">
        <ele>539.8</ele>
        <time>2025-04-21T13:16:41Z</time>
      </trkpt>
      <trkpt lat="43.22085" lon="6.33592">
        <ele>539.7</ele>
        <time>2025-04-21T13:16:45.499Z</time>
      </trkpt>
      <trkpt lat="43.22081" lon="6.33589">
        <ele>539.5</ele>
        <time>2025-04-21T13:16:50Z</time>
      </trkpt>
      <trkpt lat="43.22075" lon="6.33584">
        <ele>538.8</ele>
        <time>2025-04-21T13:16:55.999Z</time>
      </trkpt>
      <trkpt lat="43.22069" lon="6.33579">
        <ele>537.9</ele>
        <time>2025-04-21T13:17:02Z</time>
      </trkpt>
      <trkpt lat="43.22063" lon="6.33576">
        <ele>537</ele>
        <time>2025-04-21T13:17:06.890Z</time>
      </trkpt>
      <trkpt lat="43.22057" lon="6.33572">
        <ele>536.2</ele>
        <time>2025-04-21T13:17:12Z</time>
      </trkpt>
      <trkpt lat="43.22051" lon="6.33568">
        <ele>535.3</ele>
        <time>2025-04-21T13:17:16.818Z</time>
      </trkpt>
      <trkpt lat="43.22046" lon="6.33564">
        <ele>534.5</ele>
        <time>2025-04-21T13:17:21Z</time>
      </trkpt>
      <trkpt lat="43.22041" lon="6.3356">
        <ele>533.8</ele>
        <time>2025-04-21T13:17:25.999Z</time>
      </trkpt>
      <trkpt lat="43.22036" lon="6.33556">
        <ele>533.2</ele>
        <time>2025-04-21T13:17:31Z</time>
      </trkpt>
      <trkpt lat="43.22029" lon="6.33552">
        <ele>532.4</ele>
        <time>2025-04-21T13:17:37.499Z</time>
      </trkpt>
      <trkpt lat="43.22022" lon="6.33548">
        <ele>531.8</ele>
        <time>2025-04-21T13:17:44Z</time>
      </trkpt>
      <trkpt lat="43.22015" lon="6.33544">
        <ele>531.1</ele>
        <time>2025-04-21T13:17:49.971Z</time>
      </trkpt>
      <trkpt lat="43.22009" lon="6.33541">
        <ele>530.3</ele>
        <time>2025-04-21T13:17:55Z</time>
      </trkpt>
      <trkpt lat="43.22003" lon="6.33539">
        <ele>529.5</ele>
        <time>2025-04-21T13:18:00.424Z</time>
      </trkpt>
      <trkpt lat="43.21998" lon="6.33537">
        <ele>528.8</ele>
        <time>2025-04-21T13:18:05Z</time>
      </trkpt>
      <trkpt lat="43.21992" lon="6.33533">
        <ele>528.1</ele>
        <time>2025-04-21T13:18:10.500Z</time>
      </trkpt>
      <trkpt lat="43.21987" lon="6.3353">
        <ele>527.6</ele>
        <time>2025-04-21T13:18:15Z</time>
      </trkpt>
      <trkpt lat="43.21981" lon="6.33528">
        <ele>526.9</ele>
        <time>2025-04-21T13:18:19.548Z</time>
      </trkpt>
      <trkpt lat="43.21975" lon="6.33527">
        <ele>526.3</ele>
        <time>2025-04-21T13:18:24Z</time>
      </trkpt>
      <trkpt lat="43.21967" lon="6.33526">
        <ele>525.9</ele>
        <time>2025-04-21T13:18:33Z</time>
      </trkpt>
      <trkpt lat="43.21964" lon="6.33517">
        <ele>525.5</ele>
        <time>2025-04-21T13:18:38.238Z</time>
      </trkpt>
      <trkpt lat="43.21961" lon="6.33509">
        <ele>525.1</ele>
        <time>2025-04-21T13:18:43Z</time>
      </trkpt>
      <trkpt lat="43.21964" lon="6.33502">
        <ele>524.8</ele>
        <time>2025-04-21T13:18:47.687Z</time>
      </trkpt>
      <trkpt lat="43.21967" lon="6.33498">
        <ele>524.5</ele>
        <time>2025-04-21T13:18:51Z</time>
      </trkpt>
      <trkpt lat="43.21969" lon="6.33492">
        <ele>523.8</ele>
        <time>2025-04-21T13:18:55.653Z</time>
      </trkpt>
      <trkpt lat="43.21972" lon="6.33484">
        <ele>522.7</ele>
        <time>2025-04-21T13:19:02Z</time>
      </trkpt>
      <trkpt lat="43.21971" lon="6.33476">
        <ele>521.5</ele>
        <time>2025-04-21T13:19:08.500Z</time>
      </trkpt>
      <trkpt lat="43.21972" lon="6.33468">
        <ele>520.1</ele>
        <time>2025-04-21T13:19:15Z</time>
      </trkpt>
      <trkpt lat="43.21975" lon="6.33462">
        <ele>518.8</ele>
        <time>2025-04-21T13:19:22.826Z</time>
      </trkpt>
      <trkpt lat="43.21978" lon="6.33458">
        <ele>517.8</ele>
        <time>2025-04-21T13:19:29Z</time>
      </trkpt>
      <trkpt lat="43.21984" lon="6.3345">
        <ele>515.9</ele>
        <time>2025-04-21T13:19:35.927Z</time>
      </trkpt>
      <trkpt lat="43.21991" lon="6.33447">
        <ele>514.9</ele>
        <time>2025-04-21T13:19:42Z</time>
      </trkpt>
      <trkpt lat="43.21999" lon="6.33445">
        <ele>514.2</ele>
        <time>2025-04-21T13:19:49.480Z</time>
      </trkpt>
      <trkpt lat="43.22005" lon="6.33445">
        <ele>513.3</ele>
        <time>2025-04-21T13:19:55Z</time>
      </trkpt>
      <trkpt lat="43.2201" lon="6.33444">
        <ele>512.1</ele>
        <time>2025-04-21T13:20:00.464Z</time>
      </trkpt>
      <trkpt lat="43.22016" lon="6.33445">
        <ele>511.3</ele>
        <time>2025-04-21T13:20:07Z</time>
      </trkpt>
      <trkpt lat="43.22023" lon="6.33447">
        <ele>510.7</ele>
        <time>2025-04-21T13:20:15.336Z</time>
      </trkpt>
      <trkpt lat="43.22027" lon="6.33447">
        <ele>510.1</ele>
        <time>2025-04-21T13:20:20Z</time>
      </trkpt>
      <trkpt lat="43.22032" lon="6.33448">
        <ele>510</ele>
        <time>2025-04-21T13:20:26.649Z</time>
      </trkpt>
      <trkpt lat="43.22036" lon="6.33447">
        <ele>509.3</ele>
        <time>2025-04-21T13:20:32Z</time>
      </trkpt>
      <trkpt lat="43.22042" lon="6.33447">
        <ele>508.8</ele>
        <time>2025-04-21T13:20:38.297Z</time>
      </trkpt>
      <trkpt lat="43.22048" lon="6.33444">
        <ele>507.4</ele>
        <time>2025-04-21T13:20:45Z</time>
      </trkpt>
      <trkpt lat="43.22053" lon="6.33442">
        <ele>506.2</ele>
        <time>2025-04-21T13:20:51.399Z</time>
      </trkpt>
      <trkpt lat="43.22057" lon="6.33439">
        <ele>505.1</ele>
        <time>2025-04-21T13:20:57Z</time>
      </trkpt>
      <trkpt lat="43.22061" lon="6.33438">
        <ele>505.4</ele>
        <time>2025-04-21T13:21:01.384Z</time>
      </trkpt>
      <trkpt lat="43.22066" lon="6.33436">
        <ele>505.6</ele>
        <time>2025-04-21T13:21:07Z</time>
      </trkpt>
      <trkpt lat="43.22071" lon="6.33433">
        <ele>505.6</ele>
        <time>2025-04-21T13:21:11.984Z</time>
      </trkpt>
      <trkpt lat="43.22076" lon="6.33425">
        <ele>504.3</ele>
        <time>2025-04-21T13:21:19Z</time>
      </trkpt>
      <trkpt lat="43.22081" lon="6.33419">
        <ele>503.9</ele>
        <time>2025-04-21T13:21:25.073Z</time>
      </trkpt>
      <trkpt lat="43.22085" lon="6.33412">
        <ele>502.4</ele>
        <time>2025-04-21T13:21:31Z</time>
      </trkpt>
      <trkpt lat="43.22092" lon="6.33408">
        <ele>502</ele>
        <time>2025-04-21T13:21:36.506Z</time>
      </trkpt>
      <trkpt lat="43.22097" lon="6.33403">
        <ele>501</ele>
        <time>2025-04-21T13:21:41Z</time>
      </trkpt>
      <trkpt lat="43.22102" lon="6.33403">
        <ele>501.9</ele>
        <time>2025-04-21T13:21:45.469Z</time>
      </trkpt>
      <trkpt lat="43.22107" lon="6.33398">
        <ele>501.2</ele>
        <time>2025-04-21T13:21:51Z</time>
      </trkpt>
      <trkpt lat="43.22113" lon="6.33394">
        <ele>501</ele>
        <time>2025-04-21T13:21:56.500Z</time>
      </trkpt>
      <trkpt lat="43.22119" lon="6.3339">
        <ele>500.8</ele>
        <time>2025-04-21T13:22:02Z</time>
      </trkpt>
      <trkpt lat="43.22126" lon="6.33386">
        <ele>500.6</ele>
        <time>2025-04-21T13:22:08.179Z</time>
      </trkpt>
      <trkpt lat="43.22131" lon="6.33379">
        <ele>499</ele>
        <time>2025-04-21T13:22:14Z</time>
      </trkpt>
      <trkpt lat="43.22137" lon="6.33375">
        <ele>498.7</ele>
        <time>2025-04-21T13:22:38Z</time>
      </trkpt>
      <trkpt lat="43.2214" lon="6.33371">
        <ele>497.8</ele>
        <time>2025-04-21T13:22:41.733Z</time>
      </trkpt>
      <trkpt lat="43.22146" lon="6.33366">
        <ele>497.2</ele>
        <time>2025-04-21T13:22:48Z</time>
      </trkpt>
      <trkpt lat="43.22151" lon="6.33359">
        <ele>496</ele>
        <time>2025-04-21T13:22:53.181Z</time>
      </trkpt>
      <trkpt lat="43.22156" lon="6.33353">
        <ele>495.4</ele>
        <time>2025-04-21T13:22:58Z</time>
      </trkpt>
      <trkpt lat="43.22158" lon="6.33349">
        <ele>494.8</ele>
        <time>2025-04-21T13:23:02.374Z</time>
      </trkpt>
      <trkpt lat="43.2216" lon="6.33341">
        <ele>493.1</ele>
        <time>2025-04-21T13:23:10Z</time>
      </trkpt>
      <trkpt lat="43.22163" lon="6.33334">
        <ele>492.1</ele>
        <time>2025-04-21T13:23:16.119Z</time>
      </trkpt>
      <trkpt lat="43.22166" lon="6.33329">
        <ele>491.7</ele>
        <time>2025-04-21T13:23:21Z</time>
      </trkpt>
      <trkpt lat="43.2217" lon="6.33322">
        <ele>490.7</ele>
        <time>2025-04-21T13:23:26.995Z</time>
      </trkpt>
      <trkpt lat="43.22174" lon="6.33317">
        <ele>490.1</ele>
        <time>2025-04-21T13:23:32Z</time>
      </trkpt>
      <trkpt lat="43.22178" lon="6.3331">
        <ele>489.1</ele>
        <time>2025-04-21T13:23:39.674Z</time>
      </trkpt>
      <trkpt lat="43.22183" lon="6.33305">
        <ele>488.8</ele>
        <time>2025-04-21T13:23:47Z</time>
      </trkpt>
      <trkpt lat="43.22188" lon="6.333">
        <ele>488.3</ele>
        <time>2025-04-21T13:23:55.535Z</time>
      </trkpt>
      <trkpt lat="43.22192" lon="6.33295">
        <ele>487.6</ele>
        <time>2025-04-21T13:24:03Z</time>
      </trkpt>
      <trkpt lat="43.22197" lon="6.33291">
        <ele>486.8</ele>
        <time>2025-04-21T13:24:09.500Z</time>
      </trkpt>
      <trkpt lat="43.22202" lon="6.33287">
        <ele>485.6</ele>
        <time>2025-04-21T13:24:16Z</time>
      </trkpt>
      <trkpt lat="43.22208" lon="6.33283">
        <ele>484.4</ele>
        <time>2025-04-21T13:24:22.903Z</time>
      </trkpt>
      <trkpt lat="43.22216" lon="6.33278">
        <ele>483.1</ele>
        <time>2025-04-21T13:24:32Z</time>
      </trkpt>
      <trkpt lat="43.22221" lon="6.33275">
        <ele>482.1</ele>
        <time>2025-04-21T13:24:39.506Z</time>
      </trkpt>
      <trkpt lat="43.22227" lon="6.33273">
        <ele>481.2</ele>
        <time>2025-04-21T13:24:48Z</time>
      </trkpt>
      <trkpt lat="43.22233" lon="6.33272">
        <ele>480.5</ele>
        <time>2025-04-21T13:24:55.625Z</time>
      </trkpt>
      <trkpt lat="43.22238" lon="6.33271">
        <ele>479.9</ele>
        <time>2025-04-21T13:25:02Z</time>
      </trkpt>
      <trkpt lat="43.22244" lon="6.33267">
        <ele>478.5</ele>
        <time>2025-04-21T13:25:08.876Z</time>
      </trkpt>
      <trkpt lat="43.22248" lon="6.33267">
        <ele>478.4</ele>
        <time>2025-04-21T13:25:13Z</time>
      </trkpt>
      <trkpt lat="43.22253" lon="6.33267">
        <ele>478.2</ele>
        <time>2025-04-21T13:25:17.830Z</time>
      </trkpt>
      <trkpt lat="43.22259" lon="6.33264">
        <ele>477.4</ele>
        <time>2025-04-21T13:25:24Z</time>
      </trkpt>
      <trkpt lat="43.22265" lon="6.33265">
        <ele>477.5</ele>
        <time>2025-04-21T13:25:27.743Z</time>
      </trkpt>
      <trkpt lat="43.22271" lon="6.3326">
        <ele>476.2</ele>
        <time>2025-04-21T13:25:32.090Z</time>
      </trkpt>
      <trkpt lat="43.22277" lon="6.33257">
        <ele>475.5</ele>
        <time>2025-04-21T13:25:36.045Z</time>
      </trkpt>
      <trkpt lat="43.22283" lon="6.33254">
        <ele>474.6</ele>
        <time>2025-04-21T13:25:40Z</time>
      </trkpt>
      <trkpt lat="43.22289" lon="6.33251">
        <ele>473.8</ele>
        <time>2025-04-21T13:25:43.042Z</time>
      </trkpt>
      <trkpt lat="43.22294" lon="6.33248">
        <ele>473</ele>
        <time>2025-04-21T13:25:46.084Z</time>
      </trkpt>
      <trkpt lat="43.22296" lon="6.33241">
        <ele>471.5</ele>
        <time>2025-04-21T13:25:48.997Z</time>
      </trkpt>
      <trkpt lat="43.22297" lon="6.33233">
        <ele>470.1</ele>
        <time>2025-04-21T13:25:51.910Z</time>
      </trkpt>
      <trkpt lat="43.22293" lon="6.33229">
        <ele>469.1</ele>
        <time>2025-04-21T13:25:54.454Z</time>
      </trkpt>
      <trkpt lat="43.22289" lon="6.33225">
        <ele>467.9</ele>
        <time>2025-04-21T13:25:57Z</time>
      </trkpt>
      <trkpt lat="43.22284" lon="6.33216">
        <ele>465.3</ele>
        <time>2025-04-21T13:26:16Z</time>
      </trkpt>
      <trkpt lat="43.22281" lon="6.33212">
        <ele>464.1</ele>
        <time>2025-04-21T13:26:22.412Z</time>
      </trkpt>
      <trkpt lat="43.22277" lon="6.33208">
        <ele>462.9</ele>
        <time>2025-04-21T13:26:30Z</time>
      </trkpt>
      <trkpt lat="43.22277" lon="6.33198">
        <ele>460.7</ele>
        <time>2025-04-21T13:26:47Z</time>
      </trkpt>
      <trkpt lat="43.22275" lon="6.33189">
        <ele>459</ele>
        <time>2025-04-21T13:26:52.499Z</time>
      </trkpt>
      <trkpt lat="43.22273" lon="6.3318">
        <ele>457.5</ele>
        <time>2025-04-21T13:26:58Z</time>
      </trkpt>
      <trkpt lat="43.22267" lon="6.33173">
        <ele>455</ele>
        <time>2025-04-21T13:27:10Z</time>
      </trkpt>
      <trkpt lat="43.22272" lon="6.33174">
        <ele>456.4</ele>
        <time>2025-04-21T13:27:43Z</time>
      </trkpt>
      <trkpt lat="43.22271" lon="6.33174">
        <ele>456.2</ele>
        <time>2025-04-21T13:28:37Z</time>
      </trkpt>
      <trkpt lat="43.22273" lon="6.33169">
        <ele>455.9</ele>
        <time>2025-04-21T13:29:29Z</time>
      </trkpt>
      <trkpt lat="43.22278" lon="6.33161">
        <ele>456.4</ele>
        <time>2025-04-21T13:29:51Z</time>
      </trkpt>
      <trkpt lat="43.22282" lon="6.33156">
        <ele>455.3</ele>
        <time>2025-04-21T13:29:57.943Z</time>
      </trkpt>
      <trkpt lat="43.22285" lon="6.33151">
        <ele>454.4</ele>
        <time>2025-04-21T13:30:04Z</time>
      </trkpt>
      <trkpt lat="43.22289" lon="6.33143">
        <ele>452.9</ele>
        <time>2025-04-21T13:30:12.627Z</time>
      </trkpt>
      <trkpt lat="43.22294" lon="6.33135">
        <ele>451.3</ele>
        <time>2025-04-21T13:30:22Z</time>
      </trkpt>
      <trkpt lat="43.22297" lon="6.33128">
        <ele>450.2</ele>
        <time>2025-04-21T13:30:27.249Z</time>
      </trkpt>
      <trkpt lat="43.22301" lon="6.33121">
        <ele>449.2</ele>
        <time>2025-04-21T13:30:33Z</time>
      </trkpt>
      <trkpt lat="43.22303" lon="6.33115">
        <ele>448.5</ele>
        <time>2025-04-21T13:30:38.230Z</time>
      </trkpt>
      <trkpt lat="43.22306" lon="6.33109">
        <ele>447.9</ele>
        <time>2025-04-21T13:30:44Z</time>
      </trkpt>
      <trkpt lat="43.22309" lon="6.33102">
        <ele>447</ele>
        <time>2025-04-21T13:30:51.158Z</time>
      </trkpt>
      <trkpt lat="43.22313" lon="6.33095">
        <ele>445.9</ele>
        <time>2025-04-21T13:30:59Z</time>
      </trkpt>
      <trkpt lat="43.22318" lon="6.33088">
        <ele>444.4</ele>
        <time>2025-04-21T13:31:06.355Z</time>
      </trkpt>
      <trkpt lat="43.22324" lon="6.33082">
        <ele>442.7</ele>
        <time>2025-04-21T13:31:14Z</time>
      </trkpt>
      <trkpt lat="43.22331" lon="6.33077">
        <ele>440.9</ele>
        <time>2025-04-21T13:31:23.139Z</time>
      </trkpt>
      <trkpt lat="43.22339" lon="6.33073">
        <ele>438.3</ele>
        <time>2025-04-21T13:31:33Z</time>
      </trkpt>
      <trkpt lat="43.22343" lon="6.33068">
        <ele>436.9</ele>
        <time>2025-04-21T13:31:39.531Z</time>
      </trkpt>
      <trkpt lat="43.22348" lon="6.33063">
        <ele>435.1</ele>
        <time>2025-04-21T13:31:47Z</time>
      </trkpt>
      <trkpt lat="43.22351" lon="6.33056">
        <ele>434</ele>
        <time>2025-04-21T13:31:53.000Z</time>
      </trkpt>
      <trkpt lat="43.22354" lon="6.33049">
        <ele>432.5</ele>
        <time>2025-04-21T13:31:59Z</time>
      </trkpt>
      <trkpt lat="43.22357" lon="6.33044">
        <ele>431.2</ele>
        <time>2025-04-21T13:32:02.767Z</time>
      </trkpt>
      <trkpt lat="43.2236" lon="6.33038">
        <ele>429.8</ele>
        <time>2025-04-21T13:32:07Z</time>
      </trkpt>
      <trkpt lat="43.2236" lon="6.33031">
        <ele>429.5</ele>
        <time>2025-04-21T13:32:11.789Z</time>
      </trkpt>
      <trkpt lat="43.22359" lon="6.33025">
        <ele>429.5</ele>
        <time>2025-04-21T13:32:16Z</time>
      </trkpt>
      <trkpt lat="43.22358" lon="6.33018">
        <ele>429</ele>
        <time>2025-04-21T13:32:22.999Z</time>
      </trkpt>
      <trkpt lat="43.22357" lon="6.33011">
        <ele>428.6</ele>
        <time>2025-04-21T13:32:30Z</time>
      </trkpt>
      <trkpt lat="43.22355" lon="6.33003">
        <ele>428.3</ele>
        <time>2025-04-21T13:32:35.297Z</time>
      </trkpt>
      <trkpt lat="43.22354" lon="6.32994">
        <ele>427.5</ele>
        <time>2025-04-21T13:32:41Z</time>
      </trkpt>
      <trkpt lat="43.22356" lon="6.32988">
        <ele>426</ele>
        <time>2025-04-21T13:32:45.500Z</time>
      </trkpt>
      <trkpt lat="43.22358" lon="6.32982">
        <ele>424.5</ele>
        <time>2025-04-21T13:32:50Z</time>
      </trkpt>
      <trkpt lat="43.22358" lon="6.3297">
        <ele>422.8</ele>
        <time>2025-04-21T13:33:00Z</time>
      </trkpt>
      <trkpt lat="43.22358" lon="6.32963">
        <ele>421.8</ele>
        <time>2025-04-21T13:33:04.952Z</time>
      </trkpt>
      <trkpt lat="43.22357" lon="6.32956">
        <ele>421.1</ele>
        <time>2025-04-21T13:33:10Z</time>
      </trkpt>
      <trkpt lat="43.22353" lon="6.32947">
        <ele>421</ele>
        <time>2025-04-21T13:33:21Z</time>
      </trkpt>
      <trkpt lat="43.2235" lon="6.32938">
        <ele>420.5</ele>
        <time>2025-04-21T13:33:26.734Z</time>
      </trkpt>
      <trkpt lat="43.22347" lon="6.32928">
        <ele>419.6</ele>
        <time>2025-04-21T13:33:33Z</time>
      </trkpt>
      <trkpt lat="43.22343" lon="6.32918">
        <ele>418.8</ele>
        <time>2025-04-21T13:33:38.354Z</time>
      </trkpt>
      <trkpt lat="43.2234" lon="6.32909">
        <ele>417.9</ele>
        <time>2025-04-21T13:33:43Z</time>
      </trkpt>
      <trkpt lat="43.22339" lon="6.32901">
        <ele>416.6</ele>
        <time>2025-04-21T13:33:48.036Z</time>
      </trkpt>
      <trkpt lat="43.22339" lon="6.32893">
        <ele>415.2</ele>
        <time>2025-04-21T13:33:53Z</time>
      </trkpt>
      <trkpt lat="43.22337" lon="6.32887">
        <ele>414.3</ele>
        <time>2025-04-21T13:33:57.673Z</time>
      </trkpt>
      <trkpt lat="43.22335" lon="6.3288">
        <ele>413.5</ele>
        <time>2025-04-21T13:34:03Z</time>
      </trkpt>
      <trkpt lat="43.22332" lon="6.32874">
        <ele>413</ele>
        <time>2025-04-21T13:34:08.901Z</time>
      </trkpt>
      <trkpt lat="43.2233" lon="6.32867">
        <ele>412.2</ele>
        <time>2025-04-21T13:34:15Z</time>
      </trkpt>
      <trkpt lat="43.22326" lon="6.32862">
        <ele>411.7</ele>
        <time>2025-04-21T13:34:21.499Z</time>
      </trkpt>
      <trkpt lat="43.22322" lon="6.32857">
        <ele>410.8</ele>
        <time>2025-04-21T13:34:28Z</time>
      </trkpt>
      <trkpt lat="43.22316" lon="6.3285">
        <ele>409.4</ele>
        <time>2025-04-21T13:34:33.371Z</time>
      </trkpt>
      <trkpt lat="43.22309" lon="6.32844">
        <ele>408.4</ele>
        <time>2025-04-21T13:34:39Z</time>
      </trkpt>
      <trkpt lat="43.22307" lon="6.32837">
        <ele>406.8</ele>
        <time>2025-04-21T13:34:44.288Z</time>
      </trkpt>
      <trkpt lat="43.22304" lon="6.3283">
        <ele>405.3</ele>
        <time>2025-04-21T13:34:50Z</time>
      </trkpt>
      <trkpt lat="43.22307" lon="6.32821">
        <ele>402.8</ele>
        <time>2025-04-21T13:35:03Z</time>
      </trkpt>
      <trkpt lat="43.22313" lon="6.3282">
        <ele>402</ele>
        <time>2025-04-21T13:35:10.914Z</time>
      </trkpt>
      <trkpt lat="43.22319" lon="6.32818">
        <ele>400.9</ele>
        <time>2025-04-21T13:35:19Z</time>
      </trkpt>
      <trkpt lat="43.22325" lon="6.32813">
        <ele>399</ele>
        <time>2025-04-21T13:35:26.441Z</time>
      </trkpt>
      <trkpt lat="43.2233" lon="6.32808">
        <ele>397.1</ele>
        <time>2025-04-21T13:35:33Z</time>
      </trkpt>
      <trkpt lat="43.22337" lon="6.32805">
        <ele>395.4</ele>
        <time>2025-04-21T13:35:40.331Z</time>
      </trkpt>
      <trkpt lat="43.22343" lon="6.32801">
        <ele>393.8</ele>
        <time>2025-04-21T13:35:47Z</time>
      </trkpt>
      <trkpt lat="43.2235" lon="6.32802">
        <ele>393.3</ele>
        <time>2025-04-21T13:35:53.392Z</time>
      </trkpt>
      <trkpt lat="43.22356" lon="6.32804">
        <ele>393.2</ele>
        <time>2025-04-21T13:35:59Z</time>
      </trkpt>
      <trkpt lat="43.22362" lon="6.32805">
        <ele>392.7</ele>
        <time>2025-04-21T13:36:04.497Z</time>
      </trkpt>
      <trkpt lat="43.22369" lon="6.32807">
        <ele>391.4</ele>
        <time>2025-04-21T13:36:11Z</time>
      </trkpt>
      <trkpt lat="43.22375" lon="6.32811">
        <ele>391.1</ele>
        <time>2025-04-21T13:36:18.496Z</time>
      </trkpt>
      <trkpt lat="43.2238" lon="6.32815">
        <ele>391</ele>
        <time>2025-04-21T13:36:25Z</time>
      </trkpt>
      <trkpt lat="43.22388" lon="6.32812">
        <ele>388.1</ele>
        <time>2025-04-21T13:36:33.583Z</time>
      </trkpt>
      <trkpt lat="43.22396" lon="6.3281">
        <ele>386.3</ele>
        <time>2025-04-21T13:36:42Z</time>
      </trkpt>
      <trkpt lat="43.22404" lon="6.32809">
        <ele>384.8</ele>
        <time>2025-04-21T13:36:50.517Z</time>
      </trkpt>
      <trkpt lat="43.22412" lon="6.32809">
        <ele>383.7</ele>
        <time>2025-04-21T13:36:59Z</time>
      </trkpt>
      <trkpt lat="43.2242" lon="6.32807">
        <ele>382</ele>
        <time>2025-04-21T13:37:07.485Z</time>
      </trkpt>
      <trkpt lat="43.22425" lon="6.32806">
        <ele>381.3</ele>
        <time>2025-04-21T13:37:12.242Z</time>
      </trkpt>
      <trkpt lat="43.22429" lon="6.32805">
        <ele>380.4</ele>
        <time>2025-04-21T13:37:17Z</time>
      </trkpt>
      <trkpt lat="43.22437" lon="6.32805">
        <ele>379.6</ele>
        <time>2025-04-21T13:37:24.516Z</time>
      </trkpt>
      <trkpt lat="43.22442" lon="6.32805">
        <ele>378.9</ele>
        <time>2025-04-21T13:37:28.758Z</time>
      </trkpt>
      <trkpt lat="43.22446" lon="6.32804">
        <ele>378.3</ele>
        <time>2025-04-21T13:37:33Z</time>
      </trkpt>
      <trkpt lat="43.22452" lon="6.32801">
        <ele>376.6</ele>
        <time>2025-04-21T13:37:41.228Z</time>
      </trkpt>
      <trkpt lat="43.22459" lon="6.32797">
        <ele>374.7</ele>
        <time>2025-04-21T13:37:51Z</time>
      </trkpt>
      <trkpt lat="43.22465" lon="6.32797">
        <ele>374.2</ele>
        <time>2025-04-21T13:37:57.514Z</time>
      </trkpt>
      <trkpt lat="43.2247" lon="6.32796">
        <ele>373.4</ele>
        <time>2025-04-21T13:38:03Z</time>
      </trkpt>
      <trkpt lat="43.22477" lon="6.32789">
        <ele>370.7</ele>
        <time>2025-04-21T13:38:16Z</time>
      </trkpt>
      <trkpt lat="43.22483" lon="6.32787">
        <ele>369.5</ele>
        <time>2025-04-21T13:38:24.590Z</time>
      </trkpt>
      <trkpt lat="43.22489" lon="6.32786">
        <ele>368.6</ele>
        <time>2025-04-21T13:38:33Z</time>
      </trkpt>
      <trkpt lat="43.22495" lon="6.32787">
        <ele>368.2</ele>
        <time>2025-04-21T13:38:40.419Z</time>
      </trkpt>
      <trkpt lat="43.22501" lon="6.32789">
        <ele>368</ele>
        <time>2025-04-21T13:38:48Z</time>
      </trkpt>
      <trkpt lat="43.22509" lon="6.3279">
        <ele>366.6</ele>
        <time>2025-04-21T13:38:54.957Z</time>
      </trkpt>
      <trkpt lat="43.22517" lon="6.32792">
        <ele>365.1</ele>
        <time>2025-04-21T13:39:02Z</time>
      </trkpt>
      <trkpt lat="43.22523" lon="6.32787">
        <ele>363.2</ele>
        <time>2025-04-21T13:39:09.353Z</time>
      </trkpt>
      <trkpt lat="43.2253" lon="6.32781">
        <ele>362.3</ele>
        <time>2025-04-21T13:39:18Z</time>
      </trkpt>
      <trkpt lat="43.22534" lon="6.32779">
        <ele>362.7</ele>
        <time>2025-04-21T13:39:24.296Z</time>
      </trkpt>
      <trkpt lat="43.22539" lon="6.32777">
        <ele>363</ele>
        <time>2025-04-21T13:39:32Z</time>
      </trkpt>
      <trkpt lat="43.22543" lon="6.32775">
        <ele>363</ele>
        <time>2025-04-21T13:39:36.497Z</time>
      </trkpt>
      <trkpt lat="43.22548" lon="6.32773">
        <ele>363.1</ele>
        <time>2025-04-21T13:39:42Z</time>
      </trkpt>
      <trkpt lat="43.22552" lon="6.32768">
        <ele>362.7</ele>
        <time>2025-04-21T13:39:47.000Z</time>
      </trkpt>
      <trkpt lat="43.22556" lon="6.32763">
        <ele>362.4</ele>
        <time>2025-04-21T13:39:52Z</time>
      </trkpt>
      <trkpt lat="43.2256" lon="6.32759">
        <ele>362.6</ele>
        <time>2025-04-21T13:39:58.654Z</time>
      </trkpt>
      <trkpt lat="43.22563" lon="6.32754">
        <ele>362.5</ele>
        <time>2025-04-21T13:40:05Z</time>
      </trkpt>
      <trkpt lat="43.22566" lon="6.32749">
        <ele>362.4</ele>
        <time>2025-04-21T13:40:10.763Z</time>
      </trkpt>
      <trkpt lat="43.2257" lon="6.32743">
        <ele>362.1</ele>
        <time>2025-04-21T13:40:18Z</time>
      </trkpt>
      <trkpt lat="43.22573" lon="6.32737">
        <ele>361.7</ele>
        <time>2025-04-21T13:40:24.616Z</time>
      </trkpt>
      <trkpt lat="43.22576" lon="6.3273">
        <ele>361.2</ele>
        <time>2025-04-21T13:40:32Z</time>
      </trkpt>
      <trkpt lat="43.22579" lon="6.32721">
        <ele>360.3</ele>
        <time>2025-04-21T13:40:38.285Z</time>
      </trkpt>
      <trkpt lat="43.22582" lon="6.32713">
        <ele>359.2</ele>
        <time>2025-04-21T13:40:44Z</time>
      </trkpt>
      <trkpt lat="43.22586" lon="6.32704">
        <ele>358.3</ele>
        <time>2025-04-21T13:40:49.500Z</time>
      </trkpt>
      <trkpt lat="43.2259" lon="6.32695">
        <ele>357.5</ele>
        <time>2025-04-21T13:40:55Z</time>
      </trkpt>
      <trkpt lat="43.22594" lon="6.32688">
        <ele>356.9</ele>
        <time>2025-04-21T13:40:59.939Z</time>
      </trkpt>
      <trkpt lat="43.22599" lon="6.32682">
        <ele>356.8</ele>
        <time>2025-04-21T13:41:05Z</time>
      </trkpt>
      <trkpt lat="43.22604" lon="6.32677">
        <ele>356.9</ele>
        <time>2025-04-21T13:41:11.558Z</time>
      </trkpt>
      <trkpt lat="43.2261" lon="6.32672">
        <ele>357.4</ele>
        <time>2025-04-21T13:41:19Z</time>
      </trkpt>
      <trkpt lat="43.22615" lon="6.32666">
        <ele>357.6</ele>
        <time>2025-04-21T13:41:23.818Z</time>
      </trkpt>
      <trkpt lat="43.2262" lon="6.32659">
        <ele>358.5</ele>
        <time>2025-04-21T13:41:29Z</time>
      </trkpt>
      <trkpt lat="43.22622" lon="6.32653">
        <ele>358.4</ele>
        <time>2025-04-21T13:41:33.673Z</time>
      </trkpt>
      <trkpt lat="43.22624" lon="6.32646">
        <ele>358.2</ele>
        <time>2025-04-21T13:41:39Z</time>
      </trkpt>
      <trkpt lat="43.22626" lon="6.32638">
        <ele>357.9</ele>
        <time>2025-04-21T13:41:44.000Z</time>
      </trkpt>
      <trkpt lat="43.22628" lon="6.3263">
        <ele>357.8</ele>
        <time>2025-04-21T13:41:49Z</time>
      </trkpt>
      <trkpt lat="43.22632" lon="6.32622">
        <ele>358.8</ele>
        <time>2025-04-21T13:41:54.707Z</time>
      </trkpt>
      <trkpt lat="43.22635" lon="6.32614">
        <ele>359.4</ele>
        <time>2025-04-21T13:42:00Z</time>
      </trkpt>
      <trkpt lat="43.22638" lon="6.32606">
        <ele>359.8</ele>
        <time>2025-04-21T13:42:07.216Z</time>
      </trkpt>
      <trkpt lat="43.2264" lon="6.32598">
        <ele>359.6</ele>
        <time>2025-04-21T13:42:14Z</time>
      </trkpt>
      <trkpt lat="43.22643" lon="6.32591">
        <ele>360</ele>
        <time>2025-04-21T13:42:21.500Z</time>
      </trkpt>
      <trkpt lat="43.22646" lon="6.32584">
        <ele>360.4</ele>
        <time>2025-04-21T13:42:29Z</time>
      </trkpt>
      <trkpt lat="43.22651" lon="6.32575">
        <ele>361.6</ele>
        <time>2025-04-21T13:42:34.695Z</time>
      </trkpt>
      <trkpt lat="43.22656" lon="6.32567">
        <ele>363</ele>
        <time>2025-04-21T13:42:40Z</time>
      </trkpt>
      <trkpt lat="43.22659" lon="6.3256">
        <ele>363.7</ele>
        <time>2025-04-21T13:42:45.692Z</time>
      </trkpt>
      <trkpt lat="43.22662" lon="6.32552">
        <ele>364</ele>
        <time>2025-04-21T13:42:52Z</time>
      </trkpt>
      <trkpt lat="43.22666" lon="6.32545">
        <ele>364.8</ele>
        <time>2025-04-21T13:42:57.750Z</time>
      </trkpt>
      <trkpt lat="43.22669" lon="6.32538">
        <ele>365.1</ele>
        <time>2025-04-21T13:43:03Z</time>
      </trkpt>
      <trkpt lat="43.22672" lon="6.32532">
        <ele>365.6</ele>
        <time>2025-04-21T13:43:09.611Z</time>
      </trkpt>
      <trkpt lat="43.22676" lon="6.32526">
        <ele>366.9</ele>
        <time>2025-04-21T13:43:17Z</time>
      </trkpt>
      <trkpt lat="43.2268" lon="6.3252">
        <ele>368.5</ele>
        <time>2025-04-21T13:43:23.849Z</time>
      </trkpt>
      <trkpt lat="43.22685" lon="6.32515">
        <ele>370.7</ele>
        <time>2025-04-21T13:43:31Z</time>
      </trkpt>
      <trkpt lat="43.2269" lon="6.32509">
        <ele>372.7</ele>
        <time>2025-04-21T13:43:38.500Z</time>
      </trkpt>
      <trkpt lat="43.22695" lon="6.32503">
        <ele>374.6</ele>
        <time>2025-04-21T13:43:46Z</time>
      </trkpt>
      <trkpt lat="43.22697" lon="6.32496">
        <ele>374.7</ele>
        <time>2025-04-21T13:43:53.500Z</time>
      </trkpt>
      <trkpt lat="43.22699" lon="6.32489">
        <ele>374.7</ele>
        <time>2025-04-21T13:44:01Z</time>
      </trkpt>
      <trkpt lat="43.22701" lon="6.32483">
        <ele>374.8</ele>
        <time>2025-04-21T13:44:06.827Z</time>
      </trkpt>
      <trkpt lat="43.22704" lon="6.32476">
        <ele>375</ele>
        <time>2025-04-21T13:44:14Z</time>
      </trkpt>
      <trkpt lat="43.22709" lon="6.32471">
        <ele>375.9</ele>
        <time>2025-04-21T13:44:19.153Z</time>
      </trkpt>
      <trkpt lat="43.22715" lon="6.32466">
        <ele>376.7</ele>
        <time>2025-04-21T13:44:25Z</time>
      </trkpt>
      <trkpt lat="43.22718" lon="6.3246">
        <ele>376.2</ele>
        <time>2025-04-21T13:44:30.769Z</time>
      </trkpt>
      <trkpt lat="43.2272" lon="6.32454">
        <ele>375.5</ele>
        <time>2025-04-21T13:44:36Z</time>
      </trkpt>
      <trkpt lat="43.22724" lon="6.32447">
        <ele>375.5</ele>
        <time>2025-04-21T13:44:41.500Z</time>
      </trkpt>
      <trkpt lat="43.22727" lon="6.32441">
        <ele>375.5</ele>
        <time>2025-04-21T13:44:46Z</time>
      </trkpt>
      <trkpt lat="43.22729" lon="6.32433">
        <ele>374.8</ele>
        <time>2025-04-21T13:44:53.411Z</time>
      </trkpt>
      <trkpt lat="43.22731" lon="6.32426">
        <ele>374.3</ele>
        <time>2025-04-21T13:45:00Z</time>
      </trkpt>
      <trkpt lat="43.22732" lon="6.32417">
        <ele>373</ele>
        <time>2025-04-21T13:45:06.500Z</time>
      </trkpt>
      <trkpt lat="43.22733" lon="6.32408">
        <ele>373.1</ele>
        <time>2025-04-21T13:45:13Z</time>
      </trkpt>
      <trkpt lat="43.22734" lon="6.32399">
        <ele>373.3</ele>
        <time>2025-04-21T13:45:19.537Z</time>
      </trkpt>
      <trkpt lat="43.22734" lon="6.3239">
        <ele>373</ele>
        <time>2025-04-21T13:45:26Z</time>
      </trkpt>
      <trkpt lat="43.22735" lon="6.32382">
        <ele>373.3</ele>
        <time>2025-04-21T13:45:37.177Z</time>
      </trkpt>
      <trkpt lat="43.22736" lon="6.32375">
        <ele>373.7</ele>
        <time>2025-04-21T13:45:47Z</time>
      </trkpt>
      <trkpt lat="43.22738" lon="6.32373">
        <ele>374.5</ele>
        <time>2025-04-21T13:46:33Z</time>
      </trkpt>
      <trkpt lat="43.2274" lon="6.32368">
        <ele>375.3</ele>
        <time>2025-04-21T13:46:46.948Z</time>
      </trkpt>
      <trkpt lat="43.22741" lon="6.32362">
        <ele>375.5</ele>
        <time>2025-04-21T13:47:02Z</time>
      </trkpt>
      <trkpt lat="43.22745" lon="6.32355">
        <ele>375.7</ele>
        <time>2025-04-21T13:47:09.700Z</time>
      </trkpt>
      <trkpt lat="43.22748" lon="6.32349">
        <ele>375.6</ele>
        <time>2025-04-21T13:47:16Z</time>
      </trkpt>
      <trkpt lat="43.22749" lon="6.3234">
        <ele>374.1</ele>
        <time>2025-04-21T13:47:21.500Z</time>
      </trkpt>
      <trkpt lat="43.2275" lon="6.32331">
        <ele>372.5</ele>
        <time>2025-04-21T13:47:27Z</time>
      </trkpt>
      <trkpt lat="43.22753" lon="6.32324">
        <ele>372.5</ele>
        <time>2025-04-21T13:47:32.274Z</time>
      </trkpt>
      <trkpt lat="43.22756" lon="6.32318">
        <ele>373</ele>
        <time>2025-04-21T13:47:37Z</time>
      </trkpt>
      <trkpt lat="43.22757" lon="6.32311">
        <ele>372.3</ele>
        <time>2025-04-21T13:47:41.868Z</time>
      </trkpt>
      <trkpt lat="43.22759" lon="6.32304">
        <ele>372.6</ele>
        <time>2025-04-21T13:47:47Z</time>
      </trkpt>
      <trkpt lat="43.22758" lon="6.32296">
        <ele>372.2</ele>
        <time>2025-04-21T13:47:51.832Z</time>
      </trkpt>
      <trkpt lat="43.22758" lon="6.32289">
        <ele>372.5</ele>
        <time>2025-04-21T13:47:56Z</time>
      </trkpt>
      <trkpt lat="43.22758" lon="6.32282">
        <ele>372.7</ele>
        <time>2025-04-21T13:48:01.943Z</time>
      </trkpt>
      <trkpt lat="43.22759" lon="6.32275">
        <ele>373.6</ele>
        <time>2025-04-21T13:48:08Z</time>
      </trkpt>
      <trkpt lat="43.2276" lon="6.32268">
        <ele>374.5</ele>
        <time>2025-04-21T13:48:13.490Z</time>
      </trkpt>
      <trkpt lat="43.22762" lon="6.3226">
        <ele>376</ele>
        <time>2025-04-21T13:48:20Z</time>
      </trkpt>
      <trkpt lat="43.22761" lon="6.32251">
        <ele>375.7</ele>
        <time>2025-04-21T13:48:26.999Z</time>
      </trkpt>
      <trkpt lat="43.2276" lon="6.32242">
        <ele>375.4</ele>
        <time>2025-04-21T13:48:34Z</time>
      </trkpt>
      <trkpt lat="43.22758" lon="6.32231">
        <ele>374.6</ele>
        <time>2025-04-21T13:48:39.499Z</time>
      </trkpt>
      <trkpt lat="43.22756" lon="6.3222">
        <ele>373.6</ele>
        <time>2025-04-21T13:48:45Z</time>
      </trkpt>
      <trkpt lat="43.22757" lon="6.32212">
        <ele>374.1</ele>
        <time>2025-04-21T13:48:52.050Z</time>
      </trkpt>
      <trkpt lat="43.22757" lon="6.32204">
        <ele>374</ele>
        <time>2025-04-21T13:48:59Z</time>
      </trkpt>
      <trkpt lat="43.22755" lon="6.32195">
        <ele>372.7</ele>
        <time>2025-04-21T13:49:04.789Z</time>
      </trkpt>
      <trkpt lat="43.22754" lon="6.32185">
        <ele>372.7</ele>
        <time>2025-04-21T13:49:11Z</time>
      </trkpt>
      <trkpt lat="43.22751" lon="6.32178">
        <ele>371.7</ele>
        <time>2025-04-21T13:49:16.878Z</time>
      </trkpt>
      <trkpt lat="43.22749" lon="6.3217">
        <ele>371.3</ele>
        <time>2025-04-21T13:49:23Z</time>
      </trkpt>
      <trkpt lat="43.22747" lon="6.32163">
        <ele>371.5</ele>
        <time>2025-04-21T13:49:27.999Z</time>
      </trkpt>
      <trkpt lat="43.22745" lon="6.32156">
        <ele>372.3</ele>
        <time>2025-04-21T13:49:33Z</time>
      </trkpt>
      <trkpt lat="43.22741" lon="6.3215">
        <ele>372.1</ele>
        <time>2025-04-21T13:49:38.730Z</time>
      </trkpt>
      <trkpt lat="43.22737" lon="6.32143">
        <ele>372.3</ele>
        <time>2025-04-21T13:49:45Z</time>
      </trkpt>
      <trkpt lat="43.22733" lon="6.32137">
        <ele>372.2</ele>
        <time>2025-04-21T13:49:50.277Z</time>
      </trkpt>
      <trkpt lat="43.2273" lon="6.32131">
        <ele>371.9</ele>
        <time>2025-04-21T13:49:55Z</time>
      </trkpt>
      <trkpt lat="43.22727" lon="6.32124">
        <ele>371.9</ele>
        <time>2025-04-21T13:49:59.999Z</time>
      </trkpt>
      <trkpt lat="43.22724" lon="6.32117">
        <ele>371.8</ele>
        <time>2025-04-21T13:50:05Z</time>
      </trkpt>
      <trkpt lat="43.2272" lon="6.32111">
        <ele>371.3</ele>
        <time>2025-04-21T13:50:10.805Z</time>
      </trkpt>
      <trkpt lat="43.22717" lon="6.32105">
        <ele>370.3</ele>
        <time>2025-04-21T13:50:16Z</time>
      </trkpt>
      <trkpt lat="43.22714" lon="6.32099">
        <ele>369.3</ele>
        <time>2025-04-21T13:50:20.499Z</time>
      </trkpt>
      <trkpt lat="43.2271" lon="6.32092">
        <ele>368</ele>
        <time>2025-04-21T13:50:26Z</time>
      </trkpt>
      <trkpt lat="43.22711" lon="6.32083">
        <ele>368.3</ele>
        <time>2025-04-21T13:50:32.537Z</time>
      </trkpt>
      <trkpt lat="43.22711" lon="6.32074">
        <ele>366.4</ele>
        <time>2025-04-21T13:50:39Z</time>
      </trkpt>
      <trkpt lat="43.22714" lon="6.32065">
        <ele>365.6</ele>
        <time>2025-04-21T13:50:46.500Z</time>
      </trkpt>
      <trkpt lat="43.22717" lon="6.32056">
        <ele>365</ele>
        <time>2025-04-21T13:50:54Z</time>
      </trkpt>
      <trkpt lat="43.22723" lon="6.3205">
        <ele>366.1</ele>
        <time>2025-04-21T13:50:58.852Z</time>
      </trkpt>
      <trkpt lat="43.22729" lon="6.32043">
        <ele>367.2</ele>
        <time>2025-04-21T13:51:04Z</time>
      </trkpt>
      <trkpt lat="43.22731" lon="6.32037">
        <ele>366.8</ele>
        <time>2025-04-21T13:51:08.930Z</time>
      </trkpt>
      <trkpt lat="43.22734" lon="6.3203">
        <ele>366.6</ele>
        <time>2025-04-21T13:51:15Z</time>
      </trkpt>
      <trkpt lat="43.22737" lon="6.32024">
        <ele>366.6</ele>
        <time>2025-04-21T13:51:19.949Z</time>
      </trkpt>
      <trkpt lat="43.22741" lon="6.32019">
        <ele>367.4</ele>
        <time>2025-04-21T13:51:25Z</time>
      </trkpt>
      <trkpt lat="43.22745" lon="6.32011">
        <ele>367.7</ele>
        <time>2025-04-21T13:51:31.532Z</time>
      </trkpt>
      <trkpt lat="43.22748" lon="6.32004">
        <ele>367.8</ele>
        <time>2025-04-21T13:51:37Z</time>
      </trkpt>
      <trkpt lat="43.22752" lon="6.31998">
        <ele>368.4</ele>
        <time>2025-04-21T13:51:43.795Z</time>
      </trkpt>
      <trkpt lat="43.22756" lon="6.31993">
        <ele>368.8</ele>
        <time>2025-04-21T13:51:50Z</time>
      </trkpt>
      <trkpt lat="43.2276" lon="6.31986">
        <ele>368.8</ele>
        <time>2025-04-21T13:51:57.136Z</time>
      </trkpt>
      <trkpt lat="43.22765" lon="6.31979">
        <ele>369</ele>
        <time>2025-04-21T13:52:05Z</time>
      </trkpt>
      <trkpt lat="43.22769" lon="6.31973">
        <ele>369</ele>
        <time>2025-04-21T13:52:12.072Z</time>
      </trkpt>
      <trkpt lat="43.22774" lon="6.31967">
        <ele>369.3</ele>
        <time>2025-04-21T13:52:20Z</time>
      </trkpt>
      <trkpt lat="43.2278" lon="6.31964">
        <ele>370.5</ele>
        <time>2025-04-21T13:52:25.770Z</time>
      </trkpt>
      <trkpt lat="43.22785" lon="6.3196">
        <ele>370.8</ele>
        <time>2025-04-21T13:52:31Z</time>
      </trkpt>
      <trkpt lat="43.22789" lon="6.31958">
        <ele>371.2</ele>
        <time>2025-04-21T13:52:37.277Z</time>
      </trkpt>
      <trkpt lat="43.22793" lon="6.31955">
        <ele>371.4</ele>
        <time>2025-04-21T13:52:44Z</time>
      </trkpt>
      <trkpt lat="43.22799" lon="6.3195">
        <ele>371.3</ele>
        <time>2025-04-21T13:52:51.290Z</time>
      </trkpt>
      <trkpt lat="43.22805" lon="6.31944">
        <ele>370.8</ele>
        <time>2025-04-21T13:52:59Z</time>
      </trkpt>
      <trkpt lat="43.22809" lon="6.3194">
        <ele>371.2</ele>
        <time>2025-04-21T13:53:03.444Z</time>
      </trkpt>
      <trkpt lat="43.22814" lon="6.31935">
        <ele>372.1</ele>
        <time>2025-04-21T13:53:09Z</time>
      </trkpt>
      <trkpt lat="43.22816" lon="6.31929">
        <ele>371.7</ele>
        <time>2025-04-21T13:53:13.500Z</time>
      </trkpt>
      <trkpt lat="43.22818" lon="6.31923">
        <ele>371.5</ele>
        <time>2025-04-21T13:53:18Z</time>
      </trkpt>
      <trkpt lat="43.2282" lon="6.31917">
        <ele>371.3</ele>
        <time>2025-04-21T13:53:24.246Z</time>
      </trkpt>
      <trkpt lat="43.22821" lon="6.3191">
        <ele>371.3</ele>
        <time>2025-04-21T13:53:31Z</time>
      </trkpt>
      <trkpt lat="43.22821" lon="6.31904">
        <ele>370.9</ele>
        <time>2025-04-21T13:53:36.939Z</time>
      </trkpt>
      <trkpt lat="43.2282" lon="6.31897">
        <ele>369.9</ele>
        <time>2025-04-21T13:53:44Z</time>
      </trkpt>
      <trkpt lat="43.2282" lon="6.3189">
        <ele>369.4</ele>
        <time>2025-04-21T13:53:51.500Z</time>
      </trkpt>
      <trkpt lat="43.2282" lon="6.31883">
        <ele>368.5</ele>
        <time>2025-04-21T13:53:59Z</time>
      </trkpt>
      <trkpt lat="43.2282" lon="6.31871">
        <ele>367</ele>
        <time>2025-04-21T13:54:10Z</time>
      </trkpt>
      <trkpt lat="43.22819" lon="6.31859">
        <ele>365.1</ele>
        <time>2025-04-21T13:54:20Z</time>
      </trkpt>
      <trkpt lat="43.22819" lon="6.31852">
        <ele>364.5</ele>
        <time>2025-04-21T13:54:24.200Z</time>
      </trkpt>
      <trkpt lat="43.22819" lon="6.31844">
        <ele>363.8</ele>
        <time>2025-04-21T13:54:29Z</time>
      </trkpt>
      <trkpt lat="43.22818" lon="6.31836">
        <ele>362.6</ele>
        <time>2025-04-21T13:54:33.499Z</time>
      </trkpt>
      <trkpt lat="43.22817" lon="6.31828">
        <ele>361.4</ele>
        <time>2025-04-21T13:54:38Z</time>
      </trkpt>
      <trkpt lat="43.22819" lon="6.31821">
        <ele>361.7</ele>
        <time>2025-04-21T13:54:42.105Z</time>
      </trkpt>
      <trkpt lat="43.2282" lon="6.31814">
        <ele>361.5</ele>
        <time>2025-04-21T13:54:46Z</time>
      </trkpt>
      <trkpt lat="43.22821" lon="6.31807">
        <ele>361.4</ele>
        <time>2025-04-21T13:54:51.000Z</time>
      </trkpt>
      <trkpt lat="43.22822" lon="6.318">
        <ele>361.3</ele>
        <time>2025-04-21T13:54:56Z</time>
      </trkpt>
      <trkpt lat="43.22823" lon="6.31794">
        <ele>361.3</ele>
        <time>2025-04-21T13:55:00.671Z</time>
      </trkpt>
      <trkpt lat="43.22825" lon="6.31789">
        <ele>361.9</ele>
        <time>2025-04-21T13:55:05Z</time>
      </trkpt>
      <trkpt lat="43.22826" lon="6.31782">
        <ele>361.9</ele>
        <time>2025-04-21T13:55:10.879Z</time>
      </trkpt>
      <trkpt lat="43.22826" lon="6.31777">
        <ele>361.5</ele>
        <time>2025-04-21T13:55:15Z</time>
      </trkpt>
      <trkpt lat="43.22827" lon="6.3177">
        <ele>361</ele>
        <time>2025-04-21T13:55:19.236Z</time>
      </trkpt>
      <trkpt lat="43.22831" lon="6.31762">
        <ele>361.7</ele>
        <time>2025-04-21T13:55:25Z</time>
      </trkpt>
      <trkpt lat="43.22833" lon="6.31755">
        <ele>361.6</ele>
        <time>2025-04-21T13:55:33.080Z</time>
      </trkpt>
      <trkpt lat="43.22836" lon="6.31753">
        <ele>361.5</ele>
        <time>2025-04-21T13:55:38Z</time>
      </trkpt>
      <trkpt lat="43.22839" lon="6.31749">
        <ele>361.2</ele>
        <time>2025-04-21T13:55:43.994Z</time>
      </trkpt>
      <trkpt lat="43.22844" lon="6.31741">
        <ele>361.1</ele>
        <time>2025-04-21T13:55:55Z</time>
      </trkpt>
      <trkpt lat="43.22845" lon="6.31738">
        <ele>361</ele>
        <time>2025-04-21T13:57:29Z</time>
      </trkpt>
      <trkpt lat="43.22848" lon="6.31731">
        <ele>360.8</ele>
        <time>2025-04-21T13:57:39.776Z</time>
      </trkpt>
      <trkpt lat="43.2285" lon="6.31723">
        <ele>360.6</ele>
        <time>2025-04-21T13:57:51Z</time>
      </trkpt>
      <trkpt lat="43.22852" lon="6.31716">
        <ele>360.6</ele>
        <time>2025-04-21T13:57:55.500Z</time>
      </trkpt>
      <trkpt lat="43.22854" lon="6.31709">
        <ele>360.6</ele>
        <time>2025-04-21T13:58:00Z</time>
      </trkpt>
      <trkpt lat="43.22855" lon="6.31702">
        <ele>360.6</ele>
        <time>2025-04-21T13:58:05.000Z</time>
      </trkpt>
      <trkpt lat="43.22856" lon="6.31695">
        <ele>360.6</ele>
        <time>2025-04-21T13:58:10Z</time>
      </trkpt>
      <trkpt lat="43.22855" lon="6.31687">
        <ele>360.7</ele>
        <time>2025-04-21T13:58:15.499Z</time>
      </trkpt>
      <trkpt lat="43.22854" lon="6.31679">
        <ele>360.8</ele>
        <time>2025-04-21T13:58:21Z</time>
      </trkpt>
      <trkpt lat="43.22852" lon="6.31671">
        <ele>360.9</ele>
        <time>2025-04-21T13:58:26.293Z</time>
      </trkpt>
      <trkpt lat="43.2285" lon="6.31664">
        <ele>361.1</ele>
        <time>2025-04-21T13:58:31Z</time>
      </trkpt>
      <trkpt lat="43.22849" lon="6.31656">
        <ele>361.6</ele>
        <time>2025-04-21T13:58:36.999Z</time>
      </trkpt>
      <trkpt lat="43.22848" lon="6.31648">
        <ele>362</ele>
        <time>2025-04-21T13:58:43Z</time>
      </trkpt>
      <trkpt lat="43.22847" lon="6.3164">
        <ele>362.4</ele>
        <time>2025-04-21T13:58:48.369Z</time>
      </trkpt>
      <trkpt lat="43.22847" lon="6.31633">
        <ele>362.9</ele>
        <time>2025-04-21T13:58:53Z</time>
      </trkpt>
      <trkpt lat="43.22846" lon="6.31625">
        <ele>363.6</ele>
        <time>2025-04-21T13:58:57.999Z</time>
      </trkpt>
      <trkpt lat="43.22845" lon="6.31617">
        <ele>364.3</ele>
        <time>2025-04-21T13:59:03Z</time>
      </trkpt>
      <trkpt lat="43.22844" lon="6.31611">
        <ele>364.9</ele>
        <time>2025-04-21T13:59:07.501Z</time>
      </trkpt>
      <trkpt lat="43.22842" lon="6.31604">
        <ele>365.3</ele>
        <time>2025-04-21T13:59:13Z</time>
      </trkpt>
      <trkpt lat="43.2284" lon="6.31602">
        <ele>365.7</ele>
        <time>2025-04-21T14:00:34Z</time>
      </trkpt>
      <trkpt lat="43.22838" lon="6.31598">
        <ele>366.2</ele>
        <time>2025-04-21T14:01:22Z</time>
      </trkpt>
      <trkpt lat="43.22837" lon="6.31591">
        <ele>366.8</ele>
        <time>2025-04-21T14:01:28.815Z</time>
      </trkpt>
      <trkpt lat="43.22835" lon="6.31584">
        <ele>367.6</ele>
        <time>2025-04-21T14:01:36Z</time>
      </trkpt>
      <trkpt lat="43.22833" lon="6.31576">
        <ele>368.3</ele>
        <time>2025-04-21T14:01:43.573Z</time>
      </trkpt>
      <trkpt lat="43.22831" lon="6.31567">
        <ele>368.8</ele>
        <time>2025-04-21T14:01:52Z</time>
      </trkpt>
      <trkpt lat="43.22828" lon="6.3156">
        <ele>369.4</ele>
        <time>2025-04-21T14:01:59.499Z</time>
      </trkpt>
      <trkpt lat="43.22825" lon="6.31553">
        <ele>370</ele>
        <time>2025-04-21T14:02:07Z</time>
      </trkpt>
      <trkpt lat="43.22822" lon="6.31544">
        <ele>370.6</ele>
        <time>2025-04-21T14:02:14.857Z</time>
      </trkpt>
      <trkpt lat="43.22819" lon="6.31536">
        <ele>371.3</ele>
        <time>2025-04-21T14:02:22Z</time>
      </trkpt>
      <trkpt lat="43.22815" lon="6.3153">
        <ele>372.2</ele>
        <time>2025-04-21T14:02:32.977Z</time>
      </trkpt>
      <trkpt lat="43.22811" lon="6.31525">
        <ele>373</ele>
        <time>2025-04-21T14:02:43Z</time>
      </trkpt>
      <trkpt lat="43.22816" lon="6.31517">
        <ele>372.3</ele>
        <time>2025-04-21T14:03:13Z</time>
      </trkpt>
      <trkpt lat="43.22815" lon="6.31516">
        <ele>372.4</ele>
        <time>2025-04-21T14:04:12Z</time>
      </trkpt>
      <trkpt lat="43.22815" lon="6.31513">
        <ele>372.5</ele>
        <time>2025-04-21T14:05:11Z</time>
      </trkpt>
      <trkpt lat="43.22816" lon="6.3151">
        <ele>372.4</ele>
        <time>2025-04-21T14:05:48Z</time>
      </trkpt>
      <trkpt lat="43.22818" lon="6.31501">
        <ele>372.2</ele>
        <time>2025-04-21T14:06:31Z</time>
      </trkpt>
      <trkpt lat="43.22818" lon="6.31493">
        <ele>371.6</ele>
        <time>2025-04-21T14:07:21Z</time>
      </trkpt>
      <trkpt lat="43.2282" lon="6.31485">
        <ele>370.6</ele>
        <time>2025-04-21T14:07:29.000Z</time>
      </trkpt>
      <trkpt lat="43.22822" lon="6.31477">
        <ele>369.6</ele>
        <time>2025-04-21T14:07:37Z</time>
      </trkpt>
      <trkpt lat="43.22827" lon="6.3147">
        <ele>368.5</ele>
        <time>2025-04-21T14:07:43.815Z</time>
      </trkpt>
      <trkpt lat="43.22831" lon="6.31463">
        <ele>367.5</ele>
        <time>2025-04-21T14:07:50Z</time>
      </trkpt>
      <trkpt lat="43.22834" lon="6.31455">
        <ele>366.5</ele>
        <time>2025-04-21T14:07:57.731Z</time>
      </trkpt>
      <trkpt lat="43.22836" lon="6.31447">
        <ele>365.3</ele>
        <time>2025-04-21T14:08:05Z</time>
      </trkpt>
      <trkpt lat="43.22842" lon="6.31439">
        <ele>362.5</ele>
        <time>2025-04-21T14:08:30Z</time>
      </trkpt>
      <trkpt lat="43.22846" lon="6.31436">
        <ele>360.9</ele>
        <time>2025-04-21T14:09:25Z</time>
      </trkpt>
      <trkpt lat="43.22848" lon="6.31429">
        <ele>359.6</ele>
        <time>2025-04-21T14:09:34.147Z</time>
      </trkpt>
      <trkpt lat="43.22851" lon="6.31423">
        <ele>358.4</ele>
        <time>2025-04-21T14:09:43Z</time>
      </trkpt>
      <trkpt lat="43.22852" lon="6.31415">
        <ele>357.3</ele>
        <time>2025-04-21T14:09:51.054Z</time>
      </trkpt>
      <trkpt lat="43.22852" lon="6.31408">
        <ele>356.1</ele>
        <time>2025-04-21T14:09:58Z</time>
      </trkpt>
      <trkpt lat="43.22855" lon="6.314">
        <ele>354.3</ele>
        <time>2025-04-21T14:10:05.626Z</time>
      </trkpt>
      <trkpt lat="43.22857" lon="6.31393">
        <ele>353</ele>
        <time>2025-04-21T14:10:12Z</time>
      </trkpt>
      <trkpt lat="43.22861" lon="6.31389">
        <ele>352</ele>
        <time>2025-04-21T14:10:17.992Z</time>
      </trkpt>
      <trkpt lat="43.22866" lon="6.31385">
        <ele>349.3</ele>
        <time>2025-04-21T14:10:25Z</time>
      </trkpt>
      <trkpt lat="43.22867" lon="6.31378">
        <ele>347.8</ele>
        <time>2025-04-21T14:10:31.441Z</time>
      </trkpt>
      <trkpt lat="43.22868" lon="6.31372">
        <ele>346.6</ele>
        <time>2025-04-21T14:10:37Z</time>
      </trkpt>
      <trkpt lat="43.22869" lon="6.31366">
        <ele>345.4</ele>
        <time>2025-04-21T14:10:44.411Z</time>
      </trkpt>
      <trkpt lat="43.2287" lon="6.31359">
        <ele>344.2</ele>
        <time>2025-04-21T14:10:53Z</time>
      </trkpt>
      <trkpt lat="43.22876" lon="6.31355">
        <ele>341.9</ele>
        <time>2025-04-21T14:11:21Z</time>
      </trkpt>
      <trkpt lat="43.22873" lon="6.31352">
        <ele>342.4</ele>
        <time>2025-04-21T14:12:25Z</time>
      </trkpt>
      <trkpt lat="43.22871" lon="6.31344">
        <ele>341.9</ele>
        <time>2025-04-21T14:12:42Z</time>
      </trkpt>
      <trkpt lat="43.22872" lon="6.31337">
        <ele>340.7</ele>
        <time>2025-04-21T14:12:49.500Z</time>
      </trkpt>
      <trkpt lat="43.22873" lon="6.3133">
        <ele>339.5</ele>
        <time>2025-04-21T14:12:57Z</time>
      </trkpt>
      <trkpt lat="43.22873" lon="6.31323">
        <ele>338.5</ele>
        <time>2025-04-21T14:13:03.438Z</time>
      </trkpt>
      <trkpt lat="43.22872" lon="6.31316">
        <ele>337.6</ele>
        <time>2025-04-21T14:13:10Z</time>
      </trkpt>
      <trkpt lat="43.22873" lon="6.31309">
        <ele>336.4</ele>
        <time>2025-04-21T14:13:16.000Z</time>
      </trkpt>
      <trkpt lat="43.22874" lon="6.31302">
        <ele>335.3</ele>
        <time>2025-04-21T14:13:22Z</time>
      </trkpt>
      <trkpt lat="43.22875" lon="6.31296">
        <ele>334.6</ele>
        <time>2025-04-21T14:13:27.558Z</time>
      </trkpt>
      <trkpt lat="43.22876" lon="6.31289">
        <ele>333.9</ele>
        <time>2025-04-21T14:13:34Z</time>
      </trkpt>
      <trkpt lat="43.22879" lon="6.31284">
        <ele>333.2</ele>
        <time>2025-04-21T14:13:39.590Z</time>
      </trkpt>
      <trkpt lat="43.22883" lon="6.31279">
        <ele>332.5</ele>
        <time>2025-04-21T14:13:46Z</time>
      </trkpt>
      <trkpt lat="43.22886" lon="6.31272">
        <ele>331.7</ele>
        <time>2025-04-21T14:13:52.000Z</time>
      </trkpt>
      <trkpt lat="43.22889" lon="6.31265">
        <ele>331</ele>
        <time>2025-04-21T14:13:58Z</time>
      </trkpt>
      <trkpt lat="43.22891" lon="6.31258">
        <ele>329.7</ele>
        <time>2025-04-21T14:14:05.500Z</time>
      </trkpt>
      <trkpt lat="43.22893" lon="6.31251">
        <ele>328.4</ele>
        <time>2025-04-21T14:14:13Z</time>
      </trkpt>
      <trkpt lat="43.22893" lon="6.31244">
        <ele>327.6</ele>
        <time>2025-04-21T14:14:21.000Z</time>
      </trkpt>
      <trkpt lat="43.22893" lon="6.31237">
        <ele>326.7</ele>
        <time>2025-04-21T14:14:29Z</time>
      </trkpt>
      <trkpt lat="43.22898" lon="6.31233">
        <ele>324.5</ele>
        <time>2025-04-21T14:14:38.163Z</time>
      </trkpt>
      <trkpt lat="43.22902" lon="6.31229">
        <ele>322.9</ele>
        <time>2025-04-21T14:14:46Z</time>
      </trkpt>
      <trkpt lat="43.22905" lon="6.31225">
        <ele>321.6</ele>
        <time>2025-04-21T14:14:56.500Z</time>
      </trkpt>
      <trkpt lat="43.22908" lon="6.31221">
        <ele>320.3</ele>
        <time>2025-04-21T14:15:07Z</time>
      </trkpt>
      <trkpt lat="43.22912" lon="6.31216">
        <ele>318.4</ele>
        <time>2025-04-21T14:15:17.500Z</time>
      </trkpt>
      <trkpt lat="43.22916" lon="6.31211">
        <ele>316.9</ele>
        <time>2025-04-21T14:15:28Z</time>
      </trkpt>
      <trkpt lat="43.22919" lon="6.31204">
        <ele>314.9</ele>
        <time>2025-04-21T14:15:36.112Z</time>
      </trkpt>
      <trkpt lat="43.22923" lon="6.31197">
        <ele>312.4</ele>
        <time>2025-04-21T14:15:45Z</time>
      </trkpt>
      <trkpt lat="43.22928" lon="6.31191">
        <ele>309.9</ele>
        <time>2025-04-21T14:15:52.709Z</time>
      </trkpt>
      <trkpt lat="43.22933" lon="6.31184">
        <ele>307.9</ele>
        <time>2025-04-21T14:16:01Z</time>
      </trkpt>
      <trkpt lat="43.22934" lon="6.31175">
        <ele>307.7</ele>
        <time>2025-04-21T14:16:09.987Z</time>
      </trkpt>
      <trkpt lat="43.22935" lon="6.31167">
        <ele>307.7</ele>
        <time>2025-04-21T14:16:18Z</time>
      </trkpt>
      <trkpt lat="43.22938" lon="6.31162">
        <ele>307.7</ele>
        <time>2025-04-21T14:16:38Z</time>
      </trkpt>
      <trkpt lat="43.22938" lon="6.31162">
        <ele>307.7</ele>
        <time>2025-04-21T14:17:27Z</time>
      </trkpt>
      <trkpt lat="43.22939" lon="6.31165">
        <ele>307.5</ele>
        <time>2025-04-21T14:18:35Z</time>
      </trkpt>
      <trkpt lat="43.22944" lon="6.31171">
        <ele>306.4</ele>
        <time>2025-04-21T14:18:43.376Z</time>
      </trkpt>
      <trkpt lat="43.2295" lon="6.3117">
        <ele>304.8</ele>
        <time>2025-04-21T14:18:51Z</time>
      </trkpt>
      <trkpt lat="43.22953" lon="6.31176">
        <ele>302.8</ele>
        <time>2025-04-21T14:18:57.877Z</time>
      </trkpt>
      <trkpt lat="43.22956" lon="6.31181">
        <ele>300.7</ele>
        <time>2025-04-21T14:19:04Z</time>
      </trkpt>
      <trkpt lat="43.22957" lon="6.3119">
        <ele>298.5</ele>
        <time>2025-04-21T14:19:11.040Z</time>
      </trkpt>
      <trkpt lat="43.22957" lon="6.31199">
        <ele>297</ele>
        <time>2025-04-21T14:19:18Z</time>
      </trkpt>
      <trkpt lat="43.22957" lon="6.31206">
        <ele>296.2</ele>
        <time>2025-04-21T14:19:24.000Z</time>
      </trkpt>
      <trkpt lat="43.22957" lon="6.31213">
        <ele>295.3</ele>
        <time>2025-04-21T14:19:30Z</time>
      </trkpt>
      <trkpt lat="43.2296" lon="6.31218">
        <ele>293.2</ele>
        <time>2025-04-21T14:19:35.124Z</time>
      </trkpt>
      <trkpt lat="43.22964" lon="6.31223">
        <ele>290.4</ele>
        <time>2025-04-21T14:19:41Z</time>
      </trkpt>
      <trkpt lat="43.22966" lon="6.31229">
        <ele>289.4</ele>
        <time>2025-04-21T14:19:46.500Z</time>
      </trkpt>
      <trkpt lat="43.22968" lon="6.31235">
        <ele>288.3</ele>
        <time>2025-04-21T14:19:52Z</time>
      </trkpt>
      <trkpt lat="43.2297" lon="6.31242">
        <ele>287.3</ele>
        <time>2025-04-21T14:19:56.500Z</time>
      </trkpt>
      <trkpt lat="43.22972" lon="6.31249">
        <ele>286.1</ele>
        <time>2025-04-21T14:20:01Z</time>
      </trkpt>
      <trkpt lat="43.22969" lon="6.3126">
        <ele>287.2</ele>
        <time>2025-04-21T14:20:17Z</time>
      </trkpt>
      <trkpt lat="43.2297" lon="6.31266">
        <ele>286.2</ele>
        <time>2025-04-21T14:20:25.421Z</time>
      </trkpt>
      <trkpt lat="43.2297" lon="6.31273">
        <ele>285.7</ele>
        <time>2025-04-21T14:20:35Z</time>
      </trkpt>
      <trkpt lat="43.22969" lon="6.31281">
        <ele>286.3</ele>
        <time>2025-04-21T14:20:41.638Z</time>
      </trkpt>
      <trkpt lat="43.22969" lon="6.3129">
        <ele>287.2</ele>
        <time>2025-04-21T14:20:49Z</time>
      </trkpt>
      <trkpt lat="43.22974" lon="6.31299">
        <ele>285.4</ele>
        <time>2025-04-21T14:20:55.737Z</time>
      </trkpt>
      <trkpt lat="43.2298" lon="6.31308">
        <ele>283.9</ele>
        <time>2025-04-21T14:21:03Z</time>
      </trkpt>
      <trkpt lat="43.22985" lon="6.31312">
        <ele>282.3</ele>
        <time>2025-04-21T14:21:08.390Z</time>
      </trkpt>
      <trkpt lat="43.22989" lon="6.31316">
        <ele>281.2</ele>
        <time>2025-04-21T14:21:13Z</time>
      </trkpt>
      <trkpt lat="43.22992" lon="6.31321">
        <ele>280.7</ele>
        <time>2025-04-21T14:21:17.458Z</time>
      </trkpt>
      <trkpt lat="43.22994" lon="6.31327">
        <ele>280.8</ele>
        <time>2025-04-21T14:21:22Z</time>
      </trkpt>
      <trkpt lat="43.22993" lon="6.31334">
        <ele>282.5</ele>
        <time>2025-04-21T14:21:26.868Z</time>
      </trkpt>
      <trkpt lat="43.22991" lon="6.31341">
        <ele>283.6</ele>
        <time>2025-04-21T14:21:32Z</time>
      </trkpt>
      <trkpt lat="43.22991" lon="6.31348">
        <ele>283.7</ele>
        <time>2025-04-21T14:21:39.466Z</time>
      </trkpt>
      <trkpt lat="43.22991" lon="6.31356">
        <ele>283.8</ele>
        <time>2025-04-21T14:21:48Z</time>
      </trkpt>
      <trkpt lat="43.2299" lon="6.31358">
        <ele>284.4</ele>
        <time>2025-04-21T14:22:36Z</time>
      </trkpt>
      <trkpt lat="43.2299" lon="6.31362">
        <ele>284.5</ele>
        <time>2025-04-21T14:23:03.312Z</time>
      </trkpt>
      <trkpt lat="43.22993" lon="6.31368">
        <ele>283.6</ele>
        <time>2025-04-21T14:23:53Z</time>
      </trkpt>
      <trkpt lat="43.22997" lon="6.31377">
        <ele>282.8</ele>
        <time>2025-04-21T14:24:03Z</time>
      </trkpt>
      <trkpt lat="43.23" lon="6.31386">
        <ele>282.6</ele>
        <time>2025-04-21T14:24:10.500Z</time>
      </trkpt>
      <trkpt lat="43.23003" lon="6.31395">
        <ele>281</ele>
        <time>2025-04-21T14:24:18Z</time>
      </trkpt>
      <trkpt lat="43.23004" lon="6.31402">
        <ele>280.1</ele>
        <time>2025-04-21T14:24:22.677Z</time>
      </trkpt>
      <trkpt lat="43.23005" lon="6.3141">
        <ele>279.3</ele>
        <time>2025-04-21T14:24:28Z</time>
      </trkpt>
      <trkpt lat="43.23007" lon="6.31417">
        <ele>278.3</ele>
        <time>2025-04-21T14:24:32.235Z</time>
      </trkpt>
      <trkpt lat="43.23009" lon="6.31425">
        <ele>278.9</ele>
        <time>2025-04-21T14:24:37Z</time>
      </trkpt>
      <trkpt lat="43.23009" lon="6.31431">
        <ele>280</ele>
        <time>2025-04-21T14:25:06Z</time>
      </trkpt>
      <trkpt lat="43.23009" lon="6.3144">
        <ele>281.6</ele>
        <time>2025-04-21T14:25:10.249Z</time>
      </trkpt>
      <trkpt lat="43.23014" lon="6.31442">
        <ele>281.4</ele>
        <time>2025-04-21T14:25:13.624Z</time>
      </trkpt>
      <trkpt lat="43.23019" lon="6.31444">
        <ele>281.5</ele>
        <time>2025-04-21T14:25:17Z</time>
      </trkpt>
      <trkpt lat="43.23027" lon="6.31445">
        <ele>281.3</ele>
        <time>2025-04-21T14:25:22.706Z</time>
      </trkpt>
      <trkpt lat="43.23033" lon="6.31444">
        <ele>281.2</ele>
        <time>2025-04-21T14:25:27Z</time>
      </trkpt>
      <trkpt lat="43.23037" lon="6.31442">
        <ele>280.6</ele>
        <time>2025-04-21T14:25:31.047Z</time>
      </trkpt>
      <trkpt lat="43.23042" lon="6.3144">
        <ele>280.1</ele>
        <time>2025-04-21T14:25:36Z</time>
      </trkpt>
      <trkpt lat="43.23048" lon="6.3144">
        <ele>280.5</ele>
        <time>2025-04-21T14:25:40.483Z</time>
      </trkpt>
      <trkpt lat="43.23054" lon="6.31439">
        <ele>280.4</ele>
        <time>2025-04-21T14:25:45Z</time>
      </trkpt>
      <trkpt lat="43.23059" lon="6.31439">
        <ele>280.5</ele>
        <time>2025-04-21T14:25:49.074Z</time>
      </trkpt>
      <trkpt lat="43.23065" lon="6.31438">
        <ele>280</ele>
        <time>2025-04-21T14:25:54Z</time>
      </trkpt>
      <trkpt lat="43.23067" lon="6.3144">
        <ele>280.9</ele>
        <time>2025-04-21T14:26:26Z</time>
      </trkpt>
      <trkpt lat="43.23072" lon="6.31441">
        <ele>281.4</ele>
        <time>2025-04-21T14:26:58Z</time>
      </trkpt>
      <trkpt lat="43.23079" lon="6.31443">
        <ele>282.3</ele>
        <time>2025-04-21T14:27:05.000Z</time>
      </trkpt>
      <trkpt lat="43.23086" lon="6.31445">
        <ele>283</ele>
        <time>2025-04-21T14:27:12Z</time>
      </trkpt>
      <trkpt lat="43.23092" lon="6.31451">
        <ele>284.9</ele>
        <time>2025-04-21T14:27:17.030Z</time>
      </trkpt>
      <trkpt lat="43.23099" lon="6.31454">
        <ele>285.4</ele>
        <time>2025-04-21T14:27:22Z</time>
      </trkpt>
      <trkpt lat="43.23103" lon="6.31455">
        <ele>285.4</ele>
        <time>2025-04-21T14:27:27.915Z</time>
      </trkpt>
      <trkpt lat="43.23106" lon="6.31459">
        <ele>286.8</ele>
        <time>2025-04-21T14:27:34Z</time>
      </trkpt>
      <trkpt lat="43.23111" lon="6.31462">
        <ele>287.6</ele>
        <time>2025-04-21T14:27:40.179Z</time>
      </trkpt>
      <trkpt lat="43.23115" lon="6.31464">
        <ele>288.2</ele>
        <time>2025-04-21T14:27:45Z</time>
      </trkpt>
      <trkpt lat="43.2312" lon="6.31465">
        <ele>288.3</ele>
        <time>2025-04-21T14:27:52.000Z</time>
      </trkpt>
      <trkpt lat="43.23125" lon="6.31466">
        <ele>288.4</ele>
        <time>2025-04-21T14:27:59Z</time>
      </trkpt>
      <trkpt lat="43.2313" lon="6.31468">
        <ele>288.9</ele>
        <time>2025-04-21T14:28:06.352Z</time>
      </trkpt>
      <trkpt lat="43.23134" lon="6.31468">
        <ele>288.7</ele>
        <time>2025-04-21T14:28:12Z</time>
      </trkpt>
      <trkpt lat="43.23139" lon="6.3147">
        <ele>289.1</ele>
        <time>2025-04-21T14:28:18.932Z</time>
      </trkpt>
      <trkpt lat="43.23143" lon="6.31473">
        <ele>289.5</ele>
        <time>2025-04-21T14:28:25Z</time>
      </trkpt>
      <trkpt lat="43.23149" lon="6.31478">
        <ele>289.7</ele>
        <time>2025-04-21T14:28:31.577Z</time>
      </trkpt>
      <trkpt lat="43.23154" lon="6.31482">
        <ele>289.7</ele>
        <time>2025-04-21T14:28:37Z</time>
      </trkpt>
      <trkpt lat="43.23157" lon="6.31491">
        <ele>291.3</ele>
        <time>2025-04-21T14:28:43.044Z</time>
      </trkpt>
      <trkpt lat="43.2316" lon="6.31496">
        <ele>291.7</ele>
        <time>2025-04-21T14:28:47Z</time>
      </trkpt>
      <trkpt lat="43.23163" lon="6.31504">
        <ele>292</ele>
        <time>2025-04-21T14:28:51.115Z</time>
      </trkpt>
      <trkpt lat="43.23168" lon="6.31509">
        <ele>290.5</ele>
        <time>2025-04-21T14:28:55Z</time>
      </trkpt>
      <trkpt lat="43.23175" lon="6.31515">
        <ele>288</ele>
        <time>2025-04-21T14:29:10Z</time>
      </trkpt>
      <trkpt lat="43.23182" lon="6.31509">
        <ele>285.7</ele>
        <time>2025-04-21T14:29:38Z</time>
      </trkpt>
      <trkpt lat="43.23185" lon="6.31504">
        <ele>284.9</ele>
        <time>2025-04-21T14:29:46.500Z</time>
      </trkpt>
      <trkpt lat="43.23188" lon="6.31499">
        <ele>284</ele>
        <time>2025-04-21T14:29:55Z</time>
      </trkpt>
      <trkpt lat="43.2319" lon="6.31492">
        <ele>282.9</ele>
        <time>2025-04-21T14:30:02.622Z</time>
      </trkpt>
      <trkpt lat="43.23193" lon="6.31486">
        <ele>281.8</ele>
        <time>2025-04-21T14:30:10Z</time>
      </trkpt>
      <trkpt lat="43.23196" lon="6.31479">
        <ele>280.8</ele>
        <time>2025-04-21T14:30:15.496Z</time>
      </trkpt>
      <trkpt lat="43.232" lon="6.31473">
        <ele>279.6</ele>
        <time>2025-04-21T14:30:21Z</time>
      </trkpt>
      <trkpt lat="43.23205" lon="6.31468">
        <ele>278.2</ele>
        <time>2025-04-21T14:30:28.749Z</time>
      </trkpt>
      <trkpt lat="43.2321" lon="6.31464">
        <ele>277.2</ele>
        <time>2025-04-21T14:30:36Z</time>
      </trkpt>
      <trkpt lat="43.23216" lon="6.31459">
        <ele>276.4</ele>
        <time>2025-04-21T14:30:42.577Z</time>
      </trkpt>
      <trkpt lat="43.23221" lon="6.31455">
        <ele>276</ele>
        <time>2025-04-21T14:30:48Z</time>
      </trkpt>
      <trkpt lat="43.23228" lon="6.31451">
        <ele>275.9</ele>
        <time>2025-04-21T14:30:53.390Z</time>
      </trkpt>
      <trkpt lat="43.23235" lon="6.31446">
        <ele>276.3</ele>
        <time>2025-04-21T14:30:59Z</time>
      </trkpt>
      <trkpt lat="43.23239" lon="6.31441">
        <ele>276.1</ele>
        <time>2025-04-21T14:31:04.131Z</time>
      </trkpt>
      <trkpt lat="43.23244" lon="6.31436">
        <ele>275.5</ele>
        <time>2025-04-21T14:31:10Z</time>
      </trkpt>
      <trkpt lat="43.2325" lon="6.31437">
        <ele>275.5</ele>
        <time>2025-04-21T14:31:16.021Z</time>
      </trkpt>
      <trkpt lat="43.23256" lon="6.31437">
        <ele>275.4</ele>
        <time>2025-04-21T14:31:22Z</time>
      </trkpt>
      <trkpt lat="43.2326" lon="6.3144">
        <ele>275.6</ele>
        <time>2025-04-21T14:31:26.096Z</time>
      </trkpt>
      <trkpt lat="43.23265" lon="6.31443">
        <ele>275.9</ele>
        <time>2025-04-21T14:31:31Z</time>
      </trkpt>
      <trkpt lat="43.2327" lon="6.31441">
        <ele>275.7</ele>
        <time>2025-04-21T14:31:36.583Z</time>
      </trkpt>
      <trkpt lat="43.23275" lon="6.3144">
        <ele>275.5</ele>
        <time>2025-04-21T14:31:42Z</time>
      </trkpt>
      <trkpt lat="43.2328" lon="6.31438">
        <ele>275</ele>
        <time>2025-04-21T14:31:47.859Z</time>
      </trkpt>
      <trkpt lat="43.23285" lon="6.31435">
        <ele>273.9</ele>
        <time>2025-04-21T14:31:54Z</time>
      </trkpt>
      <trkpt lat="43.2329" lon="6.31434">
        <ele>273.1</ele>
        <time>2025-04-21T14:31:59.919Z</time>
      </trkpt>
      <trkpt lat="43.23296" lon="6.31433">
        <ele>272.1</ele>
        <time>2025-04-21T14:32:07Z</time>
      </trkpt>
      <trkpt lat="43.23301" lon="6.31432">
        <ele>271.3</ele>
        <time>2025-04-21T14:32:13.300Z</time>
      </trkpt>
      <trkpt lat="43.23307" lon="6.3143">
        <ele>270.1</ele>
        <time>2025-04-21T14:32:21Z</time>
      </trkpt>
      <trkpt lat="43.23312" lon="6.31428">
        <ele>268.6</ele>
        <time>2025-04-21T14:32:29.532Z</time>
      </trkpt>
      <trkpt lat="43.23316" lon="6.31425">
        <ele>267.3</ele>
        <time>2025-04-21T14:32:37Z</time>
      </trkpt>
      <trkpt lat="43.2332" lon="6.31421">
        <ele>265.8</ele>
        <time>2025-04-21T14:32:44.836Z</time>
      </trkpt>
      <trkpt lat="43.23325" lon="6.31417">
        <ele>264.1</ele>
        <time>2025-04-21T14:32:54Z</time>
      </trkpt>
      <trkpt lat="43.23331" lon="6.31415">
        <ele>262.2</ele>
        <time>2025-04-21T14:33:01.865Z</time>
      </trkpt>
      <trkpt lat="43.23337" lon="6.31412">
        <ele>259.9</ele>
        <time>2025-04-21T14:33:10Z</time>
      </trkpt>
      <trkpt lat="43.23342" lon="6.31409">
        <ele>258.1</ele>
        <time>2025-04-21T14:33:16.450Z</time>
      </trkpt>
      <trkpt lat="43.23348" lon="6.31406">
        <ele>256.2</ele>
        <time>2025-04-21T14:33:24Z</time>
      </trkpt>
      <trkpt lat="43.23353" lon="6.31402">
        <ele>254.7</ele>
        <time>2025-04-21T14:33:31.682Z</time>
      </trkpt>
      <trkpt lat="43.23359" lon="6.31397">
        <ele>253.4</ele>
        <time>2025-04-21T14:33:41Z</time>
      </trkpt>
      <trkpt lat="43.23364" lon="6.31393">
        <ele>251.9</ele>
        <time>2025-04-21T14:33:48.230Z</time>
      </trkpt>
      <trkpt lat="43.2337" lon="6.31388">
        <ele>249.7</ele>
        <time>2025-04-21T14:33:57Z</time>
      </trkpt>
      <trkpt lat="43.23375" lon="6.31384">
        <ele>247.4</ele>
        <time>2025-04-21T14:34:04.250Z</time>
      </trkpt>
      <trkpt lat="43.2338" lon="6.31379">
        <ele>245.3</ele>
        <time>2025-04-21T14:34:12Z</time>
      </trkpt>
      <trkpt lat="43.23388" lon="6.31381">
        <ele>243</ele>
        <time>2025-04-21T14:34:32Z</time>
      </trkpt>
      <trkpt lat="43.23392" lon="6.31381">
        <ele>241.6</ele>
        <time>2025-04-21T14:34:40.395Z</time>
      </trkpt>
      <trkpt lat="43.23397" lon="6.31382">
        <ele>239.8</ele>
        <time>2025-04-21T14:34:51Z</time>
      </trkpt>
      <trkpt lat="43.23401" lon="6.31384">
        <ele>238.3</ele>
        <time>2025-04-21T14:35:02.590Z</time>
      </trkpt>
      <trkpt lat="43.23405" lon="6.31387">
        <ele>236.7</ele>
        <time>2025-04-21T14:35:15Z</time>
      </trkpt>
      <trkpt lat="43.23411" lon="6.31388">
        <ele>234.3</ele>
        <time>2025-04-21T14:35:25.000Z</time>
      </trkpt>
      <trkpt lat="43.23417" lon="6.31389">
        <ele>231.8</ele>
        <time>2025-04-21T14:35:35Z</time>
      </trkpt>
      <trkpt lat="43.2342" lon="6.31381">
        <ele>230.8</ele>
        <time>2025-04-21T14:35:57Z</time>
      </trkpt>
      <trkpt lat="43.23426" lon="6.31377">
        <ele>228.1</ele>
        <time>2025-04-21T14:36:05.567Z</time>
      </trkpt>
      <trkpt lat="43.23431" lon="6.31373">
        <ele>226</ele>
        <time>2025-04-21T14:36:13Z</time>
      </trkpt>
      <trkpt lat="43.23435" lon="6.31366">
        <ele>224.8</ele>
        <time>2025-04-21T14:36:21.563Z</time>
      </trkpt>
      <trkpt lat="43.2344" lon="6.31359">
        <ele>223.2</ele>
        <time>2025-04-21T14:36:31Z</time>
      </trkpt>
      <trkpt lat="43.23445" lon="6.31354">
        <ele>221.5</ele>
        <time>2025-04-21T14:36:38.233Z</time>
      </trkpt>
      <trkpt lat="43.2345" lon="6.3135">
        <ele>219.7</ele>
        <time>2025-04-21T14:36:45Z</time>
      </trkpt>
      <trkpt lat="43.23456" lon="6.31346">
        <ele>217.7</ele>
        <time>2025-04-21T14:36:52.263Z</time>
      </trkpt>
      <trkpt lat="43.23461" lon="6.31341">
        <ele>216.6</ele>
        <time>2025-04-21T14:36:59Z</time>
      </trkpt>
      <trkpt lat="43.23465" lon="6.31335">
        <ele>216.2</ele>
        <time>2025-04-21T14:37:08.074Z</time>
      </trkpt>
      <trkpt lat="43.23469" lon="6.31328">
        <ele>215.2</ele>
        <time>2025-04-21T14:37:18Z</time>
      </trkpt>
      <trkpt lat="43.23474" lon="6.31322">
        <ele>213.6</ele>
        <time>2025-04-21T14:37:24.500Z</time>
      </trkpt>
      <trkpt lat="43.23479" lon="6.31316">
        <ele>212</ele>
        <time>2025-04-21T14:37:31Z</time>
      </trkpt>
      <trkpt lat="43.23483" lon="6.31309">
        <ele>211.4</ele>
        <time>2025-04-21T14:37:37.184Z</time>
      </trkpt>
      <trkpt lat="43.23488" lon="6.31302">
        <ele>210.4</ele>
        <time>2025-04-21T14:37:44Z</time>
      </trkpt>
      <trkpt lat="43.23491" lon="6.31296">
        <ele>209.7</ele>
        <time>2025-04-21T14:37:51.088Z</time>
      </trkpt>
      <trkpt lat="43.23494" lon="6.31289">
        <ele>209.5</ele>
        <time>2025-04-21T14:37:59Z</time>
      </trkpt>
      <trkpt lat="43.23499" lon="6.31286">
        <ele>209.2</ele>
        <time>2025-04-21T14:38:04.529Z</time>
      </trkpt>
      <trkpt lat="43.23505" lon="6.31283">
        <ele>208.3</ele>
        <time>2025-04-21T14:38:11Z</time>
      </trkpt>
      <trkpt lat="43.2351" lon="6.31279">
        <ele>207.7</ele>
        <time>2025-04-21T14:38:15.754Z</time>
      </trkpt>
      <trkpt lat="43.23516" lon="6.31276">
        <ele>206.5</ele>
        <time>2025-04-21T14:38:21Z</time>
      </trkpt>
      <trkpt lat="43.2352" lon="6.31273">
        <ele>205.5</ele>
        <time>2025-04-21T14:38:25.500Z</time>
      </trkpt>
      <trkpt lat="43.23524" lon="6.3127">
        <ele>204.7</ele>
        <time>2025-04-21T14:38:30Z</time>
      </trkpt>
      <trkpt lat="43.23528" lon="6.31265">
        <ele>203.9</ele>
        <time>2025-04-21T14:38:35.744Z</time>
      </trkpt>
      <trkpt lat="43.23532" lon="6.31261">
        <ele>202.5</ele>
        <time>2025-04-21T14:38:41Z</time>
      </trkpt>
      <trkpt lat="43.23536" lon="6.31257">
        <ele>201.2</ele>
        <time>2025-04-21T14:38:46.992Z</time>
      </trkpt>
      <trkpt lat="43.23541" lon="6.31253">
        <ele>199.6</ele>
        <time>2025-04-21T14:38:54Z</time>
      </trkpt>
      <trkpt lat="43.23543" lon="6.31246">
        <ele>199.4</ele>
        <time>2025-04-21T14:39:00.249Z</time>
      </trkpt>
      <trkpt lat="43.23546" lon="6.31239">
        <ele>199.3</ele>
        <time>2025-04-21T14:39:07Z</time>
      </trkpt>
      <trkpt lat="43.23551" lon="6.31233">
        <ele>198.6</ele>
        <time>2025-04-21T14:39:14.000Z</time>
      </trkpt>
      <trkpt lat="43.23556" lon="6.31227">
        <ele>198.2</ele>
        <time>2025-04-21T14:39:21Z</time>
      </trkpt>
      <trkpt lat="43.2356" lon="6.31222">
        <ele>197.9</ele>
        <time>2025-04-21T14:39:29.500Z</time>
      </trkpt>
      <trkpt lat="43.23564" lon="6.31217">
        <ele>196.8</ele>
        <time>2025-04-21T14:39:38Z</time>
      </trkpt>
      <trkpt lat="43.23572" lon="6.31215">
        <ele>195.3</ele>
        <time>2025-04-21T14:39:45.500Z</time>
      </trkpt>
      <trkpt lat="43.2358" lon="6.31213">
        <ele>193.9</ele>
        <time>2025-04-21T14:39:53Z</time>
      </trkpt>
      <trkpt lat="43.23585" lon="6.31208">
        <ele>193.6</ele>
        <time>2025-04-21T14:39:58.774Z</time>
      </trkpt>
      <trkpt lat="43.23591" lon="6.31204">
        <ele>192.9</ele>
        <time>2025-04-21T14:40:05Z</time>
      </trkpt>
      <trkpt lat="43.23596" lon="6.31201">
        <ele>192.3</ele>
        <time>2025-04-21T14:40:11.000Z</time>
      </trkpt>
      <trkpt lat="43.23601" lon="6.31198">
        <ele>192</ele>
        <time>2025-04-21T14:40:17Z</time>
      </trkpt>
      <trkpt lat="43.23606" lon="6.31197">
        <ele>191.5</ele>
        <time>2025-04-21T14:40:25.500Z</time>
      </trkpt>
      <trkpt lat="43.2361" lon="6.31195">
        <ele>191</ele>
        <time>2025-04-21T14:40:34Z</time>
      </trkpt>
      <trkpt lat="43.23615" lon="6.31193">
        <ele>190.5</ele>
        <time>2025-04-21T14:40:39.075Z</time>
      </trkpt>
      <trkpt lat="43.2362" lon="6.31192">
        <ele>189.7</ele>
        <time>2025-04-21T14:40:44Z</time>
      </trkpt>
      <trkpt lat="43.23626" lon="6.31191">
        <ele>188.8</ele>
        <time>2025-04-21T14:40:48.834Z</time>
      </trkpt>
      <trkpt lat="43.23631" lon="6.31189">
        <ele>188.3</ele>
        <time>2025-04-21T14:40:53Z</time>
      </trkpt>
      <trkpt lat="43.23637" lon="6.31188">
        <ele>187.5</ele>
        <time>2025-04-21T14:40:57.500Z</time>
      </trkpt>
      <trkpt lat="43.23643" lon="6.31187">
        <ele>186.6</ele>
        <time>2025-04-21T14:41:02Z</time>
      </trkpt>
      <trkpt lat="43.23647" lon="6.31185">
        <ele>186.2</ele>
        <time>2025-04-21T14:41:07.029Z</time>
      </trkpt>
      <trkpt lat="43.23652" lon="6.31184">
        <ele>185.5</ele>
        <time>2025-04-21T14:41:13Z</time>
      </trkpt>
      <trkpt lat="43.23655" lon="6.31181">
        <ele>185.5</ele>
        <time>2025-04-21T14:41:15.585Z</time>
      </trkpt>
      <trkpt lat="43.2365" lon="6.31179">
        <ele>186.9</ele>
        <time>2025-04-21T14:41:19.292Z</time>
      </trkpt>
      <trkpt lat="43.23645" lon="6.31176">
        <ele>188.2</ele>
        <time>2025-04-21T14:41:23Z</time>
      </trkpt>
      <trkpt lat="43.2364" lon="6.31171">
        <ele>190</ele>
        <time>2025-04-21T14:41:25.581Z</time>
      </trkpt>
      <trkpt lat="43.23642" lon="6.31169">
        <ele>190</ele>
        <time>2025-04-21T14:41:26.613Z</time>
      </trkpt>
      <trkpt lat="43.23647" lon="6.31174">
        <ele>188.2</ele>
        <time>2025-04-21T14:41:29.195Z</time>
      </trkpt>
      <trkpt lat="43.23655" lon="6.31176">
        <ele>186.4</ele>
        <time>2025-04-21T14:41:32.589Z</time>
      </trkpt>
      <trkpt lat="43.23661" lon="6.31173">
        <ele>185.9</ele>
        <time>2025-04-21T14:41:35.254Z</time>
      </trkpt>
      <trkpt lat="43.23664" lon="6.31169">
        <ele>186.1</ele>
        <time>2025-04-21T14:41:37Z</time>
      </trkpt>
      <trkpt lat="43.23668" lon="6.31167">
        <ele>185.6</ele>
        <time>2025-04-21T14:43:01Z</time>
      </trkpt>
      <trkpt lat="43.23665" lon="6.31165">
        <ele>185.9</ele>
        <time>2025-04-21T14:43:50Z</time>
      </trkpt>
      <trkpt lat="43.23661" lon="6.31166">
        <ele>186.9</ele>
        <time>2025-04-21T14:43:55.430Z</time>
      </trkpt>
      <trkpt lat="43.23661" lon="6.31158">
        <ele>185</ele>
        <time>2025-04-21T14:44:03.215Z</time>
      </trkpt>
      <trkpt lat="43.23662" lon="6.31152">
        <ele>183.3</ele>
        <time>2025-04-21T14:44:09.204Z</time>
      </trkpt>
      <trkpt lat="43.23665" lon="6.31151">
        <ele>182.4</ele>
        <time>2025-04-21T14:44:13.328Z</time>
      </trkpt>
      <trkpt lat="43.23667" lon="6.31151">
        <ele>182</ele>
        <time>2025-04-21T14:44:16Z</time>
      </trkpt>
      <trkpt lat="43.23672" lon="6.31151">
        <ele>181.1</ele>
        <time>2025-04-21T14:44:21.454Z</time>
      </trkpt>
      <trkpt lat="43.23678" lon="6.31151">
        <ele>180.1</ele>
        <time>2025-04-21T14:44:28Z</time>
      </trkpt>
      <trkpt lat="43.23683" lon="6.31154">
        <ele>179.8</ele>
        <time>2025-04-21T14:44:33.711Z</time>
      </trkpt>
      <trkpt lat="43.23688" lon="6.31153">
        <ele>178.7</ele>
        <time>2025-04-21T14:44:39Z</time>
      </trkpt>
      <trkpt lat="43.23694" lon="6.31154">
        <ele>177.7</ele>
        <time>2025-04-21T14:45:16Z</time>
      </trkpt>
      <trkpt lat="43.23698" lon="6.31161">
        <ele>178.5</ele>
        <time>2025-04-21T14:45:20.473Z</time>
      </trkpt>
      <trkpt lat="43.23702" lon="6.31165">
        <ele>178.9</ele>
        <time>2025-04-21T14:45:23.888Z</time>
      </trkpt>
      <trkpt lat="43.23706" lon="6.31169">
        <ele>177.8</ele>
        <time>2025-04-21T14:45:27.304Z</time>
      </trkpt>
      <trkpt lat="43.23701" lon="6.31162">
        <ele>178.7</ele>
        <time>2025-04-21T14:45:32.233Z</time>
      </trkpt>
      <trkpt lat="43.23698" lon="6.31157">
        <ele>178.1</ele>
        <time>2025-04-21T14:45:35.491Z</time>
      </trkpt>
      <trkpt lat="43.23698" lon="6.31154">
        <ele>177.9</ele>
        <time>2025-04-21T14:45:37Z</time>
      </trkpt>
      <trkpt lat="43.23704" lon="6.31151">
        <ele>178.1</ele>
        <time>2025-04-21T14:46:25Z</time>
      </trkpt>
      <trkpt lat="43.23709" lon="6.31146">
        <ele>178.3</ele>
        <time>2025-04-21T14:47:54Z</time>
      </trkpt>
      <trkpt lat="43.23712" lon="6.31141">
        <ele>178.6</ele>
        <time>2025-04-21T14:48:13Z</time>
      </trkpt>
      <trkpt lat="43.23717" lon="6.31142">
        <ele>179.2</ele>
        <time>2025-04-21T14:48:38Z</time>
      </trkpt>
      <trkpt lat="43.23721" lon="6.3114">
        <ele>179.8</ele>
        <time>2025-04-21T14:48:44.296Z</time>
      </trkpt>
      <trkpt lat="43.23726" lon="6.31138">
        <ele>179.5</ele>
        <time>2025-04-21T14:48:52Z</time>
      </trkpt>
      <trkpt lat="43.23726" lon="6.31139">
        <ele>179.7</ele>
        <time>2025-04-21T14:49:44Z</time>
      </trkpt>
      <trkpt lat="43.2373" lon="6.31146">
        <ele>179</ele>
        <time>2025-04-21T14:50:13Z</time>
      </trkpt>
      <trkpt lat="43.23729" lon="6.31154">
        <ele>178.6</ele>
        <time>2025-04-21T14:50:28.158Z</time>
      </trkpt>
      <trkpt lat="43.23724" lon="6.31162">
        <ele>178.9</ele>
        <time>2025-04-21T14:50:47.843Z</time>
      </trkpt>
      <trkpt lat="43.23717" lon="6.31168">
        <ele>178.2</ele>
        <time>2025-04-21T14:51:09Z</time>
      </trkpt>
      <trkpt lat="43.23722" lon="6.31165">
        <ele>179.1</ele>
        <time>2025-04-21T14:51:17.297Z</time>
      </trkpt>
      <trkpt lat="43.23725" lon="6.3116">
        <ele>178.8</ele>
        <time>2025-04-21T14:51:24.472Z</time>
      </trkpt>
      <trkpt lat="43.23728" lon="6.31155">
        <ele>178.6</ele>
        <time>2025-04-21T14:51:31.648Z</time>
      </trkpt>
      <trkpt lat="43.23731" lon="6.3115">
        <ele>178.6</ele>
        <time>2025-04-21T14:51:38.824Z</time>
      </trkpt>
      <trkpt lat="43.23734" lon="6.31145">
        <ele>178.7</ele>
        <time>2025-04-21T14:51:46Z</time>
      </trkpt>
      <trkpt lat="43.23731" lon="6.31139">
        <ele>179.4</ele>
        <time>2025-04-21T14:51:56.651Z</time>
      </trkpt>
      <trkpt lat="43.23729" lon="6.31134">
        <ele>178.2</ele>
        <time>2025-04-21T14:52:05Z</time>
      </trkpt>
      <trkpt lat="43.23728" lon="6.31122">
        <ele>175.2</ele>
        <time>2025-04-21T14:52:42Z</time>
      </trkpt>
      <trkpt lat="43.23728" lon="6.31123">
        <ele>175.5</ele>
        <time>2025-04-21T14:53:01Z</time>
      </trkpt>
      <trkpt lat="43.2373" lon="6.31121">
        <ele>174.8</ele>
        <time>2025-04-21T14:53:22Z</time>
      </trkpt>
      <trkpt lat="43.23737" lon="6.31119">
        <ele>173.5</ele>
        <time>2025-04-21T14:53:29.559Z</time>
      </trkpt>
      <trkpt lat="43.23744" lon="6.31118">
        <ele>172.6</ele>
        <time>2025-04-21T14:53:37Z</time>
      </trkpt>
      <trkpt lat="43.23747" lon="6.31119">
        <ele>172.6</ele>
        <time>2025-04-21T14:53:39.586Z</time>
      </trkpt>
      <trkpt lat="43.23749" lon="6.31114">
        <ele>170.9</ele>
        <time>2025-04-21T14:53:43.068Z</time>
      </trkpt>
      <trkpt lat="43.23751" lon="6.31115">
        <ele>170.9</ele>
        <time>2025-04-21T14:53:44.852Z</time>
      </trkpt>
      <trkpt lat="43.23755" lon="6.31119">
        <ele>170.9</ele>
        <time>2025-04-21T14:53:49Z</time>
      </trkpt>
      <trkpt lat="43.23762" lon="6.31122">
        <ele>169.5</ele>
        <time>2025-04-21T14:54:03Z</time>
      </trkpt>
      <trkpt lat="43.23768" lon="6.31126">
        <ele>168.3</ele>
        <time>2025-04-21T14:54:11.567Z</time>
      </trkpt>
      <trkpt lat="43.23773" lon="6.3113">
        <ele>167.1</ele>
        <time>2025-04-21T14:54:19Z</time>
      </trkpt>
      <trkpt lat="43.23778" lon="6.31134">
        <ele>165.6</ele>
        <time>2025-04-21T14:54:25.117Z</time>
      </trkpt>
      <trkpt lat="43.23783" lon="6.31135">
        <ele>163.9</ele>
        <time>2025-04-21T14:54:30.458Z</time>
      </trkpt>
      <trkpt lat="43.23784" lon="6.31132">
        <ele>163.4</ele>
        <time>2025-04-21T14:54:33Z</time>
      </trkpt>
      <trkpt lat="43.23787" lon="6.31125">
        <ele>162</ele>
        <time>2025-04-21T14:54:44.419Z</time>
      </trkpt>
      <trkpt lat="43.23793" lon="6.31125">
        <ele>160.1</ele>
        <time>2025-04-21T14:54:56Z</time>
      </trkpt>
      <trkpt lat="43.23796" lon="6.31127">
        <ele>159.1</ele>
        <time>2025-04-21T14:55:12Z</time>
      </trkpt>
      <trkpt lat="43.23801" lon="6.31125">
        <ele>157.5</ele>
        <time>2025-04-21T14:55:34Z</time>
      </trkpt>
      <trkpt lat="43.23806" lon="6.31126">
        <ele>156</ele>
        <time>2025-04-21T14:55:39.900Z</time>
      </trkpt>
      <trkpt lat="43.2381" lon="6.31126">
        <ele>155.6</ele>
        <time>2025-04-21T14:55:45.801Z</time>
      </trkpt>
      <trkpt lat="43.23817" lon="6.31127">
        <ele>154.9</ele>
        <time>2025-04-21T14:55:55Z</time>
      </trkpt>
      <trkpt lat="43.23822" lon="6.3113">
        <ele>154.4</ele>
        <time>2025-04-21T14:56:01.593Z</time>
      </trkpt>
      <trkpt lat="43.23825" lon="6.31136">
        <ele>154</ele>
        <time>2025-04-21T14:56:08Z</time>
      </trkpt>
      <trkpt lat="43.2383" lon="6.31133">
        <ele>153.5</ele>
        <time>2025-04-21T14:56:14.541Z</time>
      </trkpt>
      <trkpt lat="43.23837" lon="6.31128">
        <ele>153.4</ele>
        <time>2025-04-21T14:56:24Z</time>
      </trkpt>
      <trkpt lat="43.2384" lon="6.31123">
        <ele>153.5</ele>
        <time>2025-04-21T14:56:31.885Z</time>
      </trkpt>
      <trkpt lat="43.23844" lon="6.31121">
        <ele>153.4</ele>
        <time>2025-04-21T14:56:39Z</time>
      </trkpt>
      <trkpt lat="43.23848" lon="6.31115">
        <ele>153.1</ele>
        <time>2025-04-21T14:57:07Z</time>
      </trkpt>
      <trkpt lat="43.23851" lon="6.3111">
        <ele>152.8</ele>
        <time>2025-04-21T14:57:13.157Z</time>
      </trkpt>
      <trkpt lat="43.23854" lon="6.31107">
        <ele>152.6</ele>
        <time>2025-04-21T14:57:18Z</time>
      </trkpt>
      <trkpt lat="43.23858" lon="6.31101">
        <ele>152.5</ele>
        <time>2025-04-21T14:57:24.754Z</time>
      </trkpt>
      <trkpt lat="43.2386" lon="6.31094">
        <ele>152.7</ele>
        <time>2025-04-21T14:57:31Z</time>
      </trkpt>
      <trkpt lat="43.23862" lon="6.31088">
        <ele>152.8</ele>
        <time>2025-04-21T14:57:38.000Z</time>
      </trkpt>
      <trkpt lat="43.23864" lon="6.31082">
        <ele>152.9</ele>
        <time>2025-04-21T14:57:45Z</time>
      </trkpt>
      <trkpt lat="43.23865" lon="6.31075">
        <ele>152.8</ele>
        <time>2025-04-21T14:57:50.904Z</time>
      </trkpt>
      <trkpt lat="43.23866" lon="6.31069">
        <ele>152.7</ele>
        <time>2025-04-21T14:57:56Z</time>
      </trkpt>
      <trkpt lat="43.23866" lon="6.31062">
        <ele>152.7</ele>
        <time>2025-04-21T14:58:01.833Z</time>
      </trkpt>
      <trkpt lat="43.23866" lon="6.31057">
        <ele>152.7</ele>
        <time>2025-04-21T14:58:06Z</time>
      </trkpt>
      <trkpt lat="43.23866" lon="6.3105">
        <ele>152.7</ele>
        <time>2025-04-21T14:58:14.750Z</time>
      </trkpt>
      <trkpt lat="43.23866" lon="6.31045">
        <ele>152.8</ele>
        <time>2025-04-21T14:58:21Z</time>
      </trkpt>
      <trkpt lat="43.23864" lon="6.31037">
        <ele>152.9</ele>
        <time>2025-04-21T14:58:28.439Z</time>
      </trkpt>
      <trkpt lat="43.23863" lon="6.31032">
        <ele>153</ele>
        <time>2025-04-21T14:58:33Z</time>
      </trkpt>
      <trkpt lat="43.23862" lon="6.31026">
        <ele>152.8</ele>
        <time>2025-04-21T14:58:37.742Z</time>
      </trkpt>
      <trkpt lat="43.23859" lon="6.31019">
        <ele>151.9</ele>
        <time>2025-04-21T14:58:44Z</time>
      </trkpt>
      <trkpt lat="43.23857" lon="6.31014">
        <ele>151.4</ele>
        <time>2025-04-21T14:58:48.430Z</time>
      </trkpt>
      <trkpt lat="43.23855" lon="6.31006">
        <ele>150.6</ele>
        <time>2025-04-21T14:58:55Z</time>
      </trkpt>
      <trkpt lat="43.23851" lon="6.31001">
        <ele>150.6</ele>
        <time>2025-04-21T14:59:00.465Z</time>
      </trkpt>
      <trkpt lat="43.23849" lon="6.30994">
        <ele>151.1</ele>
        <time>2025-04-21T14:59:06Z</time>
      </trkpt>
      <trkpt lat="43.23847" lon="6.30987">
        <ele>151.7</ele>
        <time>2025-04-21T14:59:10.803Z</time>
      </trkpt>
      <trkpt lat="43.23843" lon="6.30981">
        <ele>152.3</ele>
        <time>2025-04-21T14:59:16Z</time>
      </trkpt>
      <trkpt lat="43.23839" lon="6.30973">
        <ele>152.8</ele>
        <time>2025-04-21T14:59:21.440Z</time>
      </trkpt>
      <trkpt lat="43.23835" lon="6.30967">
        <ele>152.3</ele>
        <time>2025-04-21T14:59:26Z</time>
      </trkpt>
      <trkpt lat="43.23831" lon="6.30963">
        <ele>151.8</ele>
        <time>2025-04-21T14:59:31.732Z</time>
      </trkpt>
      <trkpt lat="43.23827" lon="6.30958">
        <ele>151.3</ele>
        <time>2025-04-21T14:59:38Z</time>
      </trkpt>
      <trkpt lat="43.23824" lon="6.30952">
        <ele>150.8</ele>
        <time>2025-04-21T14:59:44.611Z</time>
      </trkpt>
      <trkpt lat="43.2382" lon="6.30946">
        <ele>150.6</ele>
        <time>2025-04-21T14:59:52Z</time>
      </trkpt>
      <trkpt lat="43.23817" lon="6.30935">
        <ele>150.6</ele>
        <time>2025-04-21T15:00:21Z</time>
      </trkpt>
      <trkpt lat="43.23821" lon="6.30933">
        <ele>150.4</ele>
        <time>2025-04-21T15:01:08Z</time>
      </trkpt>
      <trkpt lat="43.23823" lon="6.30931">
        <ele>150.4</ele>
        <time>2025-04-21T15:01:51Z</time>
      </trkpt>
      <trkpt lat="43.23823" lon="6.30933">
        <ele>150.3</ele>
        <time>2025-04-21T15:02:53Z</time>
      </trkpt>
      <trkpt lat="43.2382" lon="6.30925">
        <ele>150.5</ele>
        <time>2025-04-21T15:03:02.260Z</time>
      </trkpt>
      <trkpt lat="43.23825" lon="6.3092">
        <ele>150.6</ele>
        <time>2025-04-21T15:03:11Z</time>
      </trkpt>
      <trkpt lat="43.23829" lon="6.30914">
        <ele>151.1</ele>
        <time>2025-04-21T15:03:16.186Z</time>
      </trkpt>
      <trkpt lat="43.23834" lon="6.30908">
        <ele>152</ele>
        <time>2025-04-21T15:03:22Z</time>
      </trkpt>
      <trkpt lat="43.23838" lon="6.30905">
        <ele>152.6</ele>
        <time>2025-04-21T15:03:26.846Z</time>
      </trkpt>
      <trkpt lat="43.23843" lon="6.30901">
        <ele>153.3</ele>
        <time>2025-04-21T15:03:33Z</time>
      </trkpt>
      <trkpt lat="43.23848" lon="6.30895">
        <ele>154.1</ele>
        <time>2025-04-21T15:03:41Z</time>
        <extensions>
          <visugpx:TrkExtension xmlns:visugpx="https://www.visugpx.com/editgpx/">
            <visugpx:node>8</visugpx:node>
            </visugpx:TrkExtension>
        </extensions>
      </trkpt>
      <trkpt lat="43.23842" lon="6.30899">
        <ele>153.4</ele>
        <time>2025-04-21T15:03:49.034Z</time>
      </trkpt>
      <trkpt lat="43.23841" lon="6.30902">
        <ele>153.1</ele>
        <time>2025-04-21T15:03:51.928Z</time>
      </trkpt>
      <trkpt lat="43.23839" lon="6.30904">
        <ele>152.8</ele>
        <time>2025-04-21T15:03:54.907Z</time>
        <extensions>
          <visugpx:TrkExtension xmlns:visugpx="https://www.visugpx.com/editgpx/">
            <visugpx:node>9</visugpx:node>
            </visugpx:TrkExtension>
        </extensions>
      </trkpt>
      <trkpt lat="43.23839" lon="6.30903">
        <ele>152.9</ele>
        <time>2025-04-21T15:03:55.784Z</time>
      </trkpt>
      <trkpt lat="43.23836" lon="6.30906">
        <ele>152.4</ele>
        <time>2025-04-21T15:04:00.252Z</time>
      </trkpt>
      <trkpt lat="43.23832" lon="6.30911">
        <ele>151.6</ele>
        <time>2025-04-21T15:04:06.477Z</time>
      </trkpt>
      <trkpt lat="43.23828" lon="6.30915">
        <ele>150.9</ele>
        <time>2025-04-21T15:04:12.702Z</time>
      </trkpt>
      <trkpt lat="43.23822" lon="6.30922">
        <ele>150.5</ele>
        <time>2025-04-21T15:04:22.179Z</time>
      </trkpt>
      <trkpt lat="43.23818" lon="6.30927">
        <ele>150.5</ele>
        <time>2025-04-21T15:04:29.146Z</time>
      </trkpt>
      <trkpt lat="43.23813" lon="6.30932">
        <ele>150.8</ele>
        <time>2025-04-21T15:04:36.113Z</time>
      </trkpt>
      <trkpt lat="43.23809" lon="6.30933">
        <ele>151</ele>
        <time>2025-04-21T15:04:41.005Z</time>
      </trkpt>
      <trkpt lat="43.23802" lon="6.30941">
        <ele>151.9</ele>
        <time>2025-04-21T15:04:51.689Z</time>
      </trkpt>
      <trkpt lat="43.23795" lon="6.30948">
        <ele>152.5</ele>
        <time>2025-04-21T15:05:02.373Z</time>
      </trkpt>
      <trkpt lat="43.2379" lon="6.30954">
        <ele>152.7</ele>
        <time>2025-04-21T15:05:10.363Z</time>
      </trkpt>
      <trkpt lat="43.23785" lon="6.3096">
        <ele>152.9</ele>
        <time>2025-04-21T15:05:18.353Z</time>
      </trkpt>
      <trkpt lat="43.23782" lon="6.30965">
        <ele>153</ele>
        <time>2025-04-21T15:05:23.780Z</time>
      </trkpt>
      <trkpt lat="43.23779" lon="6.30969">
        <ele>153</ele>
        <time>2025-04-21T15:05:29.207Z</time>
      </trkpt>
      <trkpt lat="43.23776" lon="6.30974">
        <ele>153.2</ele>
        <time>2025-04-21T15:05:34.634Z</time>
      </trkpt>
      <trkpt lat="43.23773" lon="6.30979">
        <ele>153.8</ele>
        <time>2025-04-21T15:05:40.061Z</time>
      </trkpt>
      <trkpt lat="43.2377" lon="6.30983">
        <ele>154.2</ele>
        <time>2025-04-21T15:05:45.488Z</time>
      </trkpt>
      <trkpt lat="43.23767" lon="6.30988">
        <ele>154.7</ele>
        <time>2025-04-21T15:05:50.915Z</time>
      </trkpt>
      <trkpt lat="43.23764" lon="6.30992">
        <ele>155.1</ele>
        <time>2025-04-21T15:05:56.342Z</time>
      </trkpt>
      <trkpt lat="43.23761" lon="6.30997">
        <ele>155.5</ele>
        <time>2025-04-21T15:06:01.769Z</time>
      </trkpt>
      <trkpt lat="43.23761" lon="6.30997">
        <ele>155.5</ele>
        <time>2025-04-21T15:06:01.769Z</time>
        <extensions>
          <visugpx:TrkExtension xmlns:visugpx="https://www.visugpx.com/editgpx/">
            <visugpx:node>10</visugpx:node>
            </visugpx:TrkExtension>
        </extensions>
      </trkpt>
      <trkpt lat="43.23756" lon="6.31003">
        <ele>155.8</ele>
        <time>2025-04-21T15:06:01.769Z</time>
      </trkpt>
      <trkpt lat="43.23752" lon="6.3101">
        <ele>156</ele>
        <time>2025-04-21T15:06:01.769Z</time>
      </trkpt>
      <trkpt lat="43.23747" lon="6.31016">
        <ele>156.2</ele>
        <time>2025-04-21T15:06:01.769Z</time>
      </trkpt>
      <trkpt lat="43.23742" lon="6.31022">
        <ele>156.6</ele>
        <time>2025-04-21T15:06:01.769Z</time>
      </trkpt>
      <trkpt lat="43.23738" lon="6.3103">
        <ele>157.1</ele>
        <time>2025-04-21T15:06:01.769Z</time>
      </trkpt>
      <trkpt lat="43.23733" lon="6.31038">
        <ele>158</ele>
        <time>2025-04-21T15:06:01.769Z</time>
      </trkpt>
      <trkpt lat="43.23726" lon="6.31042">
        <ele>158.7</ele>
        <time>2025-04-21T15:06:01.769Z</time>
      </trkpt>
      <trkpt lat="43.23719" lon="6.31045">
        <ele>159.5</ele>
        <time>2025-04-21T15:06:01.769Z</time>
      </trkpt>
      <trkpt lat="43.23718" lon="6.31055">
        <ele>160.3</ele>
        <time>2025-04-21T15:06:01.769Z</time>
      </trkpt>
      <trkpt lat="43.23716" lon="6.31064">
        <ele>162.2</ele>
        <time>2025-04-21T15:06:01.769Z</time>
      </trkpt>
      <trkpt lat="43.23709" lon="6.31065">
        <ele>162.4</ele>
        <time>2025-04-21T15:06:01.769Z</time>
      </trkpt>
      <trkpt lat="43.23702" lon="6.31065">
        <ele>162.6</ele>
        <time>2025-04-21T15:06:01.769Z</time>
      </trkpt>
      <trkpt lat="43.23697" lon="6.31066">
        <ele>162.7</ele>
        <time>2025-04-21T15:06:01.769Z</time>
      </trkpt>
      <trkpt lat="43.23697" lon="6.31067">
        <ele>162.8</ele>
        <time>2025-04-21T15:06:01.769Z</time>
        <extensions>
          <visugpx:TrkExtension xmlns:visugpx="https://www.visugpx.com/editgpx/">
            <visugpx:node>11</visugpx:node>
            </visugpx:TrkExtension>
        </extensions>
      </trkpt>
      <trkpt lat="43.23697" lon="6.31066">
        <ele>162.7</ele>
        <time>2025-04-21T15:06:01.769Z</time>
      </trkpt>
      <trkpt lat="43.23692" lon="6.31068">
        <ele>163</ele>
        <time>2025-04-21T15:06:01.769Z</time>
      </trkpt>
      <trkpt lat="43.23687" lon="6.31069">
        <ele>163.3</ele>
        <time>2025-04-21T15:06:01.769Z</time>
      </trkpt>
      <trkpt lat="43.23682" lon="6.31069">
        <ele>163.6</ele>
        <time>2025-04-21T15:06:01.769Z</time>
      </trkpt>
      <trkpt lat="43.23674" lon="6.31066">
        <ele>163.8</ele>
        <time>2025-04-21T15:06:01.769Z</time>
      </trkpt>
      <trkpt lat="43.23668" lon="6.31063">
        <ele>163.7</ele>
        <time>2025-04-21T15:06:01.769Z</time>
      </trkpt>
      <trkpt lat="43.23662" lon="6.3106">
        <ele>163.8</ele>
        <time>2025-04-21T15:06:01.769Z</time>
      </trkpt>
      <trkpt lat="43.23655" lon="6.31057">
        <ele>164</ele>
        <time>2025-04-21T15:06:01.769Z</time>
      </trkpt>
      <trkpt lat="43.23648" lon="6.31053">
        <ele>164.1</ele>
        <time>2025-04-21T15:06:01.769Z</time>
      </trkpt>
      <trkpt lat="43.23641" lon="6.3105">
        <ele>164.2</ele>
        <time>2025-04-21T15:06:01.769Z</time>
      </trkpt>
      <trkpt lat="43.23634" lon="6.31046">
        <ele>164.3</ele>
        <time>2025-04-21T15:06:01.769Z</time>
      </trkpt>
      <trkpt lat="43.23629" lon="6.31043">
        <ele>164.2</ele>
        <time>2025-04-21T15:06:01.769Z</time>
      </trkpt>
      <trkpt lat="43.23624" lon="6.31041">
        <ele>164.2</ele>
        <time>2025-04-21T15:06:01.769Z</time>
      </trkpt>
      <trkpt lat="43.23619" lon="6.31038">
        <ele>164.1</ele>
        <time>2025-04-21T15:06:01.769Z</time>
      </trkpt>
      <trkpt lat="43.23615" lon="6.31036">
        <ele>164</ele>
        <time>2025-04-21T15:06:01.769Z</time>
      </trkpt>
      <trkpt lat="43.2361" lon="6.31033">
        <ele>163.8</ele>
        <time>2025-04-21T15:06:01.769Z</time>
      </trkpt>
      <trkpt lat="43.23605" lon="6.3103">
        <ele>163.8</ele>
        <time>2025-04-21T15:06:01.769Z</time>
      </trkpt>
      <trkpt lat="43.236" lon="6.31028">
        <ele>163.8</ele>
        <time>2025-04-21T15:06:01.769Z</time>
      </trkpt>
      <trkpt lat="43.23595" lon="6.31025">
        <ele>164</ele>
        <time>2025-04-21T15:06:01.769Z</time>
      </trkpt>
      <trkpt lat="43.23589" lon="6.31021">
        <ele>164.1</ele>
        <time>2025-04-21T15:06:01.769Z</time>
      </trkpt>
      <trkpt lat="43.23583" lon="6.31018">
        <ele>164.3</ele>
        <time>2025-04-21T15:06:01.769Z</time>
      </trkpt>
      <trkpt lat="43.23576" lon="6.31014">
        <ele>164.4</ele>
        <time>2025-04-21T15:06:01.769Z</time>
      </trkpt>
      <trkpt lat="43.2357" lon="6.3101">
        <ele>164.2</ele>
        <time>2025-04-21T15:06:01.769Z</time>
      </trkpt>
      <trkpt lat="43.23571" lon="6.31008">
        <ele>164</ele>
        <time>2025-04-21T15:06:01.769Z</time>
        <extensions>
          <visugpx:TrkExtension xmlns:visugpx="https://www.visugpx.com/editgpx/">
            <visugpx:node>12</visugpx:node>
            </visugpx:TrkExtension>
        </extensions>
      </trkpt>
      <trkpt lat="43.23572" lon="6.30996">
        <ele>162.8</ele>
        <time>2025-04-21T15:06:01.769Z</time>
      </trkpt>
      <trkpt lat="43.23569" lon="6.31002">
        <ele>163.2</ele>
        <time>2025-04-21T15:06:01.769Z</time>
      </trkpt>
      <trkpt lat="43.23566" lon="6.31007">
        <ele>164</ele>
        <time>2025-04-21T15:06:01.769Z</time>
        <extensions>
          <visugpx:TrkExtension xmlns:visugpx="https://www.visugpx.com/editgpx/">
            <visugpx:node>13</visugpx:node>
            </visugpx:TrkExtension>
        </extensions>
      </trkpt>
      <trkpt lat="43.23566" lon="6.31007">
        <ele>164</ele>
        <time>2025-04-21T15:06:01.769Z</time>
      </trkpt>
      <trkpt lat="43.23562" lon="6.31005">
        <ele>163.7</ele>
        <time>2025-04-21T15:06:01.769Z</time>
      </trkpt>
      <trkpt lat="43.23558" lon="6.31002">
        <ele>163.3</ele>
        <time>2025-04-21T15:06:01.769Z</time>
      </trkpt>
      <trkpt lat="43.23553" lon="6.31">
        <ele>163.3</ele>
        <time>2025-04-21T15:06:01.769Z</time>
      </trkpt>
      <trkpt lat="43.23549" lon="6.30997">
        <ele>163.8</ele>
        <time>2025-04-21T15:06:01.769Z</time>
        <extensions>
          <visugpx:TrkExtension xmlns:visugpx="https://www.visugpx.com/editgpx/">
            <visugpx:node>14</visugpx:node>
            </visugpx:TrkExtension>
        </extensions>
      </trkpt>
      <trkpt lat="43.23549" lon="6.30997">
        <ele>163.8</ele>
        <time>2025-04-21T15:06:01.769Z</time>
      </trkpt>
      <trkpt lat="43.23544" lon="6.30994">
        <ele>164.2</ele>
        <time>2025-04-21T15:06:01.769Z</time>
      </trkpt>
      <trkpt lat="43.23538" lon="6.3099">
        <ele>164.4</ele>
        <time>2025-04-21T15:06:01.769Z</time>
      </trkpt>
      <trkpt lat="43.23533" lon="6.30987">
        <ele>164.3</ele>
        <time>2025-04-21T15:06:01.769Z</time>
      </trkpt>
      <trkpt lat="43.23527" lon="6.30983">
        <ele>164</ele>
        <time>2025-04-21T15:06:01.769Z</time>
      </trkpt>
      <trkpt lat="43.23527" lon="6.30983">
        <ele>164</ele>
        <time>2025-04-21T15:06:01.769Z</time>
      </trkpt>
      <trkpt lat="43.23522" lon="6.30978">
        <ele>163.4</ele>
        <time>2025-04-21T15:06:01.769Z</time>
      </trkpt>
      <trkpt lat="43.23516" lon="6.30973">
        <ele>163</ele>
        <time>2025-04-21T15:06:01.769Z</time>
      </trkpt>
      <trkpt lat="43.23517" lon="6.30962">
        <ele>162.1</ele>
        <time>2025-04-21T15:06:01.769Z</time>
      </trkpt>
      <trkpt lat="43.23517" lon="6.30951">
        <ele>161.4</ele>
        <time>2025-04-21T15:06:01.769Z</time>
      </trkpt>
      <trkpt lat="43.23517" lon="6.30951">
        <ele>161.4</ele>
        <time>2025-04-21T15:06:01.769Z</time>
      </trkpt>
      <trkpt lat="43.23515" lon="6.3094">
        <ele>160.8</ele>
        <time>2025-04-21T15:06:01.769Z</time>
      </trkpt>
      <trkpt lat="43.23514" lon="6.3094">
        <ele>160.8</ele>
        <time>2025-04-21T15:06:01.769Z</time>
        <extensions>
          <visugpx:TrkExtension xmlns:visugpx="https://www.visugpx.com/editgpx/">
            <visugpx:node>15</visugpx:node>
            </visugpx:TrkExtension>
        </extensions>
      </trkpt>
      <trkpt lat="43.23512" lon="6.30934">
        <ele>160.5</ele>
        <time>2025-04-21T15:06:01.769Z</time>
      </trkpt>
      <trkpt lat="43.23511" lon="6.30924">
        <ele>160</ele>
        <time>2025-04-21T15:06:01.769Z</time>
      </trkpt>
      <trkpt lat="43.23509" lon="6.30914">
        <ele>159.4</ele>
        <time>2025-04-21T15:06:01.769Z</time>
      </trkpt>
      <trkpt lat="43.23508" lon="6.30903">
        <ele>158.8</ele>
        <time>2025-04-21T15:06:01.769Z</time>
      </trkpt>
      <trkpt lat="43.23506" lon="6.30893">
        <ele>158.1</ele>
        <time>2025-04-21T15:06:01.769Z</time>
      </trkpt>
      <trkpt lat="43.23506" lon="6.30887">
        <ele>157.8</ele>
        <time>2025-04-21T15:06:01.769Z</time>
      </trkpt>
      <trkpt lat="43.23506" lon="6.30884">
        <ele>157.7</ele>
        <time>2025-04-21T15:06:01.769Z</time>
      </trkpt>
      <trkpt lat="43.23507" lon="6.30877">
        <ele>157.6</ele>
        <time>2025-04-21T15:06:01.769Z</time>
      </trkpt>
      <trkpt lat="43.23505" lon="6.30871">
        <ele>157.7</ele>
        <time>2025-04-21T15:06:01.769Z</time>
      </trkpt>
      <trkpt lat="43.23504" lon="6.30864">
        <ele>157.8</ele>
        <time>2025-04-21T15:06:01.769Z</time>
      </trkpt>
      <trkpt lat="43.23502" lon="6.30858">
        <ele>158</ele>
        <time>2025-04-21T15:06:01.769Z</time>
      </trkpt>
      <trkpt lat="43.235" lon="6.30851">
        <ele>158.4</ele>
        <time>2025-04-21T15:06:01.769Z</time>
        <extensions>
          <visugpx:TrkExtension xmlns:visugpx="https://www.visugpx.com/editgpx/">
            <visugpx:node>16</visugpx:node>
            </visugpx:TrkExtension>
        </extensions>
      </trkpt>
    </trkseg>
  </trk>
</gpx>